Date StartTime U_cm/s V_cm/s W_cm/s Ustd_cm/s Vstd_cm/s Wstd_cm/s Uvar_(cm/s)^2 Vvar_(cm/s)^2 Wvar_(cm/s)^2 KE_(m/s)^2 TurbulentKE_(m/s)^2 HorizWindSpeed_cm/s FrictionSpeec_cm/s DragCoef SpeedOfSound_m/s SonicTemperature_C Pressure_mb 
07/15/2013  00:00:00     -104.766       27.233       -6.935       28.901       20.795       16.443      835.274      432.421      270.356        0.665        0.077      108.247       12.631        0.014      345.874       23.719      861.553
07/15/2013  00:01:00      -60.088       69.597      -11.812       37.872       54.472       20.562     1434.314     2967.240      422.814        0.671        0.241       91.947       22.539        0.060      345.839       23.657      861.545
07/15/2013  00:02:00      -61.758       55.313      -15.291       21.930       34.215       21.756      480.921     1170.674      473.315        0.462        0.106       82.907       14.050        0.029      345.873       23.715      861.540
07/15/2013  00:03:00      -65.260       47.741      -19.869       33.446       32.943       22.251     1118.664     1085.212      495.085        0.482        0.135       80.858       20.052        0.061      345.904       23.767      861.546
07/15/2013  00:04:00     -101.384       13.242       -9.277       40.102       41.697       17.791     1608.208     1738.621      316.514        0.710        0.183      102.245       19.336        0.036      345.872       23.713      861.544
07/15/2013  00:05:00      -77.409       42.648      -10.701       47.352       38.916       25.187     2242.236     1514.449      634.364        0.616        0.220       88.380       26.330        0.089      345.897       23.755      861.542
07/15/2013  00:06:00      -74.056       58.226      -17.392       41.041       25.172       18.265     1684.404      633.642      333.627        0.591        0.133       94.205       16.997        0.033      345.885       23.737      861.526
07/15/2013  00:07:00      -79.727       88.516      -13.296       46.524       67.375       23.175     2164.486     4539.342      537.063        1.080        0.362      119.129       22.074        0.034      345.812       23.609      861.522
07/15/2013  00:08:00      -91.966      113.986      -18.823       46.191       61.444       34.180     2133.636     3775.392     1168.255        1.444        0.354      146.460       33.539        0.052      345.780       23.555      861.516
07/15/2013  00:09:00     -104.636       66.770      -13.080       31.268       31.118       25.623      977.666      968.306      656.531        0.909        0.130      124.125       14.130        0.013      345.834       23.647      861.508
07/15/2013  00:10:00      -88.351       59.147      -16.514       37.295       46.887       24.088     1390.954     2198.371      580.212        0.787        0.208      106.321       22.024        0.043      345.864       23.699      861.504
07/15/2013  00:11:00      -78.532       13.294      -13.530       33.092       23.622       14.514     1095.070      557.996      210.650        0.419        0.093       79.649       13.187        0.027      345.861       23.696      861.522
07/15/2013  00:12:00      -47.446       35.160       -9.821       18.953       24.535       11.986      359.200      601.960      143.672        0.234        0.055       59.053       10.091        0.029      345.867       23.705      861.525
07/15/2013  00:13:00      -50.820       24.079      -11.325       14.721       15.432        8.106      216.706      238.155       65.702        0.191        0.026       56.235        8.273        0.022      345.866       23.702      861.531
07/15/2013  00:14:00      -94.928       26.514      -18.954       22.207       34.585       17.938      493.147     1196.115      321.789        0.604        0.101       98.562       11.798        0.014      345.910       23.779      861.542
07/15/2013  00:15:00      -81.618       26.421      -14.762       27.919       34.730       19.566      779.487     1206.178      382.835        0.497        0.118       85.788       16.538        0.037      345.929       23.810      861.532
07/15/2013  00:16:00      -18.703       69.871      -10.970       28.455       21.609       15.207      809.678      466.930      231.244        0.343        0.075       72.331       11.745        0.026      345.856       23.688      861.532
07/15/2013  00:17:00      -69.860      131.055       -8.885       47.338       45.137       27.647     2240.909     2037.371      764.344        1.359        0.252      148.512       26.837        0.033      345.825       23.633      861.546
07/15/2013  00:18:00      -72.008      123.374      -14.596       35.641       25.235       19.343     1270.254      636.806      374.168        1.145        0.114      142.851       14.104        0.010      345.798       23.588      861.554
07/15/2013  00:19:00      -29.801       93.540       -8.219       24.421       37.477       18.863      596.387     1404.506      355.827        0.603        0.118       98.172       19.050        0.038      345.753       23.508      861.558
07/15/2013  00:20:00      -17.058      129.129      -15.513       24.016       25.864       14.905      576.786      668.943      222.167        0.934        0.073      130.251        9.486        0.005      345.768       23.533      861.566
07/15/2013  00:21:00      -61.891      102.636      -20.303       38.795       37.086       18.424     1505.065     1375.366      339.443        0.900        0.161      119.852       18.802        0.025      345.728       23.467      861.578
07/15/2013  00:22:00      -57.120       61.141      -15.616       30.870       31.726       13.249      952.976     1006.558      175.534        0.469        0.107       83.672        9.941        0.014      345.700       23.418      861.588
07/15/2013  00:23:00      -21.642       46.082       -6.265       28.935       24.060       15.448      837.239      578.895      238.640        0.214        0.083       50.911        9.395        0.034      345.693       23.404      861.569
07/15/2013  00:24:00      -50.730      117.662      -19.103       49.955       66.138       27.859     2495.536     4374.265      776.123        1.221        0.382      128.132       24.448        0.036      345.750       23.502      861.554
07/15/2013  00:25:00      -65.229       78.482      -19.866       37.275       67.490       24.804     1389.443     4554.870      615.219        0.868        0.328      102.050       35.234        0.119      345.721       23.453      861.543
07/15/2013  00:26:00      -46.783        2.409      -10.473       19.785       19.770       16.360      391.444      390.851      267.664        0.168        0.052       46.845       11.497        0.060      345.660       23.347      861.537
07/15/2013  00:27:00      -87.697      -54.340       -8.990       35.544       21.999       15.288     1263.405      483.962      233.720        0.635        0.099      103.167       10.866        0.011      345.753       23.508      861.539
07/15/2013  00:28:00      -87.508      -13.874       -8.216       55.802       24.676       14.892     3113.872      608.910      221.769        0.593        0.197       88.601        7.459        0.007      345.792       23.576      861.541
07/15/2013  00:29:00      -90.036       23.719       -7.760       40.087       25.842       14.777     1606.973      667.812      218.359        0.561        0.125       93.108       11.679        0.016      345.730       23.467      861.536
07/15/2013  00:30:00     -102.203       10.953       -6.261       27.240       32.197       15.142      742.031     1036.659      229.268        0.631        0.100      102.788        7.548        0.005      345.732       23.472      861.528
07/15/2013  00:31:00      -70.787       57.958      -15.031       25.271       22.976       18.508      638.635      527.889      342.548        0.505        0.075       91.487       14.797        0.026      345.741       23.488      861.508
07/15/2013  00:32:00      -44.336       49.308       -9.782       28.625       24.293       20.872      819.374      590.126      435.654        0.317        0.092       66.309       22.267        0.113      345.754       23.509      861.495
07/15/2013  00:33:00      -52.098        5.574       -5.727       19.310       26.089       12.845      372.879      680.654      164.991        0.200        0.061       52.395       10.261        0.038      345.753       23.510      861.497
07/15/2013  00:34:00      -44.981       34.872        1.642       30.944       16.707       12.363      957.536      279.120      152.850        0.232        0.069       56.916        5.968        0.011      345.703       23.422      861.485
07/15/2013  00:35:00      -86.657       27.445      -10.735       42.952       30.919       21.497     1844.882      955.999      462.115        0.582        0.163       90.899       15.227        0.028      345.685       23.391      861.482
07/15/2013  00:36:00     -108.213       11.958      -13.482       38.968       21.151       21.312     1518.474      447.362      454.184        0.723        0.121      108.872       17.308        0.025      345.710       23.436      861.473
07/15/2013  00:37:00      -87.035       20.549       -7.993       21.208       15.400       14.844      449.798      237.148      220.344        0.448        0.045       89.428        8.620        0.009      345.706       23.429      861.472
07/15/2013  00:38:00      -60.978       44.592      -11.761       15.443       26.081       11.285      238.498      680.233      127.342        0.345        0.052       75.544        9.392        0.015      345.709       23.433      861.452
07/15/2013  00:39:00      -78.124       90.278      -21.140       37.360       29.646       15.072     1395.756      878.887      227.153        0.860        0.125      119.388       21.732        0.033      345.752       23.508      861.436
07/15/2013  00:40:00      -52.960      110.101      -15.227       16.102       12.963       12.796      259.264      168.050      163.747        0.787        0.030      122.176        6.596        0.003      345.788       23.568      861.429
07/15/2013  00:41:00      -24.260       88.148      -17.376       12.075       11.852        8.797      145.808      140.458       77.386        0.451        0.018       91.426        3.740        0.002      345.738       23.481      861.418
07/15/2013  00:42:00       -8.933       51.952       -6.156        8.454       26.255       10.332       71.473      689.336      106.741        0.184        0.043       52.715       13.962        0.070      345.708       23.435      861.412
07/15/2013  00:43:00      -20.233       41.895      -10.892       10.439       10.273        6.810      108.966      105.526       46.378        0.127        0.013       46.525        6.077        0.017      345.687       23.395      861.420
07/15/2013  00:44:00       -9.649       50.209       -2.589       26.788       22.094       13.600      717.582      488.140      184.973        0.201        0.070       51.128        9.356        0.033      345.555       23.170      861.419
07/15/2013  00:45:00        1.070       42.857       -2.934       15.052       19.958       11.794      226.548      398.334      139.089        0.131        0.038       42.870        8.505        0.039      345.684       23.391      861.407
07/15/2013  00:46:00       11.945       23.465       -2.419       12.260       12.474        7.010      150.305      155.606       49.136        0.053        0.018       26.331        6.591        0.063      345.582       23.215      861.397
07/15/2013  00:47:00       -5.535       54.201       -8.651        7.769       17.715        5.275       60.353      313.808       27.827        0.172        0.020       54.483        3.713        0.005      345.711       23.438      861.398
07/15/2013  00:48:00       18.569       73.720      -11.082       11.383       12.250       11.166      129.572      150.055      124.690        0.315        0.020       76.023        7.078        0.009      345.603       23.248      861.397
07/15/2013  00:49:00        3.470      101.415      -18.706       25.400       33.414       13.924      645.155     1116.504      193.869        0.630        0.098      101.475       16.231        0.026      345.502       23.079      861.405
07/15/2013  00:50:00        2.254      131.944      -18.746       20.528       25.081       12.718      421.413      629.070      161.744        0.949        0.061      131.963       10.910        0.007      345.462       23.009      861.410
07/15/2013  00:51:00        6.708       93.084      -17.084       20.764       23.646       13.568      431.142      559.137      184.083        0.509        0.059       93.325        9.301        0.010      345.405       22.912      861.396
07/15/2013  00:52:00       20.489       92.460      -10.505       22.400       22.265       16.774      501.778      495.712      281.380        0.518        0.064       94.702       14.609        0.024      345.443       22.976      861.391
07/15/2013  00:53:00       21.558      114.925      -12.029       33.949       41.685       27.390     1152.537     1737.615      750.204        0.873        0.182      116.929       20.655        0.031      345.382       22.871      861.384
07/15/2013  00:54:00       21.494       86.505      -15.127       30.407       31.535       22.015      924.613      994.476      484.660        0.529        0.120       89.136       20.580        0.053      345.300       22.732      861.384
07/15/2013  00:55:00        5.731       85.536       -9.270       19.293       42.661       15.733      372.214     1819.975      247.535        0.494        0.122       85.728       20.486        0.057      345.416       22.930      861.398
07/15/2013  00:56:00       29.729       54.078        1.661       20.295       29.664       15.404      411.867      879.939      237.298        0.267        0.076       61.711       13.079        0.045      345.443       22.977      861.398
07/15/2013  00:57:00       45.623       68.689       -2.218       24.447       24.535       17.611      597.657      601.969      310.136        0.416        0.075       82.460       12.099        0.022      345.515       23.099      861.406
07/15/2013  00:58:00       33.906       34.257       -0.988       12.864       14.147       10.681      165.494      200.132      114.073        0.140        0.024       48.199        6.450        0.018      345.409       22.918      861.424
07/15/2013  00:59:00       17.877       41.555        3.145       13.723       21.930       16.415      188.323      480.908      269.445        0.150        0.047       45.238       14.371        0.101      345.251       22.645      861.444
07/15/2013  01:00:00       10.606       80.294       -9.676       13.589       28.271       13.382      184.671      799.263      179.074        0.391        0.058       80.992       13.102        0.026      345.365       22.843      861.450
07/15/2013  01:01:00       19.574       93.088      -11.579       19.429       19.784       16.104      377.471      391.405      259.348        0.511        0.051       95.123       13.484        0.020      345.294       22.723      861.457
07/15/2013  01:02:00       21.500       70.808       -5.800       28.365       35.952       23.386      804.576     1292.539      546.921        0.408        0.132       74.000       25.509        0.119      345.251       22.648      861.454
07/15/2013  01:03:00       45.213      129.999      -12.952       45.050       49.237       36.010     2029.474     2424.308     1296.723        1.243        0.288      137.637       25.208        0.034      345.470       23.024      861.450
07/15/2013  01:04:00       47.988       97.872      -20.659       47.492       54.535       31.352     2255.487     2974.051      982.948        0.926        0.311      109.003       30.453        0.078      345.668       23.363      861.443
07/15/2013  01:05:00       50.502       55.221        4.497       41.055       41.940       32.803     1685.487     1758.937     1076.032        0.507        0.226       74.832       24.021        0.103      345.564       23.185      861.433
07/15/2013  01:06:00       15.492       53.495        1.631       30.682       47.914       25.768      941.394     2295.736      663.974        0.350        0.195       55.693       24.801        0.198      345.492       23.060      861.439
07/15/2013  01:07:00       21.667      117.170      -18.779       22.954       56.045       20.506      526.887     3141.026      420.490        0.932        0.204      119.157       26.879        0.051      345.473       23.027      861.446
07/15/2013  01:08:00        9.077      117.214      -12.187       22.210       28.011       20.643      493.275      784.622      426.132        0.784        0.085      117.565       15.632        0.018      345.422       22.943      861.443
07/15/2013  01:09:00      -64.457      104.700      -12.137       43.137       51.567       25.157     1860.796     2659.201      632.883        1.021        0.258      122.951       19.113        0.024      345.488       23.054      861.431
07/15/2013  01:10:00      -39.944       46.927      -10.433       26.825       49.854       17.120      719.587     2485.383      293.104        0.370        0.175       61.625       25.985        0.178      345.469       23.022      861.430
07/15/2013  01:11:00      -53.935       -5.072      -17.393       32.754       19.760       13.782     1072.805      390.457      189.935        0.244        0.083       54.173       12.002        0.049      345.554       23.167      861.441
07/15/2013  01:12:00      -47.338        2.291       -2.468       35.133       18.274       12.630     1234.307      333.928      159.510        0.199        0.086       47.393       13.618        0.083      345.537       23.137      861.440
07/15/2013  01:13:00      -76.542       49.373      -21.787       35.390       17.331       17.120     1252.455      300.377      293.080        0.531        0.092       91.084       11.220        0.015      345.679       23.380      861.439
07/15/2013  01:14:00      -86.859       67.526      -26.100       30.867       35.757       16.076      952.761     1278.545      258.425        0.764        0.124      110.019       17.137        0.024      345.569       23.194      861.446
07/15/2013  01:15:00      -58.823       90.706      -24.304       46.444       35.424       16.746     2157.011     1254.848      280.445        0.798        0.185      108.110        8.955        0.007      345.448       22.983      861.454
07/15/2013  01:16:00       -4.783       45.333       -8.710       42.381       36.949       19.182     1796.173     1365.202      367.943        0.284        0.176       45.585       20.953        0.211      345.306       22.741      861.459
07/15/2013  01:17:00      -39.090       76.483       -6.261       31.268       31.955       19.258      977.670     1021.115      370.856        0.489        0.118       85.894       18.515        0.046      345.391       22.887      861.466
07/15/2013  01:18:00      -41.326       99.245      -11.530       24.022       32.687       17.558      577.075     1068.465      308.279        0.682        0.098      107.505       15.239        0.020      345.395       22.895      861.476
07/15/2013  01:19:00      -35.367       30.439       -5.058       16.122       30.424       15.096      259.904      925.631      227.901        0.181        0.071       46.662       14.958        0.103      345.413       22.924      861.485
07/15/2013  01:20:00       -9.389       -2.799        4.881       12.219       13.814        8.913      149.296      190.839       79.447        0.027        0.021        9.798        7.153        0.533      345.378       22.865      861.497
07/15/2013  01:21:00       -5.564       52.963       -6.929       24.616       26.995       10.007      605.932      728.748      100.132        0.216        0.072       53.254        5.863        0.012      345.390       22.886      861.509
07/15/2013  01:22:00      -12.096       66.930       -9.597       16.806       16.521        7.716      282.456      272.945       59.532        0.267        0.031       68.014        6.082        0.008      345.396       22.895      861.508
07/15/2013  01:23:00      -14.867       63.890      -10.412       17.744       16.172        9.421      314.836      261.544       88.757        0.254        0.033       65.597        9.894        0.023      345.345       22.811      861.504
07/15/2013  01:24:00      -36.022       12.774       -1.558       15.639       19.292       11.802      244.578      372.193      139.284        0.111        0.038       38.219       10.324        0.073      345.254       22.653      861.493
07/15/2013  01:25:00      -50.195        8.315       -7.312       10.633       10.001        8.262      113.054      100.021       68.259        0.146        0.014       50.879        4.701        0.009      345.229       22.611      861.476
07/15/2013  01:26:00      -70.481        2.401       -8.012       12.626       16.064       10.302      159.407      258.036      106.135        0.278        0.026       70.522        5.960        0.007      345.260       22.661      861.454
07/15/2013  01:27:00      -99.952      -24.718       -7.119       27.177       33.522       17.840      738.610     1123.716      318.257        0.642        0.109      102.963       16.455        0.026      345.230       22.612      861.424
07/15/2013  01:28:00     -135.794      -58.613       -4.332       22.047       19.213       16.801      486.059      369.135      282.271        1.152        0.057      147.904       13.518        0.008      345.187       22.537      861.404
07/15/2013  01:29:00      -98.860      -41.952        1.758       38.020       27.815       24.033     1445.511      773.689      577.597        0.717        0.140      107.393       21.933        0.042      345.124       22.431      861.388
07/15/2013  01:30:00     -100.916      -57.565        3.763       63.352       41.159       25.001     4013.456     1694.103      625.026        0.992        0.317      116.180       31.487        0.073      345.191       22.545      861.371
07/15/2013  01:31:00      -65.248      -49.887        1.196       41.338       30.635       24.462     1708.815      938.477      598.386        0.500        0.162       82.134       17.142        0.044      345.263       22.668      861.351
07/15/2013  01:32:00     -121.213      -32.613      -13.515       30.414       35.638       18.049      925.031     1270.082      325.759        0.923        0.126      125.523       11.454        0.008      345.195       22.553      861.344
07/15/2013  01:33:00     -164.749      -17.682      -16.490       35.348       35.833       29.335     1249.507     1284.006      860.538        1.556        0.170      165.695       20.344        0.015      345.114       22.414      861.354
07/15/2013  01:34:00     -153.741      -46.103       -7.911       27.273       46.907       21.899      743.826     2200.231      479.548        1.462        0.171      160.505       17.257        0.012      345.044       22.294      861.353
07/15/2013  01:35:00     -140.870      -65.623      -21.415       34.680       27.144       22.392     1202.716      736.814      501.387        1.352        0.122      155.405       14.380        0.009      345.168       22.506      861.349
07/15/2013  01:36:00     -158.430      -33.794       -6.928       40.570       51.495       29.143     1645.895     2651.756      849.339        1.572        0.257      161.994       27.975        0.030      345.096       22.384      861.355
07/15/2013  01:37:00     -126.417      -12.451       -4.667       41.843       32.580       25.294     1750.841     1061.470      639.792        0.980        0.173      127.029       23.503        0.034      345.165       22.501      861.349
07/15/2013  01:38:00      -78.945       17.428       -6.233       26.994       22.484       15.642      728.655      505.541      244.661        0.403        0.074       80.846       13.244        0.027      345.155       22.483      861.354
07/15/2013  01:39:00     -103.587       10.930       -6.335       36.649       22.417       19.308     1343.122      502.503      372.802        0.655        0.111      104.162       17.445        0.028      345.326       22.776      861.356
07/15/2013  01:40:00     -108.253       35.303      -17.092       40.635       41.751       20.153     1651.201     1743.175      406.128        0.853        0.190      113.864       26.661        0.055      345.267       22.674      861.350
07/15/2013  01:41:00      -81.622       38.261      -13.859       26.758       23.631       14.604      715.988      558.414      213.287        0.490        0.074       90.144       10.420        0.013      345.206       22.571      861.331
07/15/2013  01:42:00      -77.596       56.212      -11.027       39.552       25.807       13.980     1564.344      665.986      195.433        0.586        0.121       95.817       17.988        0.035      345.196       22.555      861.333
07/15/2013  01:43:00     -121.935      137.194      -26.954       30.359       29.222       21.368      921.677      853.922      456.597        1.832        0.112      183.550       16.245        0.008      345.073       22.343      861.348
07/15/2013  01:44:00     -108.722      115.083      -26.664       29.814       28.472       17.397      888.899      810.628      302.668        1.389        0.100      158.318       13.129        0.007      345.054       22.311      861.343
07/15/2013  01:45:00      -50.629       25.718       -6.179       23.368       32.528       13.682      546.076     1058.100      187.189        0.253        0.090       56.787       13.629        0.058      344.913       22.069      861.340
07/15/2013  01:46:00     -114.354       12.929      -14.675       51.235       40.483       18.891     2625.042     1638.906      356.871        0.904        0.231      115.082       16.923        0.022      344.714       21.730      861.390
07/15/2013  01:47:00     -163.288        7.012       -9.929       41.690       22.744       24.916     1738.062      517.305      620.796        1.484        0.144      163.438       22.482        0.019      344.454       21.282      861.411
07/15/2013  01:48:00      -28.942      -30.007        5.274       26.519       33.072       19.564      703.249     1093.749      382.751        0.197        0.109       41.690       11.809        0.080      344.474       21.318      861.404
07/15/2013  01:49:00      -28.403      -60.074       -2.456       22.586       23.234       13.615      510.107      539.828      185.380        0.283        0.062       66.450       13.277        0.040      344.779       21.840      861.396
07/15/2013  01:50:00      -57.219      -30.997       -1.454       37.116       33.990       19.932     1377.606     1155.340      397.270        0.358        0.147       65.076       26.224        0.162      344.803       21.881      861.429
07/15/2013  01:51:00      -89.157       39.074       -4.107       54.879       47.177       23.661     3011.701     2225.692      559.838        0.764        0.290       97.343       25.126        0.067      344.597       21.529      861.470
07/15/2013  01:52:00      -83.756       72.100      -10.942       49.108       43.379       19.439     2411.583     1881.713      377.875        0.850        0.234      110.514       15.950        0.021      344.542       21.435      861.513
07/15/2013  01:53:00       -2.935       25.797       -1.953       21.597       56.141       17.233      466.445     3151.852      296.962        0.230        0.196       25.963       18.973        0.534      344.593       21.522      861.520
07/15/2013  01:54:00       32.088     -118.155       -5.280       23.217       31.343       19.736      539.031      982.400      389.502        0.846        0.096      122.434       17.544        0.021      345.058       22.318      861.491
07/15/2013  01:55:00       24.071     -156.182       -8.107       45.176       50.732       30.084     2040.909     2573.693      905.023        1.528        0.276      158.026       25.901        0.027      344.954       22.139      861.445
07/15/2013  01:56:00      -96.201     -115.286       -3.302       83.014       75.702       30.473     6891.256     5730.789      928.634        1.805        0.678      150.152       32.390        0.047      345.228       22.608      861.451
07/15/2013  01:57:00      -94.412        2.729       -3.700       61.445       52.636       33.439     3775.448     2770.554     1118.170        0.830        0.383       94.451       29.991        0.101      344.889       22.028      861.512
07/15/2013  01:58:00      -86.338       15.742        3.055       48.094       39.622       26.230     2313.068     1569.911      688.030        0.614        0.229       87.762       19.359        0.049      344.605       21.543      861.518
07/15/2013  01:59:00      -47.660      -15.726        6.722       42.606       22.729       16.062     1815.285      516.595      257.976        0.258        0.129       50.187       13.996        0.078      344.531       21.416      861.496
07/15/2013  02:00:00      -28.114      -53.558        0.530       41.075       26.741       20.575     1687.146      715.058      423.320        0.324        0.141       60.488       10.557        0.030      344.688       21.684      861.486
07/15/2013  02:01:00      -24.527      -27.449        5.704       18.983       35.692       15.085      360.364     1273.908      227.549        0.162        0.093       36.810       13.117        0.127      345.080       22.356      861.459
07/15/2013  02:02:00      -20.135       -3.339       10.711       17.744       13.547       10.950      314.862      183.522      119.911        0.057        0.031       20.410        6.346        0.097      344.632       21.589      861.452
07/15/2013  02:03:00      -11.662      -39.676       -5.498       15.097       20.454       13.915      227.913      418.382      193.639        0.129        0.042       41.354        9.741        0.055      344.699       21.704      861.448
07/15/2013  02:04:00      -38.712      -47.279       -2.978       19.801       19.554        9.286      392.099      382.378       86.235        0.230        0.043       61.106        7.998        0.017      344.964       22.157      861.448
07/15/2013  02:05:00      -17.006      -40.163       -6.318       22.158       21.992       10.210      490.985      483.638      104.239        0.151        0.054       43.615       10.312        0.056      344.886       22.025      861.448
07/15/2013  02:06:00        5.706        7.739        3.877       17.063       18.587       10.925      291.159      345.470      119.350        0.043        0.038        9.615       11.233        1.365      344.732       21.760      861.460
07/15/2013  02:07:00      -26.058      -10.956       -0.293       14.223       17.029        9.880      202.307      289.984       97.616        0.069        0.029       28.267        9.312        0.109      344.700       21.705      861.486
07/15/2013  02:08:00      -88.762       -6.435       -3.240       25.239       35.484       15.896      637.022     1259.136      252.684        0.504        0.107       88.995       10.397        0.014      344.652       21.623      861.513
07/15/2013  02:09:00      -46.563       -9.305       -0.901       37.194       17.187       13.123     1383.386      295.386      172.210        0.205        0.093       47.484       16.215        0.117      344.422       21.229      861.508
07/15/2013  02:10:00       15.978      -18.616        8.975       25.233       40.751       25.179      636.723     1660.611      633.970        0.181        0.147       24.533       28.619        1.361      344.552       21.451      861.486
07/15/2013  02:11:00       25.760       18.694       24.067       22.017       17.234       20.346      484.756      297.008      413.957        0.139        0.060       31.828       14.913        0.220      344.410       21.208      861.481
07/15/2013  02:12:00       19.012       29.681       16.436       17.355       14.001       14.863      301.180      196.037      220.912        0.112        0.036       35.248        9.167        0.068      344.482       21.334      861.481
07/15/2013  02:13:00      -23.691        6.630       -6.151       24.006       13.398        7.024      576.277      179.510       49.339        0.072        0.040       24.602        7.645        0.097      344.626       21.578      861.500
07/15/2013  02:14:00     -107.726      -34.789       -9.215       31.413       27.124       18.598      986.795      735.719      345.903        0.748        0.103      113.204       11.999        0.011      344.443       21.265      861.515
07/15/2013  02:15:00      -29.522      -41.037       10.485       53.899       31.072       23.040     2905.118      965.474      530.852        0.353        0.220       50.553       28.870        0.326      344.438       21.258      861.504
07/15/2013  02:16:00        9.500      -30.342       20.541       18.654       18.705       20.801      347.957      349.866      432.688        0.128        0.057       31.795       17.998        0.320      344.630       21.583      861.489
07/15/2013  02:17:00      -30.730      -28.856        7.639       35.982       25.775       18.665     1294.693      664.375      348.396        0.207        0.115       42.155       13.948        0.109      344.693       21.694      861.485
07/15/2013  02:18:00      -47.721      -44.076       -0.203       40.734       22.618       18.393     1659.241      511.572      338.305        0.336        0.125       64.961        7.467        0.013      344.767       21.818      861.497
07/15/2013  02:19:00      -43.795      -55.790        1.930       43.219       26.105       16.573     1867.863      681.470      274.652        0.393        0.141       70.926       14.055        0.039      344.716       21.731      861.515
07/15/2013  02:20:00      -76.962      -60.440       -7.105       19.082       22.115       10.143      364.110      489.074      102.887        0.529        0.048       97.858        9.327        0.009      344.683       21.676      861.529
07/15/2013  02:21:00      -79.391      -10.435       -5.131       21.344       19.603       10.378      455.546      384.277      107.706        0.369        0.047       80.074       10.121        0.016      344.609       21.550      861.542
07/15/2013  02:22:00      -66.835      -20.995       -7.936       25.382       18.044       10.992      644.248      325.584      120.816        0.303        0.055       70.055       11.416        0.027      344.559       21.464      861.557
07/15/2013  02:23:00       -9.198      -44.075       -0.316       13.797       22.571       11.516      190.361      509.432      132.614        0.143        0.042       45.024       11.736        0.068      344.543       21.437      861.560
07/15/2013  02:24:00      -19.826     -103.757       -5.075       34.340       33.189       15.412     1179.265     1101.492      237.537        0.685        0.126      105.634        5.148        0.002      344.791       21.860      861.553
07/15/2013  02:25:00      -50.298      -99.613       -6.651       31.337       35.525       19.115      981.979     1262.040      365.382        0.755        0.130      111.591       13.895        0.016      344.866       21.988      861.556
07/15/2013  02:26:00      -44.473      -50.575        2.871       30.036       32.202       20.054      902.183     1036.987      402.172        0.344        0.117       67.347       18.959        0.079      344.642       21.607      861.552
07/15/2013  02:27:00      -45.826      -18.034        7.855       35.022       40.149       19.190     1226.553     1611.951      368.252        0.285        0.160       49.246       23.699        0.232      344.502       21.367      861.547
07/15/2013  02:28:00        4.439        7.987       15.934        8.439        9.046        6.523       71.220       81.835       42.554        0.027        0.010        9.137        2.127        0.054      344.386       21.169      861.557
07/15/2013  02:29:00       25.220       40.481        0.697       27.829       14.267       13.975      774.429      203.544      195.299        0.172        0.059       47.695       11.002        0.053      344.335       21.082      861.561
07/15/2013  02:30:00        4.314       43.527      -10.712       18.832       17.692        8.914      354.626      313.004       79.460        0.139        0.037       43.741        7.835        0.032      344.250       20.935      861.552
07/15/2013  02:31:00        5.090       21.304        0.992        9.660       10.422       11.910       93.325      108.613      141.844        0.041        0.017       21.904        4.785        0.048      344.199       20.846      861.550
07/15/2013  02:32:00        5.543        8.331       -3.595        6.502       21.116        5.532       42.280      445.890       30.599        0.032        0.026       10.007        3.012        0.091      344.244       20.927      861.545
07/15/2013  02:33:00        4.265      -41.656       11.462       17.237       23.040       14.379      297.123      530.825      206.743        0.146        0.052       41.873       10.254        0.060      344.351       21.107      861.546
07/15/2013  02:34:00      -59.389      -55.924        5.505       37.069       37.711       17.853     1374.138     1422.086      318.733        0.490        0.156       81.576       18.347        0.051      344.356       21.116      861.529
07/15/2013  02:35:00      -48.244      -20.927        2.697       32.527       20.711       15.576     1058.005      428.931      242.613        0.225        0.086       52.587       12.744        0.059      344.362       21.127      861.521
07/15/2013  02:36:00     -103.804      -48.944       -0.608       29.446       24.845       15.256      867.053      617.283      232.738        0.744        0.086      114.764       14.108        0.015      344.351       21.108      861.522
07/15/2013  02:37:00      -90.810      -17.242       -0.358       24.869       31.414       17.264      618.484      986.846      298.032        0.522        0.095       92.433       13.871        0.023      344.156       20.775      861.525
07/15/2013  02:38:00      -88.757      -31.377       -0.373       29.690       21.234       14.150      881.507      450.897      200.222        0.520        0.077       94.139       10.777        0.013      344.051       20.596      861.507
07/15/2013  02:39:00     -128.219      -52.581       -3.125       35.048       31.214       16.621     1228.382      974.311      276.244        1.085        0.124      138.582       17.860        0.017      344.220       20.883      861.487
07/15/2013  02:40:00     -121.612      -66.317       -1.289       39.551       20.583       21.241     1564.287      423.676      451.186        1.081        0.122      138.519       12.498        0.008      344.217       20.878      861.470
07/15/2013  02:41:00     -129.284      -62.471        4.780       51.189       38.988       25.840     2620.349     1520.071      667.711        1.272        0.240      143.586       18.936        0.017      344.293       21.008      861.456
07/15/2013  02:42:00     -138.266      -84.346        3.874       57.585       49.010       29.060     3316.080     2401.951      844.474        1.640        0.328      161.962       26.583        0.027      344.381       21.159      861.455
07/15/2013  02:43:00      -60.779      -57.724       11.012       66.157       38.035       29.115     4376.693     1446.662      847.709        0.691        0.334       83.822       26.305        0.098      344.304       21.027      861.449
07/15/2013  02:44:00      -89.929      -74.020        9.748       84.792       52.726       38.975     7189.682     2780.030     1519.066        1.257        0.574      116.474       42.212        0.131      344.289       21.003      861.444
07/15/2013  02:45:00     -148.836      -97.200       -2.076       75.286       43.251       29.451     5667.996     1870.671      867.339        2.000        0.420      177.764       33.563        0.036      344.448       21.272      861.440
07/15/2013  02:46:00     -104.836     -112.190        0.051       92.237       57.933       40.502     8507.698     3356.285     1640.429        1.854        0.675      153.548       51.149        0.111      344.531       21.414      861.444
07/15/2013  02:47:00     -110.652      -79.532       -0.181       68.557       57.824       38.908     4700.040     3343.665     1513.863        1.406        0.478      136.269       35.200        0.067      344.548       21.444      861.461
07/15/2013  02:48:00     -148.871      -90.705       -5.785       44.669       42.320       28.750     1995.363     1791.015      826.586        1.752        0.231      174.327       23.439        0.018      344.561       21.466      861.472
07/15/2013  02:49:00     -109.680      -37.925        2.064       54.001       51.637       24.012     2916.114     2666.376      576.598        0.981        0.308      116.052       25.458        0.048      344.574       21.488      861.488
07/15/2013  02:50:00     -113.161      -35.422        6.629       72.980       40.940       33.841     5326.013     1676.110     1145.214        1.112        0.407      118.575       37.575        0.100      344.543       21.437      861.491
07/15/2013  02:51:00     -123.343      -51.714       -0.909       37.848       33.171       18.712     1432.498     1100.293      350.140        1.039        0.144      133.746       19.333        0.021      344.542       21.435      861.483
07/15/2013  02:52:00     -108.427      -64.079        7.165       60.185       34.279       30.648     3622.259     1175.036      939.285        1.082        0.287      125.947       35.434        0.079      344.530       21.415      861.484
07/15/2013  02:53:00      -96.965      -77.804        2.778       42.869       33.769       23.990     1837.727     1140.338      575.499        0.951        0.178      124.321       22.692        0.033      344.566       21.475      861.479
07/15/2013  02:54:00     -137.307      -61.861        2.787       53.167       37.890       23.679     2826.721     1435.665      560.711        1.375        0.241      150.599       24.732        0.027      344.534       21.422      861.478
07/15/2013  02:55:00      -72.705      -60.452        8.935       49.579       38.413       28.140     2458.045     1475.534      791.862        0.687        0.236       94.554       25.973        0.075      344.494       21.352      861.486
07/15/2013  02:56:00     -107.812      -64.373       -4.061       45.403       32.469       23.634     2061.389     1054.223      558.575        0.973        0.184      125.568       22.411        0.032      344.535       21.422      861.480
07/15/2013  02:57:00      -74.130     -100.688        0.360       48.051       46.403       28.170     2308.887     2153.228      793.567        1.044        0.263      125.034       28.761        0.053      344.538       21.427      861.470
07/15/2013  02:58:00      -80.206      -51.500        8.835       54.546       43.885       29.203     2975.217     1925.907      852.836        0.746        0.288       95.317       26.268        0.076      344.366       21.133      861.466
07/15/2013  02:59:00      -96.639      -92.934       -4.094       46.026       41.701       24.583     2118.436     1738.942      604.346        1.123        0.223      134.074       12.508        0.009      344.379       21.155      861.462
07/15/2013  03:00:00     -106.003      -66.869        5.126       55.931       40.778       26.177     3128.282     1662.878      685.238        1.060        0.274      125.332       26.085        0.043      344.324       21.062      861.452
07/15/2013  03:01:00      -72.885      -81.636        3.198       58.907       48.557       26.813     3470.025     2357.775      718.954        0.927        0.327      109.438       31.281        0.082      344.296       21.013      861.446
07/15/2013  03:02:00      -98.298      -91.026       -4.103       58.950       43.672       33.511     3475.061     1907.261     1122.964        1.223        0.325      133.971       23.702        0.031      344.288       20.999      861.438
07/15/2013  03:03:00     -137.873      -84.088        1.756       53.910       51.604       33.521     2906.316     2662.989     1123.674        1.639        0.335      161.492       31.514        0.038      344.339       21.086      861.420
07/15/2013  03:04:00     -106.606      -78.185        0.117       40.005       37.896       23.898     1600.365     1436.101      571.114        1.054        0.180      132.203       20.047        0.023      344.269       20.969      861.429
07/15/2013  03:05:00     -122.040      -99.782       -1.069       64.109       44.020       31.720     4109.996     1937.797     1006.139        1.595        0.353      157.639       24.082        0.023      344.303       21.026      861.437
07/15/2013  03:06:00     -143.940      -89.373        4.744       61.559       49.718       34.985     3789.475     2471.873     1223.920        1.811        0.374      169.429       31.515        0.035      344.309       21.036      861.429
07/15/2013  03:07:00     -113.169      -93.307      -10.005       37.287       41.356       28.869     1390.302     1710.286      833.420        1.277        0.197      146.674       24.659        0.028      344.215       20.875      861.436
07/15/2013  03:08:00     -125.054      -93.962       -2.494       44.499       47.798       23.600     1980.135     2284.625      556.948        1.465        0.241      156.421       20.204        0.017      344.216       20.878      861.450
07/15/2013  03:09:00     -100.722     -115.361       -5.374       43.929       50.708       28.509     1929.774     2571.300      812.735        1.440        0.266      153.144       23.699        0.024      344.169       20.796      861.455
07/15/2013  03:10:00     -115.338      -90.827        5.122       68.940       41.308       33.285     4752.678     1706.391     1107.897        1.457        0.378      146.807       30.855        0.044      344.195       20.841      861.448
07/15/2013  03:11:00      -79.147     -116.953       -4.731       56.777       47.659       26.267     3223.599     2271.385      689.970        1.307        0.309      141.217       23.560        0.028      344.192       20.835      861.445
07/15/2013  03:12:00     -108.811     -107.175        4.374       69.124       60.398       38.857     4778.151     3647.931     1509.851        1.664        0.497      152.730       27.683        0.033      344.131       20.731      861.439
07/15/2013  03:13:00     -123.874     -130.835       -2.502       71.312       62.558       39.582     5085.422     3913.536     1566.708        2.152        0.528      180.174       32.681        0.033      344.088       20.657      861.438
07/15/2013  03:14:00     -152.033      -96.519       -0.911       58.736       41.993       30.257     3449.936     1763.406      915.471        1.928        0.306      180.083       20.045        0.012      344.061       20.611      861.434
07/15/2013  03:15:00     -127.933     -101.731       -8.722       64.570       50.444       28.297     4169.245     2544.587      800.693        1.715        0.376      163.450       29.475        0.033      344.035       20.567      861.439
07/15/2013  03:16:00     -137.935      -72.204       -7.078       57.167       70.314       39.225     3268.085     4944.041     1538.591        1.702        0.488      155.690       30.917        0.039      344.083       20.648      861.435
07/15/2013  03:17:00      -76.527      -39.858        3.945       63.099       52.706       34.413     3981.534     2777.888     1184.222        0.770        0.397       86.284       33.470        0.150      344.168       20.795      861.436
07/15/2013  03:18:00      -91.531      -36.852        2.984       68.387       33.103       31.203     4676.788     1095.808      973.619        0.824        0.337       98.671       38.813        0.155      344.473       21.319      861.429
07/15/2013  03:19:00      -99.356      -66.851        2.179       66.440       65.928       34.053     4414.331     4346.512     1159.623        1.213        0.496      119.753       28.608        0.057      344.346       21.097      861.434
07/15/2013  03:20:00     -124.442      -58.058       10.697       73.122       78.922       38.980     5346.756     6228.607     1519.436        1.603        0.655      137.319       38.967        0.081      344.387       21.168      861.452
07/15/2013  03:21:00     -199.027       -9.362      -13.026       92.322       66.056       43.763     8523.380     4363.387     1915.227        2.733        0.740      199.247       48.576        0.059      344.341       21.090      861.474
07/15/2013  03:22:00     -165.100      -45.670        1.112       93.282      101.559       46.272     8701.530    10314.221     2141.083        2.525        1.058      171.300       52.718        0.095      344.407       21.202      861.478
07/15/2013  03:23:00      -73.097      -26.885        6.295       86.588       69.908       48.657     7497.526     4887.141     2367.550        1.043        0.738       77.884       33.443        0.184      344.449       21.275      861.469
07/15/2013  03:24:00     -132.437      -31.057        4.514       72.269       61.702       43.721     5222.786     3807.125     1911.539        1.473        0.547      136.029       41.522        0.093      344.346       21.099      861.483
07/15/2013  03:25:00      -86.607      -41.225        6.641       68.100       67.214       28.724     4637.563     4517.771      825.078        0.961        0.499       95.918       31.787        0.110      344.346       21.099      861.474
07/15/2013  03:26:00      -60.727      -25.726        6.496       74.987       36.197       30.287     5623.097     1310.209      917.311        0.612        0.393       65.952       37.982        0.332      344.372       21.143      861.459
07/15/2013  03:27:00     -128.852      -60.656       -0.939       94.973       45.701       25.524     9019.901     2088.582      651.454        1.602        0.588      142.415       33.553        0.056      344.308       21.034      861.455
07/15/2013  03:28:00     -159.329      -24.872        0.058       63.406       50.407       31.228     4020.311     2540.833      975.161        1.677        0.377      161.258       26.830        0.028      344.295       21.010      861.435
07/15/2013  03:29:00     -183.217        3.645      -17.006       64.385       56.881       29.802     4145.442     3235.454      888.186        2.107        0.413      183.253       33.928        0.034      344.296       21.010      861.399
07/15/2013  03:30:00      -55.950      -25.553       18.983       59.247       50.124       37.037     3510.200     2512.411     1371.775        0.577        0.370       61.509       32.138        0.273      344.210       20.868      861.380
07/15/2013  03:31:00     -116.581      -74.447        9.747       85.485       56.422       37.147     7307.680     3183.399     1379.890        1.555        0.594      138.323       42.314        0.094      344.265       20.960      861.358
07/15/2013  03:32:00      -96.667      -38.111       10.940       89.055       54.896       39.622     7930.779     3013.599     1569.878        1.171        0.626      103.908       47.296        0.207      344.352       21.110      861.335
07/15/2013  03:33:00     -131.235      -69.393       -5.463       90.677       65.515       44.994     8222.316     4292.152     2024.445        1.830        0.727      148.452       46.144        0.097      344.361       21.124      861.332
07/15/2013  03:34:00     -133.871      -59.792        3.230       65.734       48.444       38.829     4320.921     2346.803     1507.663        1.484        0.409      146.617       40.746        0.077      344.322       21.057      861.327
07/15/2013  03:35:00     -149.271     -109.313        3.809       67.763       51.618       35.920     4591.890     2664.414     1290.219        2.139        0.427      185.017       34.457        0.035      344.305       21.028      861.312
07/15/2013  03:36:00     -145.178     -112.162        3.718       87.243       78.746       38.359     7611.326     6200.983     1471.381        2.447        0.764      183.459       39.113        0.045      344.296       21.011      861.297
07/15/2013  03:37:00     -126.234      -53.301       -1.994       91.419       74.361       37.195     8357.441     5529.594     1383.458        1.702        0.764      137.026       39.599        0.084      344.250       20.936      861.305
07/15/2013  03:38:00     -135.704     -114.921       -1.133      100.071       67.560       39.541    10014.268     4564.386     1563.455        2.388        0.807      177.827       48.191        0.073      344.224       20.889      861.312
07/15/2013  03:39:00     -147.214      -94.688       -5.303       80.988       65.873       37.621     6559.055     4339.241     1415.375        2.149        0.616      175.036       38.190        0.048      344.199       20.845      861.312
07/15/2013  03:40:00     -109.372      -73.521       -2.824       49.617       52.143       28.236     2461.882     2718.843      797.297        1.168        0.299      131.786       26.386        0.040      344.151       20.766      861.312
07/15/2013  03:41:00      -68.968      -49.929        2.232       45.368       68.418       24.563     2058.292     4681.041      603.336        0.730        0.367       85.144       18.427        0.047      344.107       20.690      861.329
07/15/2013  03:42:00      -78.382      -13.238       -3.875       31.464       23.820       16.463      989.996      567.372      271.021        0.408        0.091       79.492       14.219        0.032      344.074       20.635      861.327
07/15/2013  03:43:00      -87.867        5.989       -5.395       29.879       25.530       18.825      892.767      651.804      354.379        0.484        0.095       88.071       17.313        0.039      343.911       20.354      861.325
07/15/2013  03:44:00     -104.920       -4.479       -9.386       31.056       29.356       17.644      964.505      861.758      311.299        0.663        0.107      105.016       16.363        0.024      343.910       20.355      861.309
07/15/2013  03:45:00      -73.261      -11.018       -5.519       28.463       27.207       17.370      810.145      740.244      301.731        0.369        0.093       74.085       13.992        0.036      343.859       20.269      861.298
07/15/2013  03:46:00      -94.612      -47.503       -5.901       20.618       20.290       14.546      425.110      411.696      211.587        0.615        0.052      105.867        9.212        0.008      343.839       20.232      861.290
07/15/2013  03:47:00      -98.670       10.514      -16.477       38.919       26.531       17.619     1514.702      703.881      310.439        0.632        0.126       99.229       14.554        0.022      343.792       20.153      861.283
07/15/2013  03:48:00      -83.201        9.166       -8.963       25.237       28.926       13.775      636.913      836.693      189.751        0.437        0.083       83.705       12.477        0.022      343.735       20.056      861.271
07/15/2013  03:49:00      -92.276       16.179       -4.086       19.027       13.926        8.887      362.042      193.940       78.975        0.471        0.032       93.683        9.730        0.011      343.709       20.013      861.276
07/15/2013  03:50:00      -81.845      -31.213       -4.951       24.482       23.110       12.831      599.358      534.092      164.623        0.450        0.065       87.595       13.602        0.024      343.757       20.093      861.279
07/15/2013  03:51:00      -86.828      -36.876      -10.403       25.720       18.641       11.615      661.522      347.491      134.898        0.508        0.057       94.334       14.444        0.023      343.749       20.078      861.281
07/15/2013  03:52:00      -97.315      -56.991       -0.199       37.321       21.308       20.324     1392.890      454.041      413.075        0.749        0.113      112.775       16.785        0.022      343.675       19.954      861.296
07/15/2013  03:53:00     -122.251      -54.697       -3.657       44.558       30.438       20.278     1985.422      926.497      411.194        1.064        0.166      133.929       19.085        0.020      343.753       20.086      861.308
07/15/2013  03:54:00     -112.301      -48.239        0.422       46.012       22.447       23.032     2117.129      503.876      530.455        0.904        0.158      122.223       15.764        0.017      343.776       20.126      861.316
07/15/2013  03:55:00      -90.037      -55.755       -1.266       35.301       31.709       21.426     1246.140     1005.453      459.072        0.696        0.136      105.902       21.787        0.042      343.837       20.229      861.321
07/15/2013  03:56:00      -54.171      -55.432       10.720       68.121       47.902       35.678     4640.457     2294.555     1272.952        0.716        0.410       77.507       41.355        0.285      343.785       20.141      861.326
07/15/2013  03:57:00      -93.279      -64.167       -0.124       39.524       37.992       23.691     1562.158     1443.409      561.245        0.819        0.178      113.219       18.918        0.028      343.675       19.953      861.326
07/15/2013  03:58:00      -85.022      -48.631        0.710       58.457       25.402       24.782     3417.278      645.267      614.168        0.713        0.234       97.947       31.278        0.102      343.649       19.908      861.331
07/15/2013  03:59:00     -118.329      -75.998       -0.381       57.379       54.712       26.519     3292.350     2993.443      703.241        1.338        0.349      140.632       20.777        0.022      343.720       20.029      861.322
07/15/2013  04:00:00     -123.445      -26.108       -1.466       62.385       35.362       31.738     3891.836     1250.443     1007.284        1.103        0.307      126.175       21.716        0.030      343.673       19.952      861.328
07/15/2013  04:01:00     -136.748      -44.629        0.917       39.854       38.366       18.478     1588.330     1471.929      341.434        1.205        0.170      143.846       19.480        0.018      343.581       19.795      861.322
07/15/2013  04:02:00     -139.979      -69.885      -16.988       29.417       33.164       18.172      865.342     1099.841      330.209        1.353        0.115      156.455        9.011        0.003      343.692       19.983      861.312
07/15/2013  04:03:00     -142.048      -32.003       -8.241       51.924       37.141       23.615     2696.148     1379.468      557.683        1.295        0.232      145.609       25.153        0.030      343.666       19.937      861.306
07/15/2013  04:04:00     -132.081      -16.898      -11.511       45.814       24.615       18.316     2098.948      605.878      335.491        1.045        0.152      133.158       18.860        0.020      343.589       19.806      861.305
07/15/2013  04:05:00      -85.009      -26.673        2.684       53.778       30.562       23.721     2892.065      934.015      562.705        0.617        0.219       89.095       27.014        0.092      343.482       19.624      861.316
07/15/2013  04:06:00     -136.301      -50.036       -4.075       35.136       37.934       22.458     1234.530     1438.956      504.343        1.214        0.159      145.195       16.494        0.013      343.476       19.615      861.315
07/15/2013  04:07:00     -125.859      -34.196       -2.127       52.086       46.858       30.046     2712.990     2195.709      902.767        1.141        0.291      130.422       29.839        0.052      343.528       19.704      861.306
07/15/2013  04:08:00      -86.911      -40.607        3.876       47.187       42.215       21.700     2226.591     1782.075      470.901        0.685        0.224       95.930       19.762        0.042      343.532       19.709      861.290
07/15/2013  04:09:00     -119.135      -21.991       -1.505       46.192       46.177       23.020     2133.691     2132.340      529.933        0.974        0.240      121.148       25.281        0.044      343.511       19.674      861.290
07/15/2013  04:10:00     -126.492      -11.920       -6.908       44.676       35.836       19.735     1995.983     1284.193      389.475        0.993        0.183      127.053       17.391        0.019      343.450       19.570      861.276
07/15/2013  04:11:00     -101.598      -26.868        1.940       37.882       43.483       24.837     1435.014     1890.778      616.866        0.749        0.197      105.091       14.749        0.020      343.438       19.550      861.257
07/15/2013  04:12:00     -113.653      -55.678      -12.713       24.043       21.207       13.150      578.079      449.736      172.933        0.869        0.060      126.558       11.461        0.008      343.549       19.741      861.251
07/15/2013  04:13:00     -111.116       -0.520      -10.979       26.749       27.762       16.345      715.499      770.733      267.160        0.711        0.088      111.117       14.187        0.016      343.536       19.717      861.255
07/15/2013  04:14:00     -149.997       27.402      -12.244       29.110       21.793       14.686      847.414      474.928      215.684        1.247        0.077      152.480        8.304        0.003      343.518       19.686      861.252
07/15/2013  04:15:00     -102.334       13.493       -3.085       47.807       30.603       15.823     2285.540      936.551      250.383        0.707        0.174      103.220       13.744        0.018      343.438       19.550      861.246
07/15/2013  04:16:00     -177.634       43.806      -18.175       44.793       32.822       17.744     2006.436     1077.258      314.838        1.860        0.170      182.956       10.034        0.003      343.551       19.742      861.244
07/15/2013  04:17:00     -132.347       -0.393      -16.508       43.611       29.306       18.610     1901.956      858.848      346.330        1.045        0.155      132.348       18.073        0.019      343.501       19.659      861.246
07/15/2013  04:18:00     -156.175      -36.907      -18.011       28.037       31.972       19.395      786.067     1022.185      376.167        1.413        0.109      160.476       13.486        0.007      343.443       19.557      861.248
07/15/2013  04:19:00     -152.436      -26.050      -18.506       21.994       21.542       15.769      483.757      464.056      248.660        1.273        0.060      154.646        8.093        0.003      343.377       19.445      861.247
07/15/2013  04:20:00     -136.999       -4.864      -14.011       26.450       20.361       13.221      699.576      414.569      174.785        1.014        0.064      137.085        5.059        0.001      343.385       19.459      861.246
07/15/2013  04:21:00     -129.799      -19.741      -18.051       24.184       29.818       15.906      584.875      889.091      253.002        0.964        0.086      131.291       12.555        0.009      343.382       19.454      861.249
07/15/2013  04:22:00     -102.947      -32.400      -10.226       35.119       32.254       19.062     1233.367     1040.341      363.372        0.719        0.132      107.925       19.052        0.031      343.376       19.445      861.252
07/15/2013  04:23:00      -69.482        7.379       -4.839       31.945       32.788       19.062     1020.478     1075.057      363.372        0.368        0.123       69.872       19.463        0.078      343.287       19.292      861.251
07/15/2013  04:24:00     -112.893      135.999      -24.486       37.365       43.453       25.837     1396.177     1888.176      667.531        1.790        0.198      176.750       25.353        0.021      343.830       20.217      861.241
07/15/2013  04:25:00      -98.580       29.127      -17.889       37.544       57.670       20.402     1409.534     3325.801      416.259        0.802        0.258      102.793       14.349        0.019      343.591       19.808      861.233
07/15/2013  04:26:00     -124.148      -47.145       -8.657       30.155       33.718       19.303      909.311     1136.925      372.603        1.006        0.121      132.798       10.622        0.006      343.381       19.452      861.243
07/15/2013  04:27:00     -135.512      -66.311       -7.796       39.810       26.212       24.110     1584.809      687.094      581.314        1.284        0.143      150.866       18.780        0.015      343.300       19.314      861.245
07/15/2013  04:28:00     -162.833      -19.228      -11.867       37.506       28.773       24.246     1406.678      827.907      587.882        1.492        0.141      163.964       22.927        0.020      343.300       19.316      861.238
07/15/2013  04:29:00     -135.929        0.123      -13.544       32.804       37.473       19.357     1076.102     1404.216      374.676        1.076        0.143      135.929       14.205        0.011      343.282       19.285      861.233
07/15/2013  04:30:00     -115.665      -17.107       -4.126       38.503       38.603       24.086     1482.447     1490.204      580.113        0.862        0.178      116.923       23.812        0.041      343.286       19.289      861.242
07/15/2013  04:31:00      -67.847      -61.059        6.029       40.191       32.517       19.756     1615.349     1057.375      390.296        0.571        0.153       91.277       20.525        0.051      343.246       19.223      861.244
07/15/2013  04:32:00     -107.759      -43.790       -7.218       36.166       35.547       18.389     1307.990     1263.558      338.168        0.825        0.145      116.316       15.390        0.018      343.155       19.066      861.233
07/15/2013  04:33:00     -104.392      -23.312       -7.835       37.329       38.579       18.882     1393.446     1488.376      356.542        0.737        0.162      106.963       13.589        0.016      343.101       18.976      861.233
07/15/2013  04:34:00     -115.208      -32.311       -3.021       36.860       32.371       20.917     1358.679     1047.879      437.524        0.858        0.142      119.653       20.139        0.028      343.053       18.894      861.229
07/15/2013  04:35:00     -123.496      -49.345        2.977       62.431       42.997       28.317     3897.634     1848.769      801.858        1.212        0.327      132.990       32.566        0.060      342.992       18.790      861.234
07/15/2013  04:36:00     -120.334        0.115       -4.824       55.558       28.784       25.876     3086.707      828.492      669.588        0.954        0.229      120.334       27.580        0.053      343.024       18.845      861.221
07/15/2013  04:37:00     -156.952      -20.999      -17.723       70.349       56.249       28.937     4948.917     3163.984      837.358        1.717        0.448      158.351       27.688        0.031      343.041       18.871      861.213
07/15/2013  04:38:00     -180.592      -33.586      -13.199       78.598       57.584       30.786     6177.695     3315.886      947.805        2.218        0.522      183.689       29.102        0.025      343.051       18.887      861.208
07/15/2013  04:39:00     -186.908       -6.345      -22.903       79.557       37.165       31.773     6329.363     1381.251     1009.493        2.211        0.436      187.016       39.887        0.045      343.004       18.808      861.211
07/15/2013  04:40:00     -220.225      -50.212      -14.060       44.730       50.875       28.957     2000.729     2588.245      838.512        2.832        0.271      225.877       23.213        0.011      343.006       18.811      861.198
07/15/2013  04:41:00     -171.140      -16.684      -12.745       61.935       44.576       36.100     3835.942     1987.059     1303.228        1.843        0.356      171.952       36.862        0.046      342.964       18.741      861.193
07/15/2013  04:42:00     -186.024      -81.920      -18.585       44.028       46.995       25.908     1938.456     2208.507      671.210        2.324        0.241      203.263       21.630        0.011      342.985       18.777      861.194
07/15/2013  04:43:00     -158.200      -58.753      -15.198       43.279       39.308       26.759     1873.099     1545.097      716.067        1.642        0.207      168.757       13.587        0.006      343.004       18.811      861.198
07/15/2013  04:44:00     -152.377      -19.451      -15.378       43.071       25.727       18.504     1855.089      661.885      342.393        1.335        0.143      153.614       16.316        0.011      342.970       18.753      861.195
07/15/2013  04:45:00     -139.327      -44.576       -6.179       38.372       30.935       20.453     1472.431      956.972      418.320        1.214        0.142      146.284       20.711        0.020      342.976       18.764      861.192
07/15/2013  04:46:00     -144.600      -64.706       -3.780       42.528       30.048       21.552     1808.618      902.861      464.488        1.414        0.159      158.417       21.829        0.019      343.006       18.814      861.188
07/15/2013  04:47:00     -181.321      -70.705       -6.044       44.039       37.572       22.404     1939.432     1411.653      501.925        2.088        0.193      194.619       15.472        0.006      342.996       18.795      861.168
07/15/2013  04:48:00      -92.084      -81.107        4.165       52.285       61.875       37.719     2733.672     3828.476     1422.695        1.153        0.399      122.711       26.267        0.046      343.032       18.857      861.153
07/15/2013  04:49:00     -118.971      -54.792       -4.356       57.406       58.863       33.750     3295.446     3464.861     1139.095        1.254        0.395      130.982       28.725        0.048      343.020       18.837      861.142
07/15/2013  04:50:00     -191.781      -39.879      -21.752       34.894       30.027       23.978     1217.617      901.632      574.962        2.077        0.135      195.884       15.753        0.006      342.969       18.750      861.118
07/15/2013  04:51:00     -131.184      -55.712       -6.336       38.852       43.908       24.474     1509.495     1927.916      598.967        1.219        0.202      142.523       23.018        0.026      343.036       18.865      861.108
07/15/2013  04:52:00      -88.524      -55.288        2.271       58.412       38.967       27.204     3411.993     1518.445      740.050        0.828        0.284      104.371       29.328        0.079      343.079       18.938      861.100
07/15/2013  04:53:00     -132.323      -36.753       -3.945       41.998       47.640       22.961     1763.796     2269.555      527.212        1.172        0.228      137.332       20.687        0.023      343.127       19.020      861.084
07/15/2013  04:54:00     -128.994      -56.623        3.371       47.378       45.861       31.439     2244.705     2103.206      988.415        1.260        0.267      140.874       33.409        0.056      343.135       19.034      861.069
07/15/2013  04:55:00     -135.524      -39.165       -1.288       49.377       36.228       32.669     2438.077     1312.447     1067.291        1.236        0.241      141.070       32.510        0.053      343.073       18.927      861.068
07/15/2013  04:56:00     -154.712      -41.951      -15.923       35.028       37.505       21.638     1226.994     1406.610      468.185        1.452        0.155      160.299        9.314        0.003      343.088       18.952      861.065
07/15/2013  04:57:00     -133.626      -73.538       -3.645       49.221       40.899       25.912     2422.669     1672.720      671.429        1.402        0.238      152.524       23.599        0.024      343.126       19.017      861.061
07/15/2013  04:58:00     -114.235      -57.776        3.618       57.918       34.305       27.259     3354.547     1176.854      743.075        1.084        0.264      128.014       26.907        0.044      343.117       19.003      861.057
07/15/2013  04:59:00     -156.202      -95.052      -11.438       39.107       41.187       19.925     1529.379     1696.387      397.024        1.859        0.181      182.849       10.796        0.003      343.170       19.090      861.045
07/15/2013  05:00:00     -154.066      -73.842       -9.380       33.551       30.828       25.737     1125.691      950.355      662.381        1.601        0.137      170.847       15.088        0.008      343.181       19.112      861.029
07/15/2013  05:01:00     -109.680      -33.985       -0.363       44.563       32.427       20.944     1985.845     1051.519      438.649        0.833        0.174      114.825       21.283        0.034      343.151       19.060      861.026
07/15/2013  05:02:00      -85.205      -31.901        1.074       39.486       33.159       20.952     1559.126     1099.546      438.992        0.569        0.155       90.981       19.370        0.045      343.054       18.896      861.017
07/15/2013  05:03:00      -69.394      -25.238        1.428       43.593       29.561       21.391     1900.327      873.836      457.578        0.434        0.162       73.841       20.501        0.077      343.043       18.878      861.010
07/15/2013  05:04:00      -71.229      -25.043        2.174       41.791       28.303       24.511     1746.482      801.057      600.804        0.443        0.157       75.503       25.760        0.116      343.037       18.866      861.015
07/15/2013  05:05:00     -104.670       -6.339        0.828       43.871       24.780       20.590     1924.685      614.055      423.968        0.698        0.148      104.862       22.421        0.046      342.960       18.737      861.011
07/15/2013  05:06:00      -63.509      -12.157        1.236       30.027       32.855       19.531      901.631     1079.420      381.458        0.327        0.118       64.662       13.814        0.046      342.918       18.664      861.012
07/15/2013  05:07:00      -66.041        1.631        6.467       36.384       28.611       22.693     1323.770      818.593      514.973        0.353        0.133       66.061       21.003        0.101      342.885       18.608      861.016
07/15/2013  05:08:00      -45.565      -12.201        4.966       35.991       19.079       16.809     1295.364      364.024      282.540        0.210        0.097       47.170       14.744        0.098      342.811       18.483      861.027
07/15/2013  05:09:00      -73.141       13.101       -1.141       24.810       24.669       15.178      615.514      608.564      230.363        0.349        0.073       74.305        6.561        0.008      342.876       18.594      861.029
07/15/2013  05:10:00      -80.020       22.525       -4.223       19.477       14.676       10.870      379.352      215.386      118.165        0.382        0.036       83.130        5.818        0.005      342.952       18.721      861.030
07/15/2013  05:11:00      -96.285       17.873       -8.773       24.600       14.742       12.027      605.176      217.324      144.641        0.532        0.048       97.929       11.484        0.014      342.950       18.719      861.032
07/15/2013  05:12:00     -111.449      -25.534      -20.098       18.373       24.945       11.941      337.552      622.247      142.580        0.729        0.055      114.337       11.154        0.010      342.959       18.733      861.024
07/15/2013  05:13:00     -109.528      -45.047       -4.397       25.987       28.879       14.603      675.308      833.978      213.236        0.788        0.086      118.430       13.071        0.012      342.998       18.801      861.024
07/15/2013  05:14:00     -104.454      -61.416       -6.938       36.680       19.440       15.938     1345.418      377.913      254.023        0.835        0.099      121.171       11.781        0.009      343.016       18.831      861.032
07/15/2013  05:15:00      -73.423      -61.638        1.354       57.589       34.215       17.685     3316.512     1170.640      312.754        0.700        0.240       95.866       26.996        0.079      342.999       18.803      861.055
07/15/2013  05:16:00      -25.828      -40.916       17.089       51.634       27.698       23.890     2666.031      767.161      570.715        0.332        0.200       48.386       30.734        0.403      342.946       18.712      861.080
07/15/2013  05:17:00      -68.562      -57.880        7.211       59.066       37.793       29.479     3488.812     1428.283      869.001        0.694        0.289       89.727       35.606        0.157      342.889       18.614      861.097
07/15/2013  05:18:00      -89.542      -82.632        6.307       61.438       44.458       34.379     3774.663     1976.538     1181.914        1.091        0.347      121.844       36.881        0.092      342.871       18.584      861.090
07/15/2013  05:19:00      -98.524      -73.293       -1.194       45.364       40.506       23.621     2057.900     1640.708      557.965        0.967        0.213      122.796       21.925        0.032      342.892       18.619      861.086
07/15/2013  05:20:00      -96.321      -67.318        0.075       40.335       28.821       20.262     1626.936      830.661      410.549        0.834        0.143      117.513       18.997        0.026      342.878       18.596      861.057
07/15/2013  05:21:00     -129.688      -46.536        3.063       40.816       35.682       22.072     1665.949     1273.205      487.155        1.121        0.171      137.785       22.407        0.026      342.884       18.606      861.027
07/15/2013  05:22:00      -82.764      -12.267       -4.045       27.937       31.760       18.433      780.453     1008.692      339.791        0.457        0.106       83.668       16.632        0.040      342.772       18.416      860.997
07/15/2013  05:23:00      -92.697        4.938       -0.811       50.848       30.858       22.722     2585.553      952.194      516.283        0.634        0.203       92.829       24.100        0.067      342.741       18.363      860.980
07/15/2013  05:24:00     -121.128        6.237       -7.528       37.458       40.190       22.255     1403.106     1615.232      495.270        0.914        0.176      121.288       17.326        0.020      342.743       18.366      860.979
07/15/2013  05:25:00      -46.418        5.149       -0.497       31.656       35.143       18.320     1002.119     1235.026      335.634        0.238        0.129       46.702       15.600        0.112      342.738       18.357      860.973
07/15/2013  05:26:00      -73.830        8.925       -8.456       33.459       20.564       16.459     1119.483      422.883      270.891        0.371        0.091       74.368       16.721        0.051      342.783       18.435      860.984
07/15/2013  05:27:00     -116.925      -35.744       -5.957       39.145       36.066       21.717     1532.325     1300.742      471.637        0.914        0.165      122.267       16.876        0.019      342.696       18.287      861.000
07/15/2013  05:28:00      -83.304      -48.176        3.372       53.500       35.086       25.070     2862.245     1231.045      628.493        0.700        0.236       96.232       24.705        0.066      342.575       18.082      861.004
07/15/2013  05:29:00      -60.066      -42.818        9.010       41.169       39.054       20.840     1694.927     1525.177      434.304        0.459        0.183       73.765       17.697        0.058      342.514       17.977      861.015
07/15/2013  05:30:00      -84.080      -48.418       -0.730       27.855       22.322       15.253      775.900      498.267      232.649        0.546        0.075       97.024       11.549        0.014      342.482       17.925      861.021
07/15/2013  05:31:00      -96.124      -21.417        1.808       31.924       32.476       17.968     1019.118     1054.684      322.843        0.605        0.120       98.481       16.711        0.029      342.444       17.859      861.004
07/15/2013  05:32:00     -118.432      -17.616       -8.518       41.708       29.403       19.709     1739.548      864.512      388.450        0.870        0.150      119.735       21.962        0.034      342.411       17.801      860.994
07/15/2013  05:33:00     -123.211        0.963       -6.606       44.182       28.942       17.456     1952.033      837.626      304.713        0.916        0.155      123.215       16.443        0.018      342.373       17.736      860.969
07/15/2013  05:34:00     -102.954        8.066       -8.888       30.855       25.659       15.598      952.001      658.362      243.283        0.630        0.093      103.269        5.185        0.003      342.304       17.620      860.960
07/15/2013  05:35:00      -63.579      -21.585        7.871       41.761       31.164       19.391     1743.943      971.208      376.018        0.383        0.155       67.144       16.461        0.060      342.332       17.667      860.951
07/15/2013  05:36:00      -98.561      -35.110        0.569       61.890       29.325       23.217     3830.359      859.947      539.023        0.809        0.261      104.628       28.974        0.077      342.440       17.850      860.944
07/15/2013  05:37:00     -115.068      -49.567       -4.191       33.861       27.307       19.527     1146.570      745.682      381.305        0.899        0.114      125.290       20.809        0.028      342.528       18.000      860.944
07/15/2013  05:38:00      -56.034      -55.067        0.862       48.148       28.177       19.774     2318.274      793.920      391.025        0.484        0.175       78.563       23.171        0.087      342.543       18.025      860.952
07/15/2013  05:39:00     -107.440      -70.818       -8.754       27.171       23.474       21.610      738.284      551.009      467.002        0.920        0.088      128.680        8.708        0.005      342.550       18.038      860.967
07/15/2013  05:40:00      -91.121      -59.391       -9.053       21.794       25.464       14.631      474.985      648.433      214.066        0.662        0.067      108.767        7.671        0.005      342.555       18.047      860.978
07/15/2013  05:41:00     -108.694      -49.986       -9.416       20.894       15.196       15.121      436.554      230.908      228.656        0.765        0.045      119.637        9.457        0.006      342.546       18.029      860.987
07/15/2013  05:42:00     -129.290      -45.465      -15.749       16.099       24.063       13.124      259.171      579.013      172.227        1.002        0.051      137.051        6.225        0.002      342.577       18.086      860.997
07/15/2013  05:43:00     -107.992      -51.071      -10.467       24.946       21.920       13.505      622.318      480.474      182.396        0.783        0.064      119.459       10.126        0.007      342.611       18.143      861.003
07/15/2013  05:44:00      -91.707      -42.989       -5.506       20.522       21.487       15.263      421.168      461.673      232.944        0.570        0.056      101.283       12.426        0.015      342.610       18.140      861.012
07/15/2013  05:45:00      -64.228      -44.971       -3.474       25.669       21.651       15.765      658.893      468.779      248.549        0.377        0.069       78.407       10.736        0.019      342.636       18.184      861.028
07/15/2013  05:46:00      -28.962      -36.663        5.619       30.858       23.436       16.688      952.222      549.253      278.484        0.200        0.089       46.722       14.972        0.103      342.645       18.197      861.034
07/15/2013  05:47:00      -52.880      -77.378       -3.526       29.647       28.689       20.220      878.961      823.077      408.855        0.545        0.106       93.721       15.849        0.029      342.611       18.142      861.038
07/15/2013  05:48:00      -39.952      -63.963        0.399       32.179       23.443       20.991     1035.474      549.567      440.603        0.386        0.101       75.415       20.377        0.073      342.573       18.077      861.043
07/15/2013  05:49:00      -41.830      -44.529        5.112       30.085       23.109       19.207      905.109      534.008      368.912        0.278        0.090       61.095       17.287        0.080      342.567       18.067      861.043
07/15/2013  05:50:00      -34.901      -48.962        6.955       35.627       26.914       21.429     1269.272      724.345      459.193        0.306        0.123       60.128       19.542        0.106      342.595       18.114      861.046
07/15/2013  05:51:00      -80.489      -85.491       -1.812       43.821       37.668       24.359     1920.244     1418.912      593.385        0.886        0.197      117.419       18.177        0.024      342.510       17.970      861.049
07/15/2013  05:52:00      -91.417      -67.460        2.285       51.552       37.597       32.712     2657.656     1413.572     1070.107        0.903        0.257      113.613       30.125        0.070      342.553       18.042      861.045
07/15/2013  05:53:00     -112.047     -100.504       -1.645       45.459       47.783       29.727     2066.503     2283.186      883.669        1.394        0.262      150.518       22.080        0.022      342.546       18.032      861.055
07/15/2013  05:54:00      -99.363     -106.274       -4.493       47.432       38.796       26.329     2249.770     1505.165      693.205        1.282        0.222      145.490       23.003        0.025      342.561       18.056      861.065
07/15/2013  05:55:00     -109.568      -73.724       -7.608       24.437       30.575       24.826      597.181      934.849      616.314        0.982        0.107      132.062       14.934        0.013      342.543       18.028      861.080
07/15/2013  05:56:00     -112.106      -76.230       -9.656       28.875       40.847       23.119      833.743     1668.490      534.493        1.075        0.152      135.568       15.609        0.013      342.566       18.067      861.094
07/15/2013  05:57:00     -109.520      -88.436       -4.655       39.471       37.749       27.781     1557.992     1424.965      771.810        1.180        0.188      140.768       22.929        0.027      342.557       18.051      861.096
07/15/2013  05:58:00      -68.773      -81.463       -2.111       48.440       34.209       26.372     2346.386     1170.256      695.457        0.779        0.211      106.611       29.749        0.078      342.537       18.017      861.099
07/15/2013  05:59:00      -87.848      -67.000        1.794       37.955       31.771       21.478     1440.612     1009.391      461.312        0.756        0.146      110.482       24.281        0.048      342.568       18.068      861.099
07/15/2013  06:00:00      -69.471      -57.134        7.227       25.847       29.988       14.569      668.077      899.301      212.250        0.496        0.089       89.947        9.429        0.011      342.610       18.139      861.098
07/15/2013  06:01:00      -64.315      -46.932       -3.258       35.858       28.858       16.873     1285.777      832.769      284.696        0.438        0.120       79.618       16.764        0.044      342.633       18.179      861.113
07/15/2013  06:02:00      -70.064      -45.617       -0.071       31.859       19.174       18.407     1015.009      367.626      338.814        0.436        0.086       83.605       13.063        0.024      342.550       18.039      861.131
07/15/2013  06:03:00      -68.253      -42.910       -6.921       23.702       14.832       12.487      561.788      219.993      155.922        0.374        0.047       80.621        7.937        0.010      342.483       17.924      861.139
07/15/2013  06:04:00      -44.750      -40.503        5.108       33.659       26.368       14.808     1132.945      695.284      219.280        0.286        0.102       60.358       16.827        0.078      342.568       18.068      861.138
07/15/2013  06:05:00      -54.994      -41.527        5.505       43.084       25.981       16.996     1856.250      675.011      288.856        0.380        0.141       68.912       17.866        0.067      342.620       18.155      861.133
07/15/2013  06:06:00      -34.346      -34.829        6.972       38.073       25.700       18.070     1449.549      660.489      326.537        0.244        0.122       48.915       23.333        0.228      342.622       18.162      861.129
07/15/2013  06:07:00      -28.153      -28.144       16.184       42.783       24.943       17.553     1830.424      622.167      308.114        0.230        0.138       39.808       20.522        0.266      342.624       18.163      861.135
07/15/2013  06:08:00       -9.265      -34.137       16.272       30.026       22.369       22.394      901.564      500.374      501.501        0.171        0.095       35.372       17.525        0.245      342.637       18.186      861.144
07/15/2013  06:09:00      -46.831      -68.076        6.979       59.140       33.690       24.646     3497.563     1135.022      607.438        0.606        0.262       82.629       31.618        0.146      342.588       18.103      861.158
07/15/2013  06:10:00      -94.837      -89.784       -4.336       26.147       25.399       19.567      683.654      645.090      382.878        0.939        0.086      130.595        8.846        0.005      342.544       18.029      861.167
07/15/2013  06:11:00     -116.302     -119.521      -13.627       49.200       40.857       31.281     2420.635     1669.294      978.520        1.653        0.253      166.768       29.191        0.031      342.483       17.924      861.167
07/15/2013  06:12:00     -114.120      -88.955       -0.848       41.549       44.094       24.455     1726.353     1944.324      598.035        1.260        0.213      144.695       16.486        0.013      342.435       17.843      861.173
07/15/2013  06:13:00     -118.442     -118.648       -9.071       39.061       31.210       23.656     1525.793      974.046      559.585        1.562        0.153      167.648       17.169        0.010      342.444       17.857      861.167
07/15/2013  06:14:00     -110.045     -101.184       -4.647       35.877       29.217       26.126     1287.165      853.641      682.576        1.260        0.141      149.493       21.398        0.020      342.456       17.877      861.166
07/15/2013  06:15:00      -95.626      -91.205        2.120       53.353       30.425       29.503     2846.550      925.701      870.445        1.105        0.232      132.147       30.111        0.052      342.447       17.863      861.171
07/15/2013  06:16:00     -120.835      -93.017       -8.047       40.551       22.562       22.035     1644.353      509.034      485.558        1.298        0.132      152.490       17.125        0.013      342.387       17.761      861.178
07/15/2013  06:17:00     -139.802     -121.675       -4.346       42.354       34.043       33.640     1793.882     1158.909     1131.622        1.923        0.204      185.336       31.539        0.029      342.343       17.686      861.183
07/15/2013  06:18:00     -114.503      -91.504       -0.626       47.846       40.435       30.461     2289.288     1635.029      927.846        1.317        0.243      146.574       27.906        0.036      342.380       17.750      861.188
07/15/2013  06:19:00      -86.663      -95.940        6.703       45.303       33.031       31.314     2052.324     1091.046      980.585        1.044        0.206      129.286       28.689        0.049      342.388       17.765      861.191
07/15/2013  06:20:00     -122.675     -129.244       -4.494       39.192       45.861       27.131     1536.020     2103.225      736.114        1.807        0.219      178.194       21.794        0.015      342.381       17.749      861.201
07/15/2013  06:21:00     -147.702     -120.323       -2.185       36.954       32.667       27.645     1365.628     1067.116      764.267        1.975        0.160      190.508       23.177        0.015      342.313       17.635      861.208
07/15/2013  06:22:00     -131.417      -85.033       -1.973       50.809       38.828       29.381     2581.587     1507.652      863.256        1.473        0.248      156.528       28.806        0.034      342.298       17.610      861.201
07/15/2013  06:23:00     -132.078      -98.584       -3.303       39.892       37.834       25.876     1591.403     1431.422      669.573        1.543        0.185      164.813       25.061        0.023      342.279       17.578      861.203
07/15/2013  06:24:00     -104.817      -94.410        5.179       60.347       55.351       35.430     3641.728     3063.782     1255.320        1.394        0.398      141.067       28.299        0.040      342.285       17.587      861.189
07/15/2013  06:25:00     -162.540     -113.742       -6.409       61.980       38.269       34.177     3841.571     1464.531     1168.079        2.293        0.324      198.385       32.742        0.027      342.322       17.648      861.179
07/15/2013  06:26:00     -162.147     -120.154       -8.733       39.523       39.735       25.666     1562.105     1578.895      658.737        2.230        0.190      201.814       22.790        0.013      342.356       17.704      861.179
07/15/2013  06:27:00     -110.756      -93.062       12.205       52.600       54.118       30.246     2766.781     2928.748      914.847        1.384        0.331      144.664       29.205        0.041      342.315       17.638      861.187
07/15/2013  06:28:00     -129.703     -138.162       -8.957       40.273       32.599       24.950     1621.926     1062.695      622.507        1.965        0.165      189.503       24.848        0.017      342.301       17.613      861.175
07/15/2013  06:29:00     -122.332     -116.758       -6.046       52.461       48.329       29.453     2752.157     2335.716      867.480        1.729        0.298      169.108       31.518        0.035      342.304       17.619      861.176
07/15/2013  06:30:00     -112.402     -102.278       -3.372       45.890       39.257       30.008     2105.910     1541.126      900.489        1.383        0.227      151.971       30.784        0.041      342.319       17.645      861.185
07/15/2013  06:31:00      -89.409      -98.422       -3.495       49.182       42.841       33.350     2418.900     1835.389     1112.222        1.153        0.268      132.970       32.248        0.059      342.324       17.653      861.189
07/15/2013  06:32:00     -135.903      -60.990       -5.807       36.541       21.952       17.824     1335.236      481.885      317.685        1.218        0.107      148.962       13.809        0.009      342.391       17.766      861.194
07/15/2013  06:33:00      -73.145      -57.830        3.330       68.284       40.788       27.215     4662.715     1663.696      740.671        0.788        0.353       93.245       30.359        0.106      342.490       17.936      861.205
07/15/2013  06:34:00      -68.424      -61.611        7.393       63.200       32.845       26.876     3994.294     1078.823      722.297        0.716        0.290       92.075       28.861        0.098      342.487       17.931      861.205
07/15/2013  06:35:00      -87.395      -79.740        4.255       63.322       47.730       31.520     4009.630     2278.177      993.507        1.065        0.364      118.307       29.567        0.062      342.471       17.904      861.196
07/15/2013  06:36:00     -124.152     -110.538       -0.509       56.678       39.172       27.337     3212.399     1534.416      747.325        1.656        0.275      166.230       29.502        0.031      342.360       17.714      861.207
07/15/2013  06:37:00     -136.855     -117.542       -4.223       51.038       38.317       27.632     2604.905     1468.192      763.501        1.870        0.242      180.404       26.080        0.021      342.320       17.647      861.222
07/15/2013  06:38:00     -145.026     -137.469      -12.296       48.902       41.624       27.300     2391.412     1732.558      745.298        2.247        0.243      199.825       27.039        0.018      342.343       17.683      861.227
07/15/2013  06:39:00     -102.205     -102.284        6.190       57.872       58.835       43.360     3349.127     3461.602     1880.124        1.482        0.435      144.595       39.261        0.074      342.326       17.655      861.219
07/15/2013  06:40:00     -137.372     -126.053       -8.114       48.563       42.851       32.920     2358.341     1836.242     1083.694        2.005        0.264      186.441       30.152        0.026      342.348       17.693      861.229
07/15/2013  06:41:00     -112.905     -117.722       -7.102       31.763       31.676       23.814     1008.889     1003.399      567.115        1.462        0.129      163.113       18.811        0.013      342.385       17.756      861.237
07/15/2013  06:42:00     -129.172     -110.631       -7.760       42.643       41.069       25.507     1818.468     1686.692      650.607        1.657        0.208      170.072       24.458        0.021      342.405       17.791      861.228
07/15/2013  06:43:00     -124.054      -85.664        3.215       47.596       47.166       27.321     2265.389     2224.644      746.431        1.399        0.262      150.758       23.033        0.023      342.392       17.769      861.224
07/15/2013  06:44:00     -150.220     -117.645      -12.388       35.357       37.560       23.946     1250.120     1410.762      573.396        1.990        0.162      190.805       23.513        0.015      342.433       17.837      861.225
07/15/2013  06:45:00     -119.300      -98.189       -6.387       46.469       57.874       25.982     2159.405     3349.394      675.047        1.505        0.309      154.511       26.468        0.029      342.473       17.906      861.220
07/15/2013  06:46:00     -129.806      -97.355      -10.768       35.032       36.181       24.778     1227.255     1309.032      613.953        1.480        0.158      162.258       16.643        0.011      342.519       17.985      861.214
07/15/2013  06:47:00      -89.802      -84.170       -6.402       61.058       40.289       28.562     3728.063     1623.170      815.763        1.068        0.308      123.081       22.431        0.033      342.503       17.959      861.221
07/15/2013  06:48:00     -112.935      -95.975       -8.140       37.505       27.038       22.004     1406.603      731.046      484.165        1.233        0.131      148.208       19.991        0.018      342.472       17.905      861.230
07/15/2013  06:49:00     -113.040      -92.353      -10.208       42.339       39.315       20.587     1792.617     1545.677      423.812        1.259        0.188      145.970       15.289        0.011      342.493       17.941      861.232
07/15/2013  06:50:00     -120.989      -86.939       -8.153       40.551       34.699       25.140     1644.348     1204.034      632.021        1.287        0.174      148.985       20.118        0.018      342.531       18.005      861.242
07/15/2013  06:51:00      -82.926      -89.974      -10.635       24.564       21.866       19.614      603.404      478.109      384.714        0.828        0.073      122.360       13.444        0.012      342.583       18.096      861.256
07/15/2013  06:52:00     -102.958      -92.685      -13.907       21.452       19.199       13.461      460.174      368.590      181.199        1.020        0.050      138.531        8.113        0.003      342.647       18.201      861.254
07/15/2013  06:53:00     -101.365      -55.894       -7.082       26.744       27.679       12.938      715.218      766.142      167.396        0.755        0.082      115.754        9.909        0.007      342.677       18.255      861.257
07/15/2013  06:54:00      -53.343      -66.900        5.165       35.192       21.392       21.599     1238.468      457.622      466.506        0.475        0.108       85.563       21.134        0.061      342.730       18.343      861.261
07/15/2013  06:55:00      -41.246      -67.513        8.556       49.330       36.754       28.381     2433.489     1350.890      805.470        0.546        0.229       79.115       33.294        0.177      342.800       18.462      861.258
07/15/2013  06:56:00      -70.380      -91.515       -2.666       30.552       23.848       17.810      933.401      568.742      317.180        0.758        0.091      115.448       19.444        0.028      342.690       18.275      861.251
07/15/2013  06:57:00      -78.192      -91.874       -5.482       16.636       17.830       13.988      276.740      317.903      195.659        0.769        0.040      120.643       10.016        0.007      342.731       18.347      861.256
07/15/2013  06:58:00      -97.803      -87.900       -9.047       28.706       35.518       21.272      824.049     1261.557      452.516        0.996        0.127      131.498       14.387        0.012      342.760       18.395      861.251
07/15/2013  06:59:00      -87.092      -86.229       -5.424       30.784       27.260       14.900      947.665      743.125      222.020        0.848        0.096      122.558       14.578        0.014      342.774       18.417      861.261
07/15/2013  07:00:00      -82.731      -67.200       -9.449       15.977       27.226       11.818      255.273      741.280      139.654        0.629        0.057      106.585        6.447        0.004      342.851       18.548      861.271
07/15/2013  07:01:00      -57.659      -52.662      -12.270       18.813       12.046        9.466      353.936      145.098       89.612        0.342        0.029       78.089        8.656        0.012      342.958       18.733      861.270
07/15/2013  07:02:00      -28.224      -60.334        3.097       20.580       28.423       19.308      423.525      807.883      372.794        0.302        0.080       66.609       17.952        0.073      343.064       18.912      861.283
07/15/2013  07:03:00      -69.042      -66.844       -8.840       23.578       18.142       17.136      555.933      329.128      293.631        0.525        0.059       96.099        2.303        0.001      343.019       18.837      861.274
07/15/2013  07:04:00      -69.481      -55.389        0.927       34.921       25.305       17.847     1219.504      640.337      318.527        0.504        0.109       88.857       15.941        0.032      343.062       18.909      861.266
07/15/2013  07:05:00      -56.886      -49.108        3.587       26.904       25.991       17.490      723.842      675.524      305.906        0.368        0.085       75.151       13.516        0.032      343.111       18.992      861.257
07/15/2013  07:06:00      -25.675      -41.904        8.300       38.921       18.200       18.077     1514.869      331.232      326.778        0.233        0.109       49.144       20.879        0.181      343.298       19.311      861.250
07/15/2013  07:07:00      -64.518      -73.713        4.649       45.715       33.444       23.598     2089.864     1118.502      556.851        0.669        0.188       97.960       24.118        0.061      343.232       19.199      861.248
07/15/2013  07:08:00     -103.012     -119.279       -9.114       27.928       43.178       16.879      779.971     1864.302      284.901        1.393        0.146      157.604       18.902        0.014      343.070       18.923      861.248
07/15/2013  07:09:00     -106.964     -120.350       -1.082       37.951       34.127       24.171     1440.251     1164.664      584.253        1.456        0.159      161.014       21.117        0.017      343.112       18.993      861.247
07/15/2013  07:10:00     -100.293     -122.850       -3.725       39.292       24.768       22.815     1543.870      613.436      520.510        1.392        0.134      158.590       23.470        0.022      343.141       19.043      861.244
07/15/2013  07:11:00     -126.893     -122.156       -5.021       46.493       44.539       32.455     2161.640     1983.728     1053.337        1.812        0.260      176.136       33.933        0.037      343.166       19.085      861.250
07/15/2013  07:12:00      -97.156      -92.815       -7.858       33.069       27.391       16.538     1093.546      750.259      273.516        1.012        0.106      134.365       15.504        0.013      343.209       19.160      861.252
07/15/2013  07:13:00      -87.699      -87.627       -6.622       47.647       39.562       24.168     2270.277     1565.119      584.086        0.992        0.221      123.974       17.625        0.020      343.238       19.210      861.251
07/15/2013  07:14:00     -104.113     -102.503       -4.808       27.548       33.871       19.115      758.874     1147.264      365.376        1.182        0.114      146.104       10.032        0.005      343.204       19.150      861.252
07/15/2013  07:15:00     -109.200     -107.346      -12.565       24.699       24.170       16.088      610.051      584.189      258.809        1.253        0.073      153.127       11.496        0.006      343.228       19.192      861.252
07/15/2013  07:16:00      -81.061      -72.220       -7.370       23.922       31.101       13.901      572.253      967.244      193.227        0.679        0.087      108.566       10.667        0.010      343.254       19.236      861.252
07/15/2013  07:17:00      -93.380      -83.738       -6.234       49.701       34.209       24.808     2470.235     1170.265      615.437        1.001        0.213      125.426       27.056        0.047      343.308       19.327      861.242
07/15/2013  07:18:00     -102.345      -89.417       -0.112       49.360       41.072       23.320     2436.422     1686.923      543.826        1.157        0.233      135.903       23.407        0.030      343.346       19.391      861.247
07/15/2013  07:19:00      -66.181      -70.622        0.534       29.501       34.606       24.550      870.321     1197.607      602.706        0.602        0.134       96.785       19.393        0.040      343.336       19.375      861.257
07/15/2013  07:20:00      -78.270      -82.877       -1.383       32.017       24.049       20.345     1025.107      578.354      413.907        0.751        0.101      113.994       15.662        0.019      343.373       19.439      861.251
07/15/2013  07:21:00      -55.056      -68.312        0.337       42.135       28.287       22.144     1775.394      800.178      490.374        0.538        0.153       87.736       23.998        0.075      343.486       19.631      861.256
07/15/2013  07:22:00      -58.807      -62.916        1.674       26.258       24.723       22.195      689.508      611.207      492.615        0.461        0.090       86.120       21.272        0.061      343.510       19.673      861.254
07/15/2013  07:23:00      -56.129      -83.583        1.907       32.671       27.523       19.763     1067.427      757.504      390.586        0.618        0.111      100.681       18.354        0.033      343.505       19.665      861.252
07/15/2013  07:24:00      -76.216      -80.846       -0.336       39.527       32.868       26.992     1562.422     1080.320      728.578        0.786        0.169      111.108       25.054        0.051      343.468       19.600      861.249
07/15/2013  07:25:00      -58.319      -82.231        1.011       49.284       30.780       28.350     2428.866      947.415      803.736        0.717        0.209      100.812       30.888        0.094      343.494       19.646      861.242
07/15/2013  07:26:00      -91.290     -110.377       -9.089       17.714       28.366       11.579      313.781      804.640      134.081        1.093        0.063      143.237        7.965        0.003      343.371       19.434      861.242
07/15/2013  07:27:00      -63.071      -56.468        1.104       41.131       26.415       10.765     1691.794      697.740      115.885        0.484        0.125       84.656        5.535        0.004      343.474       19.611      861.239
07/15/2013  07:28:00      -81.040      -36.577        0.217       38.205       30.357       19.200     1459.647      921.522      368.636        0.533        0.137       88.912       21.607        0.059      343.558       19.755      861.244
07/15/2013  07:29:00      -27.458      -44.452        5.410       24.430       23.345       18.378      596.805      544.973      337.734        0.212        0.074       52.248       11.836        0.051      343.558       19.754      861.243
07/15/2013  07:30:00      -23.249      -97.946        4.127       31.275       37.950       13.953      978.132     1440.187      194.683        0.638        0.131      100.668        8.433        0.007      343.490       19.637      861.249
07/15/2013  07:31:00      -48.667      -50.389        5.138       34.691       25.037       21.174     1203.435      626.869      448.323        0.361        0.114       70.054       17.021        0.059      343.552       19.742      861.255
07/15/2013  07:32:00      -54.869      -92.109       -1.349       28.943       26.901       22.715      837.726      723.649      515.983        0.679        0.104      107.213       16.118        0.023      343.526       19.699      861.271
07/15/2013  07:33:00      -61.139     -118.328       -4.888       22.776       22.320       11.346      518.732      498.202      128.731        0.945        0.057      133.190       11.302        0.007      343.509       19.671      861.279
07/15/2013  07:34:00      -75.013     -112.282       -7.177       37.694       36.763       20.512     1420.835     1351.493      420.742        1.074        0.160      135.034       22.915        0.029      343.588       19.806      861.289
07/15/2013  07:35:00      -92.176      -85.029       -4.451       42.114       40.671       21.302     1773.621     1654.099      453.769        0.981        0.194      125.405       24.435        0.038      343.671       19.946      861.299
07/15/2013  07:36:00      -75.115      -52.356        7.925       31.634       35.903       19.292     1000.707     1289.021      372.167        0.555        0.133       91.561       16.143        0.031      343.663       19.934      861.300
07/15/2013  07:37:00      -81.339      -59.988        1.327       29.016       22.694       15.331      841.908      514.998      235.038        0.590        0.080      101.068       15.453        0.023      343.699       19.993      861.306
07/15/2013  07:38:00      -55.559      -51.010        4.609       36.478       41.667       25.477     1330.633     1736.116      649.099        0.471        0.186       75.424       19.781        0.069      343.915       20.362      861.312
07/15/2013  07:39:00      -67.280      -67.141       -7.095       54.569       37.728       21.433     2977.788     1423.401      459.392        0.697        0.243       95.050       25.122        0.070      343.749       20.080      861.310
07/15/2013  07:40:00      -30.705      -60.723        8.285       43.635       27.937       22.222     1904.004      780.488      493.820        0.394        0.159       68.045       14.111        0.043      343.787       20.146      861.304
07/15/2013  07:41:00      -53.778      -76.565        2.767       36.799       40.768       24.569     1354.176     1662.030      603.617        0.619        0.181       93.564       20.003        0.046      343.692       19.982      861.287
07/15/2013  07:42:00      -87.468      -84.912       -6.562       35.933       41.866       23.163     1291.147     1752.773      536.538        0.924        0.179      121.905       22.470        0.034      343.779       20.130      861.276
07/15/2013  07:43:00      -68.218      -40.934       -6.586       41.344       21.413       21.119     1709.322      458.506      445.992        0.449        0.131       79.557       17.156        0.047      343.849       20.252      861.259
07/15/2013  07:44:00        2.758      -30.356       -1.771       14.384       18.873       13.544      206.886      356.174      183.434        0.084        0.037       30.481       11.306        0.138      344.013       20.531      861.253
07/15/2013  07:45:00      -27.460      -21.355        3.585       27.750       26.420       16.844      770.074      698.024      283.733        0.149        0.088       34.786       15.279        0.193      344.221       20.888      861.237
07/15/2013  07:46:00      -43.125      -54.676        6.262       43.878       34.120       23.169     1925.276     1164.187      536.815        0.426        0.181       69.636       23.856        0.117      344.068       20.625      861.232
07/15/2013  07:47:00      -66.413      -79.140       -3.316       30.047       24.409       20.842      902.835      595.808      434.379        0.631        0.097      103.314       19.506        0.036      343.929       20.387      861.229
07/15/2013  07:48:00      -58.380      -66.705        4.610       34.031       30.951       23.181     1158.134      957.981      537.373        0.527        0.133       88.644       22.799        0.066      343.980       20.475      861.220
07/15/2013  07:49:00      -58.426      -73.751       -0.165       22.639       25.348       14.956      512.529      642.507      223.694        0.512        0.069       94.089       12.217        0.017      343.988       20.489      861.224
07/15/2013  07:50:00      -18.919      -68.100        1.550       23.752       34.118       22.515      564.163     1164.061      506.931        0.362        0.112       70.679       17.718        0.063      344.057       20.605      861.226
07/15/2013  07:51:00      -22.927       -1.187       15.397       37.148       27.408       18.617     1379.962      751.205      346.591        0.162        0.124       22.958       17.760        0.598      344.497       21.359      861.232
07/15/2013  07:52:00      -68.621      -42.100       -1.715       17.600       23.478       14.474      309.772      551.228      209.489        0.378        0.054       80.506        6.962        0.007      344.076       20.639      861.232
07/15/2013  07:53:00      -24.908     -109.456       -4.623       30.894       26.817       20.769      954.443      719.138      431.348        0.736        0.105      112.255       14.905        0.018      344.043       20.581      861.237
07/15/2013  07:54:00      -46.253      -83.701        6.468       28.947       27.113       18.798      837.950      735.104      353.349        0.556        0.096       95.631       15.550        0.026      344.139       20.745      861.228
07/15/2013  07:55:00      -30.968      -67.030       11.656       49.202       28.878       21.435     2420.789      833.955      459.457        0.465        0.186       73.838       18.654        0.064      344.253       20.941      861.227
07/15/2013  07:56:00      -73.934      -78.250      -12.124       30.298       36.834       14.778      917.971     1356.716      218.379        0.711        0.125      107.653       12.937        0.014      344.152       20.769      861.237
07/15/2013  07:57:00      -68.784      -54.657       -6.053       33.776       26.381       21.353     1140.828      695.966      455.948        0.502        0.115       87.856       18.912        0.046      344.286       20.996      861.247
07/15/2013  07:58:00      -72.418      -75.500       -0.324       36.733       36.335       21.167     1349.281     1320.260      448.044        0.703        0.156      104.616       19.480        0.035      344.267       20.966      861.266
07/15/2013  07:59:00      -44.031      -19.691        5.508       19.074       22.107       20.607      363.804      488.721      424.639        0.182        0.064       48.233       16.616        0.119      344.493       21.350      861.272
07/15/2013  08:00:00      -13.434       -8.063        9.096       36.138       29.344       28.363     1305.977      861.055      804.456        0.165        0.149       15.668       28.203        3.240      344.781       21.845      861.275
07/15/2013  08:01:00      -17.222        2.902       15.908       42.107       21.494       25.007     1773.040      462.007      625.355        0.171        0.143       17.465       23.981        1.885      345.079       22.355      861.272
07/15/2013  08:02:00      -50.934       -4.916       -2.645       44.814       31.798       21.335     2008.312     1011.128      455.197        0.305        0.174       51.171       10.432        0.042      344.389       21.174      861.269
07/15/2013  08:03:00      -41.795       19.872       -4.037       26.384       21.369       19.169      696.116      456.616      367.441        0.184        0.076       46.279       13.234        0.082      344.503       21.368      861.261
07/15/2013  08:04:00      -31.143      -10.084        1.170       26.964       25.634       21.068      727.055      657.095      443.843        0.145        0.091       32.734       13.340        0.166      344.674       21.660      861.249
07/15/2013  08:05:00      -60.545        0.827        2.510       34.381       18.053       18.900     1182.023      325.923      357.199        0.277        0.093       60.551       18.339        0.092      344.725       21.748      861.243
07/15/2013  08:06:00      -46.541      -21.983      -10.612       24.918       41.427       16.629      620.924     1716.159      276.517        0.269        0.131       51.471       21.137        0.169      344.435       21.252      861.227
07/15/2013  08:07:00      -12.376       -0.955       11.449       27.053       23.784       22.506      731.881      565.691      506.523        0.104        0.090       12.412       15.823        1.625      344.830       21.927      861.204
07/15/2013  08:08:00        0.018        6.493       28.476       27.903       19.955       24.782      778.598      398.206      614.168        0.132        0.090        6.493       11.129        2.938      345.074       22.344      861.180
07/15/2013  08:09:00       14.673        9.887       11.270       34.048       17.557       28.497     1159.246      308.245      812.101        0.136        0.114       17.693       16.186        0.837      344.578       21.496      861.152
07/15/2013  08:10:00       39.225       20.600       31.539       42.270       25.675       24.810     1786.778      659.218      615.539        0.301        0.153       44.305       18.793        0.180      344.515       21.389      861.127
07/15/2013  08:11:00       43.779       42.739        1.175       30.198       30.520       20.829      911.940      931.498      433.845        0.301        0.114       61.182       17.470        0.082      344.314       21.045      861.111
07/15/2013  08:12:00       46.381       17.723       -3.390       22.984       27.082       18.919      528.265      733.409      357.933        0.205        0.081       49.651       13.678        0.076      344.438       21.257      861.093
07/15/2013  08:13:00       52.744       -0.732       12.005       24.476       32.712       25.581      599.051     1070.097      654.384        0.262        0.116       52.749       14.221        0.073      344.363       21.129      861.088
07/15/2013  08:14:00       36.617       -3.604       30.797       29.454       27.506       23.625      867.525      756.554      558.120        0.224        0.109       36.794       23.473        0.407      344.672       21.657      861.092
07/15/2013  08:15:00        9.882        4.636       37.573       20.489       19.099       18.459      419.780      364.781      340.728        0.133        0.056       10.916       12.878        1.392      345.092       22.376      861.102
07/15/2013  08:16:00        0.408        1.955        9.195       26.855       33.513       30.083      721.191     1123.122      905.015        0.142        0.137        1.997       17.143       73.711      344.745       21.782      861.121
07/15/2013  08:17:00        1.862        1.986       14.363       26.320       25.174       25.184      692.762      633.738      634.244        0.109        0.098        2.723       13.674       25.223      344.912       22.070      861.135
07/15/2013  08:18:00       -1.229       13.486       22.420       40.664       24.333       17.444     1653.523      592.074      304.288        0.162        0.127       13.542       13.705        1.024      345.072       22.342      861.142
07/15/2013  08:19:00      -13.143       12.792       18.527       18.869       19.420       19.648      356.051      377.146      386.042        0.090        0.056       18.340       11.621        0.401      345.270       22.682      861.153
07/15/2013  08:20:00        0.444      -28.919       10.962       31.137       20.632       21.095      969.514      425.659      445.017        0.140        0.092       28.923       17.261        0.356      344.598       21.532      861.145
07/15/2013  08:21:00       28.502      -12.452        8.968       23.465       20.070       25.506      550.595      402.791      650.545        0.133        0.080       31.104       12.890        0.172      344.462       21.299      861.140
07/15/2013  08:22:00       15.721        5.909       30.172       30.517       27.429       30.890      931.284      752.375      954.207        0.191        0.132       16.795       12.869        0.587      344.568       21.479      861.142
07/15/2013  08:23:00       22.596      -12.458       27.352       36.668       46.407       29.886     1344.538     2153.648      893.192        0.290        0.220       25.803       29.454        1.303      344.676       21.663      861.149
07/15/2013  08:24:00        1.704       28.504       50.386       22.662       26.832       19.484      513.588      719.956      379.610        0.248        0.081       28.555       10.958        0.147      344.823       21.916      861.151
07/15/2013  08:25:00        9.514      -36.439       28.663       29.851       54.526       31.875      891.065     2973.048     1016.014        0.356        0.244       37.661       26.402        0.491      344.835       21.936      861.157
07/15/2013  08:26:00      -13.504      -39.448       18.040       31.523       40.484       30.088      993.698     1638.972      905.270        0.280        0.177       41.696       23.536        0.319      344.787       21.854      861.156
07/15/2013  08:27:00      -29.777       -8.281        7.346       41.883       22.684       22.573     1754.197      514.562      509.520        0.189        0.139       30.907       19.807        0.411      344.845       21.954      861.150
07/15/2013  08:28:00      -42.153      -18.608      -12.182       35.135       23.172       18.299     1234.476      536.959      334.844        0.219        0.105       46.078       10.720        0.054      344.711       21.722      861.140
07/15/2013  08:29:00      -99.714      -73.585        6.379       77.380       58.243       29.129     5987.675     3392.227      848.514        1.281        0.511      123.926       26.229        0.045      344.680       21.669      861.129
07/15/2013  08:30:00      -71.685      -77.126        4.488       59.602       42.530       28.061     3552.420     1808.810      787.398        0.863        0.307      105.295       30.728        0.085      344.606       21.545      861.115
07/15/2013  08:31:00     -108.793     -106.266        0.609       66.185       63.223       33.690     4380.437     3997.119     1135.007        1.632        0.476      152.081       33.855        0.050      344.537       21.425      861.113
07/15/2013  08:32:00     -130.468      -98.289       -0.693       51.652       49.986       35.859     2667.979     2498.553     1285.859        1.657        0.323      163.348       30.277        0.034      344.491       21.347      861.096
07/15/2013  08:33:00      -99.570      -93.428       -9.278       49.774       43.035       27.761     2477.424     1852.043      770.663        1.191        0.255      136.539       18.348        0.018      344.508       21.375      861.091
07/15/2013  08:34:00      -71.348      -97.214        5.955       51.533       68.019       33.794     2655.604     4626.573     1142.022        1.150        0.421      120.586       39.071        0.105      344.651       21.620      861.095
07/15/2013  08:35:00      -91.415      -61.580        2.305       43.542       41.437       24.602     1895.914     1717.021      605.234        0.819        0.211      110.222       21.805        0.039      344.666       21.647      861.108
07/15/2013  08:36:00     -114.052      -55.401       -3.807       56.757       39.757       23.208     3221.399     1580.650      538.606        1.072        0.267      126.796       27.511        0.047      344.715       21.730      861.099
07/15/2013  08:37:00      -66.752      -82.307       -5.513       52.469       39.241       25.577     2752.945     1539.831      654.205        0.810        0.247      105.973       16.862        0.025      344.627       21.582      861.096
07/15/2013  08:38:00      -59.074      -48.217       10.489       52.524       42.403       27.304     2758.721     1798.023      745.490        0.561        0.265       76.253       28.443        0.139      344.721       21.741      861.101
07/15/2013  08:39:00     -106.347      -87.537        0.180       68.282       54.716       33.475     4662.396     2993.874     1120.585        1.387        0.439      137.740       38.441        0.078      344.615       21.558      861.074
07/15/2013  08:40:00      -60.600      -66.538       11.851       54.746       44.126       30.221     2997.125     1947.136      913.301        0.705        0.293       89.998       33.798        0.141      344.686       21.682      861.057
07/15/2013  08:41:00      -58.869      -76.325        6.491       51.534       31.692       30.175     2655.760     1004.400      910.559        0.695        0.229       96.390       27.468        0.081      344.665       21.645      861.049
07/15/2013  08:42:00     -191.249     -121.672      -11.739       47.444       54.292       31.861     2250.959     2947.659     1015.129        2.886        0.311      226.672       30.421        0.018      344.551       21.447      861.032
07/15/2013  08:43:00     -157.271      -43.200       -2.350       55.223       44.191       32.481     3049.617     1952.864     1055.016        1.633        0.303      163.096       29.435        0.033      344.639       21.600      861.023
07/15/2013  08:44:00      -94.292      -67.858        4.289       61.610       46.294       28.990     3795.777     2143.176      840.431        1.015        0.339      116.170       37.056        0.102      344.760       21.807      861.010
07/15/2013  08:45:00     -125.183      -22.578       -2.661       73.654       43.723       31.382     5424.935     1911.723      984.823        1.225        0.416      127.202       38.215        0.090      344.721       21.740      860.996
07/15/2013  08:46:00     -128.334      -52.910       -2.138       74.978       48.552       31.888     5621.626     2357.275     1016.820        1.413        0.450      138.813       39.412        0.081      344.758       21.804      860.981
07/15/2013  08:47:00      -80.340      -15.842        0.983       42.606       36.824       23.148     1815.288     1355.980      535.838        0.521        0.185       81.887       23.030        0.079      345.037       22.282      860.971
07/15/2013  08:48:00      -89.782      -32.456        0.217       34.473       49.368       22.151     1188.369     2437.167      490.654        0.661        0.206       95.468       18.335        0.037      344.838       21.941      860.965
07/15/2013  08:49:00      -51.014      -30.010        9.081       41.790       25.190       21.853     1746.435      634.526      477.538        0.322        0.143       59.187       19.444        0.108      345.172       22.514      860.960
07/15/2013  08:50:00      -82.325        3.821        0.453       27.087       20.746       19.608      733.732      430.406      384.475        0.417        0.077       82.414       18.096        0.048      344.968       22.163      860.944
07/15/2013  08:51:00      -55.826      -16.037        8.171       34.716       33.627       17.210     1205.184     1130.776      296.179        0.304        0.132       58.084       17.381        0.090      345.283       22.703      860.926
07/15/2013  08:52:00        0.826        2.051       28.992       42.581       35.300       23.734     1813.123     1246.075      563.314        0.223        0.181        2.211       16.600       56.345      345.496       23.070      860.919
07/15/2013  08:53:00      -26.054       -5.475        6.318       33.388       25.356       24.081     1114.747      642.910      579.877        0.154        0.117       26.623       19.182        0.519      345.213       22.584      860.912
07/15/2013  08:54:00      -41.759      -32.044        1.917       18.596       37.531       15.757      345.809     1408.550      248.292        0.239        0.100       52.637       16.437        0.098      345.201       22.562      860.906
07/15/2013  08:55:00      -54.884      -73.566      -11.583       31.928       39.592       19.658     1019.396     1567.531      386.435        0.577        0.149       91.784       15.558        0.029      345.127       22.436      860.898
07/15/2013  08:56:00      -52.612     -130.255        3.348       38.302       37.749       23.260     1467.034     1425.024      541.039        1.159        0.172      140.479       17.424        0.015      345.115       22.415      860.898
07/15/2013  08:57:00      -52.807      -23.238       -3.566       30.050       39.042       17.780      903.026     1524.290      316.145        0.304        0.137       57.694       14.859        0.066      345.165       22.502      860.888
07/15/2013  08:58:00      -55.801      -27.825        4.887       35.348       34.720       24.398     1249.497     1205.475      595.286        0.348        0.153       62.354       23.745        0.145      345.501       23.077      860.873
07/15/2013  08:59:00      -23.229      -16.146       14.502       28.367       25.707       24.886      804.707      660.833      619.330        0.155        0.104       28.289       17.614        0.388      345.624       23.287      860.866
07/15/2013  09:00:00        9.938      -84.276        4.740       45.432       51.795       29.698     2064.057     2682.768      881.986        0.643        0.281       84.860       23.253        0.075      345.398       22.902      860.868
07/15/2013  09:01:00      -28.623      -34.998        0.832       26.954       34.378       20.728      726.543     1181.862      429.658        0.219        0.117       45.212       17.581        0.151      345.540       23.142      860.864
07/15/2013  09:02:00      -29.416       -3.529       -0.693       15.008       19.765        9.243      225.253      390.640       85.435        0.079        0.035       29.626        7.631        0.066      345.481       23.042      860.858
07/15/2013  09:03:00      -28.715      -32.750        7.392       35.160       36.191       21.077     1236.246     1309.803      444.221        0.247        0.150       43.555       19.106        0.192      345.784       23.562      860.873
07/15/2013  09:04:00      -40.466      -64.287        9.475       68.613       67.580       28.028     4707.750     4567.075      785.554        0.796        0.503       75.963       39.264        0.267      345.743       23.493      860.871
07/15/2013  09:05:00      -93.448      -43.432        4.962       59.703       51.119       29.156     3564.421     2613.108      850.062        0.883        0.351      103.048       33.016        0.103      345.575       23.202      860.880
07/15/2013  09:06:00      -17.109      -32.041       -7.602       47.995       54.374       31.295     2303.511     2956.574      979.375        0.381        0.312       36.323       19.583        0.291      345.629       23.295      860.873
07/15/2013  09:07:00      -54.633      -87.041        6.582       22.327       23.237       22.026      498.480      539.974      485.133        0.606        0.076      102.766       12.559        0.015      345.467       23.018      860.882
07/15/2013  09:08:00      -72.716      -46.403       13.887       53.697       34.898       22.204     2883.412     1217.875      493.039        0.611        0.230       86.261       14.132        0.027      345.721       23.453      860.885
07/15/2013  09:09:00     -105.980      -54.262      -11.860       39.135       25.408       14.531     1531.584      645.571      211.159        0.835        0.119      119.064       14.623        0.015      345.462       23.010      860.881
07/15/2013  09:10:00      -65.073      -55.741        9.839       38.375       40.678       26.959     1472.610     1654.708      726.787        0.565        0.193       85.683       23.789        0.077      345.715       23.444      860.882
07/15/2013  09:11:00      -22.669      -43.832       -2.381       73.463       44.745       40.743     5396.762     2002.122     1660.005        0.575        0.453       49.347       30.194        0.374      345.506       23.086      860.871
07/15/2013  09:12:00      -37.372      -97.380      -10.882       55.413       35.700       23.901     3070.546     1274.481      571.280        0.796        0.246      104.305       17.518        0.028      345.629       23.296      860.874
07/15/2013  09:13:00      -24.180      -34.070      -12.065       19.947       28.430       15.159      397.863      808.249      229.784        0.166        0.072       41.778       10.063        0.058      345.676       23.377      860.867
07/15/2013  09:14:00      -33.210      -54.888        6.475       32.728       48.156       30.708     1071.118     2318.997      942.952        0.424        0.217       64.153       29.687        0.214      346.032       23.989      860.874
07/15/2013  09:15:00      -19.825      -55.120       18.426       45.453       55.872       26.960     2065.931     3121.702      726.863        0.484        0.296       58.576       19.032        0.106      346.185       24.251      860.885
07/15/2013  09:16:00      -31.359      -68.594       25.192       66.171       85.150       35.462     4378.627     7250.553     1257.541        0.960        0.644       75.423       49.806        0.436      346.235       24.335      860.873
07/15/2013  09:17:00       16.337      -43.411       -9.894       50.579       36.573       31.916     2558.191     1337.600     1018.638        0.358        0.246       46.383       16.877        0.132      345.900       23.761      860.860
07/15/2013  09:18:00       11.434      -25.036        1.072       26.529       22.278       25.362      703.802      496.302      643.217        0.130        0.092       27.523       11.488        0.174      346.210       24.295      860.854
07/15/2013  09:19:00      -26.659      -31.222       11.240       25.849       46.638       23.989      668.154     2175.089      575.493        0.261        0.171       41.055       26.750        0.425      346.450       24.707      860.852
07/15/2013  09:20:00      -14.423       43.701       43.217       17.205       32.272       25.693      296.027     1041.472      660.122        0.299        0.100       46.020        8.229        0.032      346.528       24.840      860.833
07/15/2013  09:21:00      -55.743        0.497       20.383       56.434       44.283       27.624     3184.803     1960.962      763.071        0.471        0.295       55.745       32.170        0.333      346.645       25.042      860.825
07/15/2013  09:22:00      -78.568      -75.244       -1.397       74.576       48.314       27.454     5561.631     2334.194      753.701        1.024        0.432      108.787       31.257        0.083      346.044       24.009      860.820
07/15/2013  09:23:00      -47.868      -71.770        8.521       25.794       36.294       29.046      665.331     1317.270      843.650        0.517        0.141       86.268       20.671        0.057      346.041       24.002      860.807
07/15/2013  09:24:00       -6.082      -43.934       -5.328       33.211       22.729       18.141     1102.971      516.620      329.096        0.197        0.097       44.353       11.856        0.071      346.021       23.969      860.797
07/15/2013  09:25:00      -49.931      -31.867       -4.657       19.294       18.766       12.436      372.245      352.176      154.657        0.220        0.044       59.234        8.977        0.023      346.115       24.129      860.780
07/15/2013  09:26:00      -40.751      -13.788        8.084       19.958       19.703       17.137      398.308      388.196      293.679        0.150        0.054       43.020       12.712        0.087      346.304       24.456      860.773
07/15/2013  09:27:00      -27.213      -37.588        1.072       27.561       36.545       21.520      759.636     1335.508      463.091        0.236        0.128       46.405       18.734        0.163      346.575       24.922      860.763
07/15/2013  09:28:00      -10.444      -87.332      -14.898       39.092       46.379       32.704     1528.186     2151.058     1069.565        0.635        0.237       87.954       20.195        0.053      346.307       24.461      860.753
07/15/2013  09:29:00      -79.377     -101.524      -11.007       23.518       30.359       16.261      553.079      921.693      264.406        0.923        0.087      128.871       14.680        0.013      345.859       23.690      860.744
07/15/2013  09:30:00      -56.203       -3.070       -3.484       16.642       28.962       11.276      276.940      838.825      127.153        0.221        0.062       56.286        8.208        0.021      345.952       23.850      860.729
07/15/2013  09:31:00      -67.852      -43.205       -6.937       19.909       26.880       15.319      396.355      722.558      234.663        0.394        0.068       80.439       12.036        0.022      346.072       24.055      860.705
07/15/2013  09:32:00      -55.018       35.402       -7.584       19.096       21.043       16.538      364.664      442.800      273.506        0.271        0.054       65.424        9.503        0.021      346.093       24.092      860.678
07/15/2013  09:33:00      -73.816       -1.258       -4.196       23.095       25.257       13.017      533.401      637.924      169.435        0.340        0.067       73.827        9.227        0.016      346.094       24.094      860.666
07/15/2013  09:34:00      -64.986       -1.136        5.174       36.222       23.472       16.952     1312.046      550.930      287.369        0.320        0.108       64.996       19.460        0.090      346.309       24.464      860.653
07/15/2013  09:35:00      -59.893        4.972        8.296       39.682       27.662       26.004     1574.627      765.181      676.213        0.335        0.151       60.100       20.990        0.122      346.302       24.451      860.645
07/15/2013  09:36:00      -36.948      -10.958      -11.726       43.445       28.112       25.917     1887.472      790.284      671.672        0.249        0.167       38.539       12.195        0.100      346.254       24.369      860.653
07/15/2013  09:37:00      -34.373      -41.478       -6.977       24.958       25.413       14.817      622.888      645.843      219.541        0.222        0.074       53.870       10.623        0.039      346.335       24.509      860.659
07/15/2013  09:38:00      -21.716        8.948        7.917       23.409       21.926       22.662      547.980      480.763      513.558        0.108        0.077       23.487       17.268        0.541      346.878       25.444      860.655
07/15/2013  09:39:00      -33.729       -0.117       18.310       36.946       40.874       37.281     1365.028     1670.688     1389.873        0.295        0.221       33.730       28.797        0.729      346.827       25.355      860.648
07/15/2013  09:40:00       54.129      -61.315       -5.939       56.583       74.197       52.179     3201.680     5505.180     2722.692        0.907        0.571       81.789       46.584        0.324      347.053       25.744      860.636
07/15/2013  09:41:00       27.434        5.722       30.649       59.094       61.270       56.131     3492.085     3754.044     3150.690        0.606        0.520       28.025       57.582        4.222      347.152       25.915      860.641
07/15/2013  09:42:00      -12.101       34.304       75.857       22.386       50.454       22.732      501.140     2545.640      516.728        0.532        0.178       36.375       25.530        0.493      347.088       25.804      860.638
07/15/2013  09:43:00       -0.027       16.231       48.735       17.277       27.748       20.762      298.495      769.966      431.057        0.207        0.075       16.231       16.192        0.995      347.205       26.007      860.634
07/15/2013  09:44:00      -18.995       -4.952       27.392       16.303       16.541       12.641      265.782      273.607      159.786        0.092        0.035       19.630        7.121        0.132      347.427       26.389      860.623
07/15/2013  09:45:00      -30.682        7.454       19.678       20.988       13.384       19.722      440.515      179.137      388.963        0.120        0.050       31.574       13.348        0.179      347.139       25.893      860.610
07/15/2013  09:46:00      -23.941       -6.328       21.387       21.174       14.682       14.519      448.327      215.547      210.788        0.097        0.044       24.763       15.308        0.382      347.357       26.271      860.593
07/15/2013  09:47:00       -2.815        7.696       31.815       13.410       14.292       13.996      179.822      204.273      195.883        0.083        0.029        8.194        7.579        0.855      348.184       27.695      860.588
07/15/2013  09:48:00       39.555       28.081       20.507       44.763       20.963       27.469     2003.686      439.441      754.537        0.299        0.160       48.509       27.962        0.332      347.078       25.789      860.573
07/15/2013  09:49:00       54.022       26.656       20.540       27.462       19.275       24.386      754.180      371.509      594.697        0.289        0.086       60.240       13.688        0.052      346.934       25.539      860.558
07/15/2013  09:50:00       -0.070       20.026       21.508       29.757       45.533       32.336      885.451     2073.211     1045.633        0.243        0.200       20.026       24.435        1.489      347.346       26.249      860.548
07/15/2013  09:51:00        7.101       16.339       31.601       27.526       33.528       15.546      757.686     1124.107      241.689        0.172        0.106       17.816       14.065        0.623      347.805       27.041      860.528
07/15/2013  09:52:00       56.672       28.847       24.082       67.256       49.814       28.806     4523.352     2481.464      829.758        0.623        0.392       63.591       15.492        0.059      347.099       25.824      860.516
07/15/2013  09:53:00      108.198       84.163       12.669       29.506       26.065       28.689      870.623      679.399      823.082        1.066        0.119      137.078       14.674        0.011      346.462       24.727      860.508
07/15/2013  09:54:00        6.625       27.744       43.632       24.527       46.826       24.869      601.598     2192.712      618.459        0.306        0.171       28.524       21.073        0.546      347.490       26.496      860.489
07/15/2013  09:55:00       -8.232      -10.295       17.167       30.258       32.587       20.641      915.521     1061.914      426.065        0.144        0.120       13.181       19.058        2.090      347.553       26.606      860.473
07/15/2013  09:56:00       -0.349      -13.236       14.902       30.995       39.816       28.782      960.677     1585.315      828.427        0.189        0.169       13.240       21.173        2.557      347.478       26.478      860.457
07/15/2013  09:57:00       15.014       -4.985       37.055       30.238       80.369       34.507      914.311     6459.241     1190.767        0.509        0.428       15.819       42.604        7.253      347.305       26.178      860.442
07/15/2013  09:58:00       11.139      -26.402       33.329       24.300       44.052       23.024      590.468     1940.545      530.124        0.250        0.153       28.656       21.004        0.537      347.891       27.190      860.421
07/15/2013  09:59:00       14.769       22.865       40.057       26.350       29.064       29.426      694.305      844.728      865.883        0.237        0.120       27.220       23.511        0.746      347.640       26.758      860.407
07/15/2013  10:00:00       27.764       37.140       32.433       43.700       27.764       29.431     1909.725      770.864      866.199        0.337        0.177       46.371       29.957        0.417      347.071       25.775      860.382
07/15/2013  10:01:00       30.761       10.849       30.180       37.617       36.344       29.655     1415.002     1320.920      879.449        0.279        0.181       32.619       22.513        0.476      347.222       26.035      860.357
07/15/2013  10:02:00      106.716       90.489       71.590       75.147       42.102       45.909     5647.117     1772.582     2107.635        1.711        0.476      139.916       43.987        0.099      346.931       25.533      860.351
07/15/2013  10:03:00      135.200       85.310       52.124       47.152       44.420       39.248     2223.338     1973.124     1540.397        1.700        0.287      159.865       22.699        0.020      346.793       25.296      860.343
07/15/2013  10:04:00       65.393       27.943       65.550       66.427       39.432       36.103     4412.496     1554.863     1303.421        0.831        0.364       71.114       29.763        0.175      347.275       26.127      860.320
07/15/2013  10:05:00       98.840       74.036       48.594       46.049       33.783       48.117     2120.481     1141.275     2315.265        1.159        0.279      123.494       24.117        0.038      346.781       25.276      860.312
07/15/2013  10:06:00       64.982       34.501       16.128       79.373       44.801       35.630     6300.112     2007.142     1269.520        0.762        0.479       73.573       27.029        0.135      346.892       25.467      860.287
07/15/2013  10:07:00       65.029       65.581       49.068       45.221       37.269       29.997     2044.948     1388.996      899.817        0.763        0.217       92.357       20.862        0.051      347.207       26.008      860.265
07/15/2013  10:08:00       79.994       53.308       19.857       63.369       38.924       46.506     4015.688     1515.096     2162.809        0.866        0.385       96.129       24.377        0.064      347.488       26.493      860.248
07/15/2013  10:09:00       50.027       68.834       63.251       56.855       54.991       34.155     3232.500     3024.063     1166.533        0.933        0.371       85.093       22.114        0.068      347.729       26.909      860.234
07/15/2013  10:10:00       -9.690       32.910       66.736       21.999       41.016       26.235      483.946     1682.335      688.256        0.424        0.143       34.307       29.325        0.731      347.964       27.316      860.231
07/15/2013  10:11:00        0.161       56.409       81.175       30.962       38.125       24.948      958.628     1453.521      622.403        0.640        0.152       56.410       20.448        0.131      347.516       26.542      860.213
07/15/2013  10:12:00       17.831       16.142       58.090       28.307       39.519       20.897      801.308     1561.740      436.697        0.338        0.140       24.052       22.766        0.896      347.485       26.489      860.213
07/15/2013  10:13:00       23.759        5.914       44.843       26.954       34.965       23.458      726.517     1222.576      550.266        0.255        0.125       24.484       21.210        0.750      347.757       26.958      860.193
07/15/2013  10:14:00       56.288      -18.567       21.975       34.367       34.675       34.233     1181.119     1202.352     1171.865        0.377        0.178       59.271       22.749        0.147      347.268       26.116      860.200
07/15/2013  10:15:00        4.365      -33.092       28.101       17.083       47.543       23.031      291.835     2260.384      530.418        0.249        0.154       33.379       24.805        0.552      347.361       26.274      860.181
07/15/2013  10:16:00       23.159       24.528       36.821       30.376       43.468       27.828      922.711     1889.463      774.408        0.304        0.179       33.734       28.868        0.732      347.111       25.845      860.173
07/15/2013  10:17:00       14.501       46.017       16.098       35.542       29.258       25.911     1263.232      856.031      671.404        0.269        0.140       48.248       21.528        0.199      347.714       26.884      860.163
07/15/2013  10:18:00       -3.983        3.904       35.594       17.015       10.338        9.552      289.513      106.877       91.243        0.089        0.024        5.577        6.280        1.268      348.532       28.298      860.158
07/15/2013  10:19:00        9.958       13.988       19.956       18.305       15.967       19.102      335.073      254.945      364.890        0.082        0.048       17.170       11.894        0.480      348.400       28.068      860.149
07/15/2013  10:20:00       19.561       84.278        3.909       40.553       57.650       34.032     1644.566     3323.523     1158.149        0.681        0.306       86.518       32.385        0.140      348.083       27.520      860.149
07/15/2013  10:21:00       12.821       47.483       16.885       37.666       45.707       28.900     1418.763     2089.141      835.228        0.352        0.217       49.183       25.617        0.271      348.250       27.809      860.145
07/15/2013  10:22:00        4.590      -86.230        2.050       24.609       30.895       25.348      605.611      954.486      642.505        0.483        0.110       86.352       11.800        0.019      347.011       25.670      860.129
07/15/2013  10:23:00       15.205      -38.450       -5.174       35.005       36.471       35.706     1225.366     1330.143     1274.952        0.278        0.192       41.347       20.179        0.238      347.654       26.781      860.108
07/15/2013  10:24:00       -6.079      -37.935        9.176       46.067       32.395       30.184     2122.173     1049.453      911.098        0.282        0.204       38.419        6.476        0.028      347.536       26.575      860.082
07/15/2013  10:25:00      -24.679      -50.663        9.593       23.091       28.357       19.984      533.214      804.119      399.351        0.250        0.087       56.355       12.479        0.049      347.488       26.492      860.069
07/15/2013  10:26:00       -8.067      -78.517       -3.241       11.724       20.287       12.871      137.445      411.567      165.668        0.348        0.036       78.930       10.341        0.017      347.066       25.766      860.045
07/15/2013  10:27:00       -6.274      -49.456        2.624       17.187       19.275       20.000      295.392      371.529      400.005        0.178        0.053       49.852       10.451        0.044      347.196       25.990      860.038
07/15/2013  10:28:00       18.506      -51.135       22.385       18.266       28.528       22.272      333.644      813.827      496.024        0.255        0.082       54.381       15.102        0.077      347.447       26.424      860.018
07/15/2013  10:29:00       58.322       50.473       -0.615       33.595       60.511       34.077     1128.606     3661.599     1161.211        0.595        0.298       77.129       35.828        0.216      347.272       26.122      860.014
07/15/2013  10:30:00       48.022       -2.272       -8.775       41.908       26.941       35.136     1756.242      725.841     1234.570        0.305        0.186       48.076       18.146        0.142      347.468       26.459      860.014
07/15/2013  10:31:00       -9.395      -19.988       21.542       33.985       19.943       23.366     1154.949      397.727      545.976        0.152        0.105       22.086       19.368        0.769      347.706       26.869      860.022
07/15/2013  10:32:00       18.068       21.548       29.982       33.054       39.350       24.118     1092.571     1548.425      581.696        0.246        0.161       28.121       18.825        0.448      348.109       27.567      860.025
07/15/2013  10:33:00       72.676       10.884       -4.101       43.997       57.578       37.275     1935.766     3315.241     1389.407        0.603        0.332       73.486       34.659        0.222      347.520       26.549      860.027
07/15/2013  10:34:00       20.083       13.235       31.119       39.780       49.816       33.156     1582.425     2481.669     1099.289        0.335        0.258       24.052       15.085        0.393      347.776       26.991      860.030
07/15/2013  10:35:00       71.704       82.707       58.079       66.644       49.819       50.615     4441.364     2481.931     2561.856        1.242        0.474      109.462       27.254        0.062      347.717       26.890      860.026
07/15/2013  10:36:00      109.087      100.561       59.786       61.588       36.058       45.258     3793.111     1300.158     2048.301        1.636        0.357      148.366       39.211        0.070      347.743       26.934      860.023
07/15/2013  10:37:00       38.294       14.239       68.073       36.402       64.723       33.574     1325.112     4189.045     1127.209        0.647        0.332       40.855       36.424        0.795      347.915       27.230      860.020
07/15/2013  10:38:00       -1.273       -6.570       39.371       26.881       42.145       27.964      722.593     1776.174      781.984        0.244        0.164        6.692       25.167       14.143      348.034       27.436      860.012
07/15/2013  10:39:00       48.417       94.714       95.997       64.810       58.070       61.413     4200.315     3372.083     3771.500        1.593        0.567      106.372       56.329        0.280      347.720       26.894      860.008
07/15/2013  10:40:00       22.615       36.325       -5.346       29.569       40.429       34.445      874.330     1634.483     1186.479        0.278        0.185       42.790       31.329        0.536      347.679       26.825      860.022
07/15/2013  10:41:00        4.628        1.332       -2.129       26.278       19.165       18.569      690.517      367.315      344.822        0.071        0.070        4.816       17.653       13.439      347.889       27.187      860.015
07/15/2013  10:42:00       -6.968       -3.838       30.943       12.362       15.092       10.440      152.826      227.759      108.993        0.076        0.024        7.955        7.195        0.818      349.191       29.439      860.014
07/15/2013  10:43:00        0.736       -9.659       25.261       14.057       24.747       11.510      197.592      612.397      132.470        0.084        0.047        9.687        8.244        0.724      348.709       28.604      860.005
07/15/2013  10:44:00       69.231      -85.320        3.394       86.350       74.339       51.775     7456.370     5526.300     2680.642        1.387        0.783      109.874       61.424        0.313      347.984       27.348      860.011
07/15/2013  10:45:00       85.934     -139.139       -7.300       58.762       63.412       41.998     3453.018     4021.025     1763.858        1.802        0.462      163.537       39.865        0.059      347.760       26.961      859.996
07/15/2013  10:46:00        0.311      -31.953       35.506       25.286       53.332       25.077      639.358     2844.347      628.848        0.320        0.206       31.954       22.077        0.477      348.387       28.045      859.993
07/15/2013  10:47:00       15.529       20.521       57.022       41.317       47.461       35.056     1707.128     2252.562     1228.949        0.455        0.259       25.735       23.083        0.805      348.281       27.862      859.982
07/15/2013  10:48:00       72.193      -66.611        3.134       55.130       80.556       42.755     3039.271     6489.253     1827.955        1.051        0.568       98.229       33.296        0.115      347.872       27.154      859.965
07/15/2013  10:49:00       45.315       10.355       46.099       46.839       57.920       43.808     2193.918     3354.699     1919.135        0.588        0.373       46.483       34.962        0.566      348.304       27.904      859.943
07/15/2013  10:50:00      150.426      140.554       62.823       64.970       39.552       43.423     4221.088     1564.334     1885.583        2.700        0.384      205.872       11.970        0.003      347.444       26.414      859.936
07/15/2013  10:51:00      164.056      113.686       46.577       59.616       59.751       43.955     3554.101     3570.211     1932.046        2.553        0.453      199.597       30.052        0.023      347.552       26.601      859.922
07/15/2013  10:52:00       57.708       34.996       14.260       40.944       57.296       25.655     1676.450     3282.806      658.198        0.519        0.281       67.490       16.360        0.059      347.826       27.077      859.911
07/15/2013  10:53:00       20.141      -44.592        9.485       43.609       56.150       37.839     1901.757     3152.831     1431.758        0.448        0.324       48.930       35.020        0.512      348.072       27.503      859.912
07/15/2013  10:54:00       -8.156      -10.751       40.246       24.369       36.835       27.262      593.857     1356.826      743.209        0.225        0.135       13.495       16.632        1.519      348.619       28.447      859.886
07/15/2013  10:55:00      -29.145       15.946       -9.845       22.590       21.803       16.295      510.311      475.387      265.535        0.123        0.063       33.222        7.490        0.051      348.177       27.682      859.881
07/15/2013  10:56:00      -37.891      -12.622       -3.347       46.893       34.932       29.467     2198.909     1220.212      868.320        0.295        0.214       39.938       17.197        0.185      348.031       27.430      859.867
07/15/2013  10:57:00      -16.685      -41.757        5.166       37.986       50.902       25.908     1442.902     2591.039      671.204        0.338        0.235       44.967       25.522        0.322      348.195       27.715      859.847
07/15/2013  10:58:00      -45.368      -50.731      -11.157       42.404       39.316       28.105     1798.130     1545.787      789.902        0.444        0.207       68.058        8.391        0.015      347.947       27.286      859.841
07/15/2013  10:59:00      -46.534      -18.276        8.137       59.092       37.617       35.330     3491.910     1415.015     1248.194        0.436        0.308       49.994       34.919        0.488      348.595       28.407      859.820
07/15/2013  11:00:00      -50.343      -50.908       -2.332       38.124       40.732       23.861     1453.458     1659.108      569.360        0.441        0.184       71.597       21.896        0.094      348.065       27.489      859.802
07/15/2013  11:01:00      -24.558       -0.923        5.612       23.050       23.703       21.511      531.319      561.855      462.737        0.110        0.078       24.575       14.766        0.361      348.576       28.374      859.781
07/15/2013  11:02:00      -58.065      -38.281       -7.119       46.928       40.010       23.690     2202.211     1600.837      561.225        0.463        0.218       69.549       18.369        0.070      348.138       27.616      859.756
07/15/2013  11:03:00      -44.211      -33.092        7.215       35.307       44.496       31.700     1246.578     1979.919     1004.870        0.367        0.212       55.224       30.031        0.296      348.244       27.800      859.714
07/15/2013  11:04:00       -8.450      -28.717       13.160       51.546       44.396       29.002     2656.950     1971.043      841.104        0.327        0.273       29.934       24.832        0.688      348.238       27.788      859.696
07/15/2013  11:05:00       41.096       -2.012       25.511       37.388       29.088       30.961     1397.855      846.131      958.578        0.277        0.160       41.145       23.698        0.332      348.388       28.049      859.673
07/15/2013  11:06:00       52.505       22.757       17.287       58.978       40.967       36.061     3478.453     1678.263     1300.431        0.501        0.323       57.225       31.692        0.307      348.475       28.199      859.654
07/15/2013  11:07:00       27.566        8.445       21.552       98.772       71.387       41.803     9755.884     5096.110     1747.472        0.894        0.830       28.830       21.561        0.559      348.344       27.971      859.640
07/15/2013  11:08:00        8.275       56.164       91.622       30.498       77.771       39.882      930.137     6048.390     1590.574        1.009        0.428       56.771       48.077        0.717      348.644       28.490      859.626
07/15/2013  11:09:00       53.705       84.756       77.587       79.871       59.876       57.425     6379.306     3585.105     3297.621        1.467        0.663      100.339       34.091        0.115      348.281       27.863      859.633
07/15/2013  11:10:00      118.295       78.067       16.598       70.231       62.027       50.711     4932.360     3847.379     2571.603        1.586        0.568      141.732       31.611        0.050      348.213       27.744      859.660
07/15/2013  11:11:00      141.705      135.226        8.820       54.855       48.750       47.032     3009.027     2376.592     2211.996        2.302        0.380      195.873       31.012        0.025      348.125       27.591      859.675
07/15/2013  11:12:00      100.223       78.474       38.880       59.103       70.753       48.571     3493.132     5006.007     2359.185        1.428        0.543      127.290       31.293        0.060      348.081       27.517      859.697
07/15/2013  11:13:00       67.546        4.077       29.921       66.494       93.727       48.617     4421.518     8784.740     2363.658        1.052        0.778       67.668       34.186        0.255      348.153       27.643      859.709
07/15/2013  11:14:00       96.431       67.193       30.661       63.014       42.833       30.645     3970.821     1834.706      939.104        1.075        0.337      117.532       14.531        0.015      348.313       27.918      859.729
07/15/2013  11:15:00       79.027       72.063       21.955       68.253       43.212       45.761     4658.479     1867.267     2094.094        1.027        0.431      106.951       24.816        0.054      348.095       27.541      859.738
07/15/2013  11:16:00       17.370       42.650       58.190       38.046       39.822       32.117     1447.532     1585.768     1031.493        0.478        0.203       46.051       27.340        0.352      348.608       28.429      859.728
07/15/2013  11:17:00       82.798       33.638       28.818       60.721       39.317       35.545     3686.993     1545.811     1263.466        0.766        0.325       89.370       20.399        0.052      348.308       27.909      859.715
07/15/2013  11:18:00       90.279       95.053       21.360       74.632       46.946       45.748     5569.867     2203.908     2092.878        1.375        0.493      131.092       23.817        0.033      348.369       28.014      859.694
07/15/2013  11:19:00        6.190      115.935       -3.546       44.056       67.694       38.250     1940.941     4582.422     1463.080        1.074        0.399      116.100       36.845        0.101      348.538       28.307      859.679
07/15/2013  11:20:00      -31.480       63.514        3.097       33.336       52.210       37.906     1111.256     2725.915     1436.865        0.515        0.264       70.888       37.653        0.282      348.761       28.696      859.658
07/15/2013  11:21:00       21.846       44.706       34.033       41.290       45.746       31.562     1704.876     2092.738      996.185        0.421        0.240       49.758       22.271        0.200      349.115       29.305      859.645
07/15/2013  11:22:00      143.331       94.413       27.929       78.543       65.260       52.140     6168.925     4258.808     2718.584        2.169        0.657      171.632       43.191        0.063      348.553       28.331      859.637
07/15/2013  11:23:00      153.085      119.471       31.068       46.264       38.603       41.585     2140.390     1490.213     1729.274        2.202        0.268      194.186       23.981        0.015      347.963       27.311      859.637
07/15/2013  11:24:00       62.046       51.691       11.959       36.691       21.992       28.703     1346.257      483.642      823.870        0.466        0.133       80.757       23.359        0.084      348.084       27.523      859.640
07/15/2013  11:25:00       29.005       65.725       16.707       44.674       43.499       38.319     1995.723     1892.154     1468.378        0.540        0.268       71.840       31.541        0.193      348.518       28.273      859.626
07/15/2013  11:26:00      -68.022       71.983       -8.448       48.461       46.925       27.767     2348.502     2202.002      770.982        0.760        0.266       99.038       26.454        0.071      348.392       28.055      859.612
07/15/2013  11:27:00      -21.382       38.611       18.634       31.945       34.473       32.632     1020.460     1188.407     1064.828        0.278        0.164       44.136       24.463        0.307      349.272       29.580      859.610
07/15/2013  11:28:00      -12.116        2.103       26.046       19.753       17.960       16.314      390.182      322.564      266.152        0.090        0.049       12.297        8.311        0.457      349.118       29.313      859.597
07/15/2013  11:29:00       17.580        3.047       26.888       27.485       30.321       27.923      755.447      919.337      779.680        0.175        0.123       17.842       20.134        1.273      348.890       28.916      859.590
07/15/2013  11:30:00       19.120       17.707       64.713       32.554       37.902       25.345     1059.746     1436.581      642.358        0.400        0.157       26.060       21.811        0.700      349.025       29.151      859.591
07/15/2013  11:31:00       30.165      -12.929       24.457       31.677       39.585       33.061     1003.451     1566.960     1093.018        0.267        0.183       32.818       32.933        1.007      348.763       28.698      859.592
07/15/2013  11:32:00       -2.715      -77.656       -6.086       14.095       18.946       24.610      198.666      358.969      605.644        0.362        0.058       77.704        9.898        0.016      348.014       27.401      859.592
07/15/2013  11:33:00       -3.727      -58.169      -10.302       16.749       31.825       24.187      280.538     1012.835      585.010        0.269        0.094       58.288       13.948        0.057      348.327       27.943      859.580
07/15/2013  11:34:00      -16.791        2.069       17.646       28.833       22.043       24.447      831.359      485.876      597.663        0.126        0.096       16.918       19.008        1.262      349.275       29.583      859.563
07/15/2013  11:35:00       31.593       14.046       29.108       38.276       47.541       43.558     1465.041     2260.122     1897.332        0.383        0.281       34.575       32.760        0.898      349.060       29.211      859.560
07/15/2013  11:36:00       34.844      -11.116       38.720       62.772       66.115       45.715     3940.276     4371.164     2089.831        0.662        0.520       36.574       33.568        0.842      348.995       29.100      859.545
07/15/2013  11:37:00       18.530      -60.276       28.457       55.840      115.989       69.667     3118.152    13453.426     4853.548        1.310        1.071       63.060       55.575        0.777      348.898       28.930      859.522
07/15/2013  11:38:00       22.914     -123.872      -18.998       55.543       67.753       41.978     3085.075     4590.502     1762.182        1.283        0.472      125.973       25.265        0.040      348.516       28.269      859.506
07/15/2013  11:39:00      -21.600      -56.166        2.112       41.386       29.446       24.545     1712.776      867.039      602.473        0.340        0.159       60.176       15.238        0.064      348.827       28.809      859.505
07/15/2013  11:40:00      -19.542      -23.921       14.975       33.837       51.327       26.514     1144.916     2634.456      702.999        0.283        0.224       30.889       28.861        0.873      349.283       29.599      859.494
07/15/2013  11:41:00        5.862       10.349       13.562       40.591       28.130       30.557     1647.648      791.308      933.723        0.185        0.169       11.895       22.226        3.492      348.695       28.582      859.485
07/15/2013  11:42:00       35.735       23.873        5.991       31.139       33.436       20.956      969.611     1117.959      439.138        0.220        0.126       42.975       11.995        0.078      348.171       27.673      859.472
07/15/2013  11:43:00       26.583       22.476       24.227       33.093       25.017       26.094     1095.129      625.852      680.910        0.210        0.120       34.811       20.023        0.331      348.883       28.904      859.444
07/15/2013  11:44:00       13.155       38.866       13.269       26.812       30.626       25.288      718.897      937.933      639.472        0.208        0.115       41.031       20.496        0.250      349.172       29.405      859.429
07/15/2013  11:45:00       46.982       78.966       -4.106       41.187       50.102       36.218     1696.381     2510.212     1311.729        0.699        0.276       91.885       30.630        0.111      348.845       28.839      859.393
07/15/2013  11:46:00       41.886       82.945        4.398       32.573       43.811       31.775     1061.010     1919.444     1009.633        0.632        0.200       92.921       28.323        0.093      348.807       28.773      859.363
07/15/2013  11:47:00      104.676       61.038       21.192       54.375       40.668       41.528     2956.597     1653.872     1724.572        1.073        0.317      121.172       30.953        0.065      348.931       28.986      859.348
07/15/2013  11:48:00       52.479       48.783       42.029       53.029       68.085       44.209     2812.074     4635.575     1954.430        0.815        0.470       71.651       16.846        0.055      349.242       29.526      859.319
07/15/2013  11:49:00      129.393      116.667       66.557       75.353       58.057       57.980     5678.015     3370.628     3361.719        2.359        0.621      174.224       42.570        0.060      348.674       28.540      859.309
07/15/2013  11:50:00      120.534       92.262       33.741       60.134       37.752       64.281     3616.050     1425.223     4132.049        1.667        0.459      151.792       27.889        0.034      348.715       28.613      859.304
07/15/2013  11:51:00      147.010      122.791       24.006       72.023       51.540       45.478     5187.348     2656.405     2068.291        2.359        0.496      191.546       13.719        0.005      348.818       28.790      859.288
07/15/2013  11:52:00      140.798      118.100       13.748       92.947       47.937       56.770     8639.179     2297.921     3222.778        2.406        0.708      183.771       30.688        0.028      348.638       28.478      859.281
07/15/2013  11:53:00      152.104      142.650       99.319       96.824       81.800       86.406     9374.802     6691.259     7466.060        3.844        1.177      208.530       69.167        0.110      348.569       28.357      859.269
07/15/2013  11:54:00      135.192       96.394       41.409       71.863       46.445       46.723     5164.286     2157.150     2183.040        1.939        0.475      166.038       23.720        0.020      348.365       28.005      859.282
07/15/2013  11:55:00        9.872      126.355       -9.325       32.244       72.340       28.042     1039.697     5233.101      786.356        1.160        0.353      126.740       35.734        0.079      348.515       28.267      859.281
07/15/2013  11:56:00       -9.385       59.710       12.867       17.178       68.910       27.858      295.092     4748.539      776.055        0.482        0.291       60.443       38.048        0.396      348.985       29.082      859.289
07/15/2013  11:57:00       77.307       60.643       36.435       43.072       39.217       26.716     1855.230     1537.969      713.736        0.754        0.205       98.254       16.501        0.028      348.626       28.459      859.287
07/15/2013  11:58:00       19.939       13.291       32.460       39.415       51.086       29.692     1553.536     2609.821      881.592        0.334        0.252       23.963       10.755        0.201      348.824       28.803      859.292
07/15/2013  11:59:00       19.708       55.922       11.686       31.130       27.888       26.601      969.065      777.736      707.614        0.305        0.123       59.293       17.376        0.086      348.855       28.855      859.303
07/15/2013  12:00:00       36.518        0.117        3.106       39.042       31.029       21.871     1524.304      962.781      478.320        0.215        0.148       36.518       11.838        0.105      348.764       28.699      859.293
07/15/2013  12:01:00       45.115        1.337       22.371       34.703       60.498       34.050     1204.309     3659.991     1159.381        0.428        0.301       45.134       26.926        0.356      348.844       28.838      859.291
07/15/2013  12:02:00       78.274       46.911       58.226       58.855       89.526       65.397     3463.902     8014.981     4276.704        1.373        0.788       91.255       58.791        0.415      348.870       28.881      859.286
07/15/2013  12:03:00       26.101       31.074       18.388       52.356       58.759       32.906     2741.141     3452.658     1082.792        0.463        0.364       40.581       17.121        0.178      348.863       28.869      859.291
07/15/2013  12:04:00       22.322       33.006       82.838       48.008       84.613       39.681     2304.748     7159.327     1574.572        0.974        0.552       39.845       46.299        1.350      348.969       29.053      859.277
07/15/2013  12:05:00       15.269       16.319       68.423       34.321       65.182       46.689     1177.955     4248.740     2179.841        0.639        0.380       22.348       40.839        3.339      348.782       28.730      859.276
07/15/2013  12:06:00       67.604      -73.377       24.958       60.634       79.842       60.189     3676.527     6374.793     3622.680        1.212        0.684       99.772       59.987        0.361      348.908       28.948      859.282
07/15/2013  12:07:00       92.565     -131.091       -7.289       41.108       34.810       28.860     1689.882     1211.719      832.883        1.477        0.187      160.477       21.229        0.017      348.397       28.062      859.286
07/15/2013  12:08:00       23.567        6.035       30.365       36.977       67.637       28.188     1367.297     4574.697      794.584        0.412        0.337       24.328       23.923        0.967      348.616       28.442      859.290
07/15/2013  12:09:00       35.510       -9.628       10.499       29.984       22.829       26.036      899.019      521.183      677.867        0.178        0.105       36.792       10.339        0.079      348.624       28.457      859.288
07/15/2013  12:10:00       71.618       77.943       74.177       57.679       72.989       54.555     3326.897     5327.390     2976.194        1.417        0.582      105.850       46.682        0.194      348.696       28.581      859.283
07/15/2013  12:11:00       16.717        9.243       44.721       33.482       48.992       31.121     1121.044     2400.180      968.523        0.343        0.224       19.103       27.154        2.021      349.247       29.535      859.293
07/15/2013  12:12:00       80.678       45.231       59.550       65.590       62.841       46.300     4302.009     3948.952     2143.719        1.125        0.520       92.492       31.573        0.117      348.845       28.838      859.277
07/15/2013  12:13:00       77.742       63.564       47.365       40.316       51.489       39.863     1625.416     2651.118     1589.044        0.910        0.293      100.420       22.983        0.052      348.766       28.702      859.274
07/15/2013  12:14:00       51.383       66.320       47.694       47.946       48.034       42.032     2298.774     2307.244     1766.681        0.784        0.319       83.896       35.488        0.179      348.914       28.958      859.264
07/15/2013  12:15:00       13.282       17.483       35.132       46.846       39.644       28.095     2194.522     1571.618      789.321        0.313        0.228       21.956       22.521        1.052      348.960       29.038      859.248
07/15/2013  12:16:00       31.750      -48.429        1.846       28.657       36.922       27.367      821.225     1363.208      748.939        0.314        0.147       57.909       20.910        0.130      348.328       27.944      859.220
07/15/2013  12:17:00        7.565      -69.962      -15.646       19.023       21.756       17.708      361.870      473.331      313.574        0.317        0.057       70.370       13.369        0.036      348.387       28.046      859.208
07/15/2013  12:18:00       -9.611      -10.217       -9.428       49.989       31.012       23.525     2498.882      961.717      553.419        0.215        0.201       14.027       21.214        2.287      349.053       29.199      859.185
07/15/2013  12:19:00       -9.807      -25.399        0.341       53.208       37.351       28.908     2831.105     1395.102      835.667        0.290        0.253       27.226       22.487        0.682      349.125       29.325      859.163
07/15/2013  12:20:00     -100.807       27.401      -18.825       23.485       36.871       22.649      551.550     1359.482      512.965        0.685        0.121      104.465       19.351        0.034      348.511       28.262      859.143
07/15/2013  12:21:00      -20.039       35.433       38.163       27.651       25.150       26.405      764.590      632.509      697.206        0.260        0.105       40.707       14.298        0.123      349.739       30.388      859.117
07/15/2013  12:22:00       -2.904        7.198       29.378       32.674       18.732       21.816     1067.560      350.881      475.952        0.141        0.095        7.762       17.029        4.813      350.066       30.956      859.104
07/15/2013  12:23:00      150.875       50.603       59.590      125.449      104.737       68.886    15737.455    10969.831     4745.228        3.016        1.573      159.135       67.506        0.180      349.181       29.420      859.105
07/15/2013  12:24:00      201.328      138.670       80.250       93.147       69.859       68.664     8676.372     4880.341     4714.807        4.223        0.914      244.463       58.127        0.057      349.023       29.141      859.085
07/15/2013  12:25:00      242.830      164.059       35.818       75.136       60.942       53.645     5645.443     3713.895     2877.759        4.970        0.612      293.055       41.231        0.020      348.789       28.737      859.099
07/15/2013  12:26:00      146.057       67.860        7.800       93.981       61.412       56.449     8832.389     3771.483     3186.519        2.089        0.790      161.051       39.898        0.061      348.955       29.026      859.106
07/15/2013  12:27:00      -34.752       -5.681        5.121       37.601       22.563       27.809     1413.798      509.092      773.358        0.198        0.135       35.214       25.860        0.539      349.099       29.277      859.086
07/15/2013  12:28:00      -68.750        6.290        2.745       66.422       65.778       40.479     4411.902     4326.768     1638.523        0.757        0.519       69.037       29.939        0.188      349.114       29.306      859.070
07/15/2013  12:29:00       15.248        5.980        3.628       27.679       30.682       20.317      766.106      941.410      412.772        0.120        0.106       16.379        9.765        0.355      348.956       29.032      859.072
07/15/2013  12:30:00       68.131       52.351       20.149       61.835       44.429       41.202     3823.560     1973.893     1697.587        0.764        0.375       85.921       28.731        0.112      349.423       29.841      859.066
07/15/2013  12:31:00       41.769       44.042       20.825       38.231       34.036       32.186     1461.573     1158.452     1035.970        0.389        0.183       60.699       14.140        0.054      349.602       30.151      859.052
07/15/2013  12:32:00       37.368      -11.149       22.237       54.613       48.267       35.780     2982.525     2329.675     1280.237        0.430        0.330       38.995       39.501        1.026      349.138       29.348      859.040
07/15/2013  12:33:00       55.684     -110.504        1.735       73.261       66.440       52.261     5367.219     4414.290     2731.226        1.391        0.626      123.741       38.708        0.098      349.386       29.774      859.014
07/15/2013  12:34:00      100.781      -29.103       29.865       55.735       49.260       46.274     3106.356     2426.543     2141.320        0.978        0.384      104.899       33.349        0.101      349.189       29.435      859.012
07/15/2013  12:35:00       63.565      -95.367        2.047       59.600       68.301       38.512     3552.180     4664.964     1483.194        1.142        0.485      114.610       26.420        0.053      349.073       29.234      859.014
07/15/2013  12:36:00       14.236      -39.595        1.677       30.588       41.056       25.716      935.645     1685.617      661.320        0.253        0.164       42.077       24.397        0.336      349.233       29.512      858.991
07/15/2013  12:37:00       10.408       16.670       31.138       34.768       30.736       28.484     1208.796      944.709      811.353        0.216        0.148       19.652       13.899        0.500      349.584       30.120      858.966
07/15/2013  12:38:00       48.811      -65.450        0.977       34.707       68.489       30.609     1204.593     4690.718      936.908        0.675        0.342       81.647       29.981        0.135      348.984       29.080      858.955
07/15/2013  12:39:00        1.169       14.042       24.684       33.924       41.753       35.559     1150.845     1743.273     1264.459        0.248        0.208       14.091       22.414        2.530      349.978       30.804      858.941
07/15/2013  12:40:00       28.638        7.201       30.596       78.961       76.149       44.819     6234.829     5798.735     2008.723        0.792        0.702       29.529       34.596        1.373      349.706       30.332      858.943
07/15/2013  12:41:00       53.216      -15.443        5.504       37.346       59.203       37.270     1394.699     3505.032     1389.044        0.469        0.314       55.411       39.908        0.519      349.421       29.838      858.919
07/15/2013  12:42:00      172.817      123.280       44.731       75.186       60.756       52.798     5652.864     3691.346     2787.609        2.960        0.607      212.282       34.078        0.026      349.166       29.392      858.904
07/15/2013  12:43:00       99.823       -7.217       17.273       93.180       64.778       40.370     8682.589     4196.174     1629.740        1.241        0.725      100.083       22.581        0.051      349.189       29.434      858.864
07/15/2013  12:44:00      122.982       81.466       56.591       72.873       75.748       69.683     5310.465     5737.746     4855.770        2.043        0.795      147.516       49.672        0.113      349.713       30.341      858.836
07/15/2013  12:45:00      213.255      129.062       30.854      134.154       66.450       65.189    17997.384     4415.571     4249.569        4.487        1.333      249.268       44.306        0.032      349.222       29.489      858.840
07/15/2013  12:46:00      161.323      116.183       48.196       77.823       71.676       61.836     6056.379     5137.477     3823.747        2.843        0.751      198.806       37.958        0.036      349.386       29.774      858.846
07/15/2013  12:47:00      145.962       91.075       39.171       72.798       53.905       48.151     5299.539     2905.745     2318.539        2.083        0.526      172.046       27.310        0.025      349.401       29.800      858.855
07/15/2013  12:48:00      107.714       68.361       26.898       63.766       55.618       45.790     4066.116     3093.394     2096.750        1.313        0.463      127.576       32.798        0.066      349.540       30.043      858.850
07/15/2013  12:49:00       59.834       73.578       -9.740       88.047       62.102       28.798     7752.301     3856.602      829.346        1.076        0.622       94.836       15.635        0.027      348.940       29.002      858.845
07/15/2013  12:50:00      -16.256       19.797       30.848       44.090       43.163       24.196     1943.964     1863.070      585.451        0.300        0.220       25.616       26.976        1.109      349.935       30.730      858.839
07/15/2013  12:51:00       30.293       25.701        9.886       66.757       55.727       33.063     4456.494     3105.551     1093.160        0.516        0.433       39.727       15.040        0.143      349.549       30.059      858.833
07/15/2013  12:52:00       63.124      -95.209        7.394       80.445       35.627       41.846     6471.474     1269.263     1751.091        1.130        0.475      114.234       40.277        0.124      348.743       28.661      858.810
07/15/2013  12:53:00       -7.955       14.270       37.289       19.994       35.533       16.202      399.765     1262.575      262.515        0.179        0.096       16.337       10.754        0.433      349.772       30.446      858.808
07/15/2013  12:54:00       22.783      -18.320       25.476       29.229       31.113       26.414      854.312      967.994      697.716        0.201        0.126       29.235        5.145        0.031      349.772       30.448      858.788
07/15/2013  12:55:00        1.168      -17.185       15.773       30.706       39.797       30.227      942.835     1583.771      913.668        0.199        0.172       17.225       21.952        1.624      349.689       30.302      858.761
07/15/2013  12:56:00      -45.605       27.020        9.088       40.461       21.696       23.534     1637.081      470.709      553.847        0.278        0.133       53.009        7.276        0.019      349.496       29.967      858.730
07/15/2013  12:57:00      -51.238      -21.180      -15.088       46.252       40.658       30.515     2139.234     1653.088      931.137        0.401        0.236       55.443       26.806        0.234      349.554       30.067      858.707
07/15/2013  12:58:00        7.198      -27.290       25.253       43.776       46.908       36.824     1916.312     2200.332     1355.978        0.345        0.274       28.223       33.016        1.369      350.013       30.866      858.700
07/15/2013  12:59:00       -5.587      -14.592       47.852       26.467       60.075       29.097      700.476     3609.048      846.646        0.384        0.258       15.625       12.562        0.646      350.082       30.986      858.675
07/15/2013  13:00:00        9.189       11.944       39.387       33.723       56.162       42.202     1137.244     3154.127     1781.029        0.392        0.304       15.070       40.904        7.368      349.664       30.257      858.661
07/15/2013  13:01:00       56.618      -88.077        4.899       78.729       93.232       50.917     6198.283     8692.290     2592.579        1.423        0.874      104.705       56.929        0.296      349.706       30.330      858.648
07/15/2013  13:02:00       66.953      -89.677        4.891       72.755      100.695       55.333     5293.352    10139.496     3061.746        1.552        0.925      111.913       58.303        0.271      349.583       30.114      858.626
07/15/2013  13:03:00       91.932     -101.310        0.219       77.215       88.402       65.384     5962.081     7814.941     4275.077        1.838        0.903      136.803       58.778        0.185      349.613       30.169      858.616
07/15/2013  13:04:00       76.482     -137.107       11.306       89.507      132.805       80.222     8011.589    17637.290     6435.587        2.842        1.604      156.997       82.405        0.276      349.647       30.228      858.581
07/15/2013  13:05:00       62.738     -190.843      -32.827       84.845       74.650       65.098     7198.656     5572.610     4237.706        2.922        0.850      200.891       41.479        0.043      349.381       29.765      858.588
07/15/2013  13:06:00      119.930     -238.366      -27.660       85.082      112.316       66.776     7238.990    12614.857     4459.041        4.813        1.216      266.836       63.222        0.056      349.311       29.640      858.567
07/15/2013  13:07:00       99.097     -214.583        5.746       79.462      127.661       58.513     6314.158    16297.295     3423.744        4.096        1.302      236.360       65.671        0.077      349.243       29.522      858.586
07/15/2013  13:08:00       53.369      -63.202       10.060       46.552       95.532       52.606     2167.126     9126.319     2767.387        1.050        0.703       82.721       61.775        0.558      349.376       29.759      858.583
07/15/2013  13:09:00       11.616      -47.119       37.495       37.520       78.729       34.312     1407.747     6198.187     1177.338        0.627        0.439       48.530       38.060        0.615      349.782       30.463      858.544
07/15/2013  13:10:00       57.048     -173.995      -24.165       55.382       47.920       28.731     3067.130     2296.282      825.458        2.015        0.309      183.108       22.762        0.015      349.235       29.514      858.539
07/15/2013  13:11:00       24.003      -50.388        9.565       50.255       56.139       33.800     2525.546     3151.572     1142.409        0.501        0.341       55.813       30.452        0.298      349.708       30.335      858.522
07/15/2013  13:12:00      -20.751      -32.470       -5.668       34.414       46.110       37.117     1184.327     2126.174     1377.685        0.310        0.234       38.535       30.725        0.636      349.603       30.154      858.486
07/15/2013  13:13:00      -20.684        7.055       30.509       48.020       32.499       19.125     2305.959     1056.187      365.773        0.257        0.186       21.854       13.962        0.408      350.215       31.215      858.470
07/15/2013  13:14:00       13.848      -25.074       11.661       51.109       42.842       32.800     2612.118     1835.403     1075.824        0.324        0.276       28.644       31.601        1.217      349.543       30.049      858.471
07/15/2013  13:15:00       53.059      -58.542       15.968       46.523       46.916       36.456     2164.355     2201.110     1329.011        0.609        0.285       79.009       35.571        0.203      349.511       29.994      858.449
07/15/2013  13:16:00       38.351      -85.216       16.354       50.786       76.046       42.646     2579.188     5783.054     1818.692        0.959        0.509       93.448       33.428        0.128      349.781       30.461      858.430
07/15/2013  13:17:00       90.539      -61.297       43.908       65.054       71.991       57.557     4231.972     5182.646     3312.843        1.330        0.636      109.337       53.774        0.242      348.979       29.071      858.425
07/15/2013  13:18:00       62.162      -17.304       36.638       50.287       83.286       44.768     2528.738     6936.608     2004.165        0.849        0.573       64.525       46.475        0.519      349.042       29.179      858.414
07/15/2013  13:19:00       77.422       16.998       68.757       51.127       84.911       56.239     2613.970     7209.852     3162.873        1.200        0.649       79.266       59.879        0.571      349.520       30.008      858.424
07/15/2013  13:20:00       18.022      -71.677       11.374       27.592       53.382       38.858      761.345     2849.616     1509.975        0.536        0.256       73.908       40.589        0.302      349.403       29.807      858.422
07/15/2013  13:21:00        6.704       50.037        0.777       45.831       61.995       37.308     2100.524     3843.347     1391.854        0.494        0.367       50.484       40.896        0.656      349.529       30.026      858.410
07/15/2013  13:22:00        9.340       69.171        0.498       39.852       50.093       30.387     1588.194     2509.348      923.364        0.495        0.251       69.799       29.174        0.175      349.914       30.693      858.387
07/15/2013  13:23:00       85.666       55.116       26.297       32.176       28.158       38.527     1035.303      792.847     1484.335        0.719        0.166      101.865       12.277        0.015      349.380       29.767      858.366
07/15/2013  13:24:00       96.618       42.440       34.649       71.957       47.719       40.439     5177.743     2277.106     1635.287        1.071        0.455      105.528       30.550        0.084      349.445       29.877      858.344
07/15/2013  13:25:00       55.524       37.004       27.182       59.156       32.583       29.354     3499.491     1061.650      861.682        0.531        0.271       66.725       26.351        0.156      349.739       30.389      858.317
07/15/2013  13:26:00      135.634       85.966       18.790       93.332       70.056       41.367     8710.836     4907.831     1711.220        2.073        0.766      160.583       31.067        0.037      349.769       30.440      858.289
07/15/2013  13:27:00       72.781       90.647        8.105       95.464       74.119       45.504     9113.377     5493.661     2070.625        1.513        0.834      116.249       37.061        0.102      350.236       31.250      858.278
07/15/2013  13:28:00       87.103       69.855       38.794       85.175       74.416       42.784     7254.826     5537.685     1830.473        1.429        0.731      111.654       26.986        0.058      350.017       30.869      858.256
07/15/2013  13:29:00       19.403       -9.122       20.078       35.062       65.970       25.178     1229.377     4352.092      633.928        0.354        0.311       21.440       17.570        0.672      350.041       30.912      858.238
07/15/2013  13:30:00       62.658       31.473       23.008       43.888       59.305       38.378     1926.147     3517.043     1472.877        0.618        0.346       70.119       23.741        0.115      349.976       30.800      858.222
07/15/2013  13:31:00      125.354       67.034       29.689       88.107       77.972       54.574     7762.829     6079.637     2978.293        1.895        0.841      142.152       31.416        0.049      349.893       30.653      858.217
07/15/2013  13:32:00      141.527      136.955       25.435       88.776       77.619       69.512     7881.209     6024.667     4831.978        2.908        0.937      196.943       47.676        0.059      349.884       30.636      858.190
07/15/2013  13:33:00      128.437      152.825       -6.991       70.354       52.895       45.577     4949.712     2797.860     2077.238        2.486        0.491      199.629       28.281        0.020      349.663       30.254      858.198
07/15/2013  13:34:00       48.511       83.507       19.076       51.141       46.715       38.502     2615.434     2182.256     1482.367        0.798        0.314       96.575       27.236        0.080      349.812       30.516      858.197
07/15/2013  13:35:00       13.644        2.531       16.004       45.464       67.099       42.654     2066.933     4502.277     1819.390        0.442        0.419       13.877       32.912        5.625      349.623       30.186      858.163
07/15/2013  13:36:00       51.373      -21.133       15.685       51.558       39.713       48.500     2658.207     1577.086     2352.232        0.496        0.329       55.550       25.265        0.207      349.789       30.476      858.142
07/15/2013  13:37:00       19.628       59.294       55.258       55.693       43.520       38.019     3101.713     1893.994     1445.474        0.670        0.322       62.459       28.855        0.213      349.970       30.789      858.116
07/15/2013  13:38:00       71.861       42.287       45.145       84.492       62.083       55.196     7138.883     3854.330     3046.596        1.151        0.702       83.380       46.019        0.305      350.067       30.956      858.088
07/15/2013  13:39:00      165.006       85.952       43.210       91.419       70.505       66.946     8357.523     4970.961     4481.806        2.714        0.891      186.050       52.746        0.080      349.825       30.535      858.078
07/15/2013  13:40:00      163.486      123.684       23.634       82.836       77.866       63.896     6861.806     6063.079     4082.640        2.979        0.850      205.001       34.218        0.028      349.817       30.520      858.099
07/15/2013  13:41:00       74.715      -24.259       15.437       76.115       51.153       35.896     5793.434     2616.636     1288.500        0.805        0.485       78.555       39.258        0.250      349.311       29.645      858.090
07/15/2013  13:42:00       41.230       -3.519       41.674       53.114       61.943       36.288     2821.108     3836.933     1316.814        0.571        0.399       41.380       41.443        1.003      349.014       29.131      858.048
07/15/2013  13:43:00       47.458       -5.218       20.638       46.945       30.640       31.161     2203.823      938.805      970.985        0.341        0.206       47.744       19.968        0.175      349.610       30.164      858.021
07/15/2013  13:44:00       70.292     -110.085       25.751       83.680       92.656       62.872     7002.301     8585.098     3952.914        1.863        0.977      130.613       70.541        0.292      349.712       30.341      857.978
07/15/2013  13:45:00       69.418      -57.980       25.797       74.595       89.696       64.793     5564.451     8045.299     4198.171        1.332        0.890       90.446       71.467        0.624      350.054       30.935      857.972
07/15/2013  13:46:00        7.458       12.687       52.012       40.809       58.090       31.920     1665.414     3374.467     1018.889        0.449        0.303       14.717       22.769        2.394      350.034       30.900      857.976
07/15/2013  13:47:00       36.577       -5.299       49.391       61.389       68.193       50.055     3768.566     4650.308     2505.463        0.736        0.546       36.959       26.668        0.521      350.355       31.458      857.956
07/15/2013  13:48:00       76.742       89.562       17.910       74.085       63.281       43.385     5488.553     4004.507     1882.231        1.280        0.569      117.943       28.518        0.058      349.793       30.483      857.943
07/15/2013  13:49:00       50.882       33.477       28.110       60.940       43.906       34.358     3713.708     1927.752     1180.493        0.566        0.341       60.907       17.205        0.080      350.041       30.914      857.947
07/15/2013  13:50:00      112.251       81.280       25.820       67.471       54.048       36.156     4552.304     2921.173     1307.250        1.433        0.439      138.588       15.926        0.013      349.807       30.506      857.952
07/15/2013  13:51:00        7.625      153.589        3.213       76.202       89.004       56.937     5806.722     7921.745     3241.769        2.031        0.849      153.778       57.697        0.141      349.880       30.631      857.943
07/15/2013  13:52:00        7.571       75.272        1.198       34.360       63.163       44.520     1180.578     3989.525     1982.057        0.644        0.358       75.652       38.453        0.258      349.916       30.697      857.932
07/15/2013  13:53:00       93.773      126.260       10.662       75.549       76.355       58.661     5707.680     5830.078     3441.078        1.991        0.749      157.273       52.287        0.111      349.987       30.817      857.915
07/15/2013  13:54:00       59.322       30.175       17.363       73.047       84.470       42.002     5335.845     7135.247     1764.135        0.948        0.712       66.555       32.153        0.233      349.892       30.655      857.908
07/15/2013  13:55:00       78.466      120.393      149.613       84.266      126.515       82.660     7100.794    16005.982     6832.613        3.648        1.497      143.706       87.838        0.374      349.583       30.115      857.863
07/15/2013  13:56:00       57.381      -39.107       52.771       80.714      119.237       61.485     6514.753    14217.360     3780.437        1.605        1.226       69.441       73.823        1.130      349.372       29.750      857.875
07/15/2013  13:57:00      -34.091      -63.374       -0.377       28.650       27.088       22.959      820.833      733.735      527.095        0.363        0.104       71.962       14.725        0.042      349.771       30.444      857.885
07/15/2013  13:58:00      -69.073        9.766       -0.256       51.269       43.530       29.964     2628.487     1894.861      897.863        0.514        0.271       69.760       26.442        0.144      350.212       31.211      857.888
07/15/2013  13:59:00     -138.328       -7.079        3.602      112.805       73.306       45.380    12724.873     5373.705     2059.335        1.967        1.008      138.509       45.406        0.107      350.448       31.619      857.881
07/15/2013  14:00:00     -196.030      -93.326      -12.089       66.300       59.195       38.086     4395.704     3504.018     1450.534        2.832        0.468      217.111       28.531        0.017      349.961       30.770      857.860
07/15/2013  14:01:00     -322.107      -28.221      -29.349      153.681       97.421       59.835    23617.964     9490.836     3580.263        7.104        1.834      323.341       73.774        0.052      350.186       31.162      857.841
07/15/2013  14:02:00     -113.557      -24.525       14.537      125.788       82.189       48.350    15822.626     6754.971     2337.716        1.931        1.246      116.176       59.679        0.264      350.272       31.312      857.826
07/15/2013  14:03:00     -104.665       -0.863       -9.619       54.165       83.738       29.821     2933.796     7012.075      889.289        1.094        0.542      104.669       13.637        0.017      350.284       31.334      857.795
07/15/2013  14:04:00     -196.102      -35.166      -26.181      124.822      105.270       39.936    15580.486    11081.842     1594.911        3.431        1.413      199.230       32.455        0.027      350.367       31.478      857.771
07/15/2013  14:05:00     -494.679     -164.803      -19.914      123.796      110.877       60.169    15325.335    12293.784     3620.355       15.175        1.562      521.409       52.673        0.010      349.804       30.495      857.750
07/15/2013  14:06:00     -225.012     -128.756       10.708      159.169       99.866       56.887    25334.831     9973.255     3236.176        5.293        1.927      259.246       66.184        0.065      350.092       30.998      857.761
07/15/2013  14:07:00     -144.248      -82.283        1.025       80.453       95.030       55.191     6472.711     9030.650     3046.039        2.306        0.927      166.067       49.547        0.089      350.291       31.346      857.753
07/15/2013  14:08:00      -80.889       33.098       -4.286       71.594       61.637       45.943     5125.728     3799.084     2110.725        0.934        0.552       87.398       31.496        0.130      350.430       31.590      857.772
07/15/2013  14:09:00      -62.162       68.724        1.281       72.735       67.503       43.806     5290.430     4556.691     1918.983        1.018        0.588       92.667       30.092        0.105      350.136       31.078      857.747
07/15/2013  14:10:00       26.351      114.243        2.691       36.188       99.308       39.844     1309.545     9862.083     1587.543        1.325        0.638      117.242       47.627        0.165      350.079       30.979      857.700
07/15/2013  14:11:00        0.210      231.947      -17.954       63.952       95.046       37.589     4089.860     9033.800     1412.944        3.433        0.727      231.948       40.693        0.031      350.042       30.912      857.671
07/15/2013  14:12:00        4.327      115.630       -8.892       75.139       62.778       33.892     5645.807     3941.066     1148.701        1.210        0.537      115.711       26.215        0.051      350.223       31.229      857.633
07/15/2013  14:13:00      -71.403       88.494       -1.369       59.154       49.203       35.961     3499.227     2420.948     1293.188        1.007        0.361      113.708       34.767        0.093      350.674       32.014      857.630
07/15/2013  14:14:00     -370.179      -19.418      -16.377      156.318      136.005       65.637    24435.212    18497.398     4308.169        9.245        2.362      370.688       63.242        0.029      350.286       31.336      857.593
07/15/2013  14:15:00     -180.062      -80.972        1.045      195.912      133.401       77.548    38381.500    17795.886     6013.674        5.057        3.110      197.430      100.571        0.259      350.383       31.507      857.602
07/15/2013  14:16:00     -142.819      -29.066        0.083       75.317       59.061       42.469     5672.587     3488.240     1803.603        1.610        0.548      145.746       38.213        0.069      350.566       31.824      857.593
07/15/2013  14:17:00     -216.531      -84.682       -9.018      132.150       91.106       42.008    17463.589     8300.284     1764.708        4.083        1.376      232.501       40.962        0.031      350.607       31.895      857.580
07/15/2013  14:18:00     -113.782     -175.553       18.925      160.788      112.967       72.447    25852.743    12761.619     5248.599        4.398        2.193      209.201       82.185        0.154      350.381       31.501      857.575
07/15/2013  14:19:00     -105.471     -250.474        9.079       94.023      106.102       64.001     8840.415    11257.576     4096.137        4.906        1.210      271.774       55.095        0.041      350.068       30.956      857.602
07/15/2013  14:20:00      -50.270     -144.494      -12.510       45.250       67.157       34.938     2047.534     4510.108     1220.652        1.567        0.389      152.989       18.190        0.014      350.030       30.891      857.579
07/15/2013  14:21:00     -201.020     -137.782       -0.569       91.143       76.056       46.075     8306.999     5784.447     2122.927        3.780        0.811      243.707       35.572        0.021      350.161       31.119      857.569
07/15/2013  14:22:00     -177.650     -126.577       -6.912      102.734       70.532       51.457    10554.320     4974.719     2647.860        3.290        0.909      218.131       53.575        0.060      349.925       30.707      857.574
07/15/2013  14:23:00       65.832      -46.157       38.564       54.940       37.893       30.965     3018.362     1435.875      958.848        0.668        0.271       80.401       20.115        0.063      350.236       31.251      857.543
07/15/2013  14:24:00      -78.223      -86.142       18.208      104.301       69.201       32.813    10878.600     4788.778     1076.721        1.530        0.837      116.358       38.862        0.112      350.235       31.250      857.519
07/15/2013  14:25:00      -41.840      -68.009       39.597       91.098       69.755       45.716     8298.909     4865.729     2089.917        1.160        0.763       79.848       50.044        0.393      350.590       31.868      857.502
07/15/2013  14:26:00     -157.112     -114.555       29.214      189.707      136.247       66.689    35988.643    18563.324     4447.469        4.882        2.950      194.440       98.438        0.256      350.511       31.728      857.481
07/15/2013  14:27:00     -180.538      -63.822        3.998       99.121       97.502       59.370     9825.029     9506.646     3524.748        2.977        1.143      191.487       56.542        0.087      350.259       31.289      857.474
07/15/2013  14:28:00     -110.469      -25.755        3.516      116.907       81.403       46.646    13667.156     6626.468     2175.855        1.767        1.123      113.431       57.743        0.259      350.581       31.850      857.465
07/15/2013  14:29:00     -207.716      -38.681        1.707      118.909       80.523       52.154    14139.459     6483.940     2720.016        3.399        1.167      211.287       45.548        0.046      350.323       31.402      857.445
07/15/2013  14:30:00     -187.816      -68.524      -10.580      146.048       70.058       46.542    21330.100     4908.179     2166.132        3.424        1.420      199.926       58.519        0.086      350.435       31.596      857.429
07/15/2013  14:31:00      -99.654      -67.853       15.731      115.057       92.151       60.691    13238.047     8491.763     3683.434        2.009        1.271      120.561       51.531        0.183      350.721       32.094      857.411
07/15/2013  14:32:00     -133.907      -66.652       14.304      143.057       89.498       53.923    20465.288     8009.914     2907.674        2.697        1.569      149.578       61.779        0.171      350.784       32.204      857.421
07/15/2013  14:33:00     -307.855     -105.625      -37.045       95.863       96.521       44.314     9189.787     9316.242     1963.761        6.388        1.023      325.471       33.624        0.011      350.047       30.919      857.419
07/15/2013  14:34:00     -162.106      -48.893        4.070      101.416       60.693       44.622    10285.116     3683.631     1991.139        2.232        0.798      169.319       51.640        0.093      350.476       31.665      857.429
07/15/2013  14:35:00      -62.429      -87.921       -4.203       53.268       54.328       36.615     2837.431     2951.515     1340.680        0.939        0.356      107.831       20.795        0.037      350.538       31.776      857.442
07/15/2013  14:36:00      -65.452      -15.385        8.351       51.068       31.326       25.901     2607.987      981.314      670.887        0.442        0.213       67.236       23.003        0.117      350.725       32.102      857.432
07/15/2013  14:37:00       61.480       -0.643       12.050       53.916       44.964       40.161     2906.893     2021.792     1612.907        0.523        0.327       61.484       27.131        0.195      350.004       30.851      857.409
07/15/2013  14:38:00       47.452       55.028       24.740       44.166       40.461       42.845     1950.615     1637.096     1835.657        0.566        0.271       72.662       25.569        0.124      349.977       30.802      857.387
07/15/2013  14:39:00       47.908       30.016       -1.361       44.917       36.347       32.265     2017.555     1321.110     1041.026        0.379        0.219       56.534       20.261        0.128      350.313       31.385      857.371
07/15/2013  14:40:00      -50.985      -11.484       13.025       60.649       36.834       31.123     3678.312     1356.710      968.653        0.445        0.300       52.262       15.972        0.093      350.737       32.123      857.362
07/15/2013  14:41:00      -76.812      -27.840       15.596       68.397       47.313       39.630     4678.116     2238.508     1570.503        0.770        0.424       81.702       41.164        0.254      350.622       31.922      857.335
07/15/2013  14:42:00     -119.849      -26.260       -7.476       71.235       52.438       33.172     5074.442     2749.701     1100.375        1.202        0.446      122.692       21.601        0.031      350.422       31.574      857.312
07/15/2013  14:43:00      -38.813      -58.866       13.490       55.733       55.587       42.550     3106.195     3089.887     1810.518        0.658        0.400       70.510       45.395        0.414      350.542       31.784      857.317
07/15/2013  14:44:00      -70.514      -38.715       11.123       88.788       57.961       30.529     7883.377     3359.494      932.005        0.938        0.609       80.443       35.828        0.198      350.674       32.012      857.298
07/15/2013  14:45:00      -80.294      -50.610        0.317      100.263       82.753       48.625    10052.637     6848.097     2364.401        1.413        0.963       94.913       51.878        0.299      350.748       32.141      857.281
07/15/2013  14:46:00     -252.012      -34.234      -27.934       65.314       58.861       37.154     4265.893     3464.564     1380.393        3.728        0.456      254.327       33.055        0.017      350.170       31.133      857.270
07/15/2013  14:47:00     -178.622      -72.362      -11.560       53.237       51.921       35.639     2834.147     2695.782     1270.150        2.204        0.340      192.722       21.252        0.012      350.338       31.426      857.267
07/15/2013  14:48:00     -154.847      -67.656       -1.118      100.609       68.455       55.941    10122.081     4686.143     3129.406        2.324        0.897      168.982       62.243        0.136      350.647       31.964      857.276
07/15/2013  14:49:00     -220.522      -40.326       -8.232      127.034       75.831       42.810    16137.688     5750.383     1832.676        3.702        1.186      224.179       37.956        0.029      350.551       31.798      857.248
07/15/2013  14:50:00     -278.994     -114.544       -8.078       94.125      134.964       49.465     8859.465    18215.311     2446.780        6.027        1.476      301.593       54.413        0.033      350.248       31.268      857.216
07/15/2013  14:51:00     -199.201     -120.551        2.722      124.460       69.370       42.985    15490.301     4812.227     1847.739        3.818        1.108      232.838       46.315        0.040      350.537       31.773      857.212
07/15/2013  14:52:00      -90.871     -199.518        6.208       84.368      105.278       58.632     7117.905    11083.481     3437.763        3.487        1.082      219.237       42.951        0.038      350.444       31.610      857.212
07/15/2013  14:53:00     -139.824     -172.651       -5.026       97.202       80.803       45.965     9448.152     6529.070     2112.815        3.373        0.905      222.169       41.686        0.035      350.211       31.203      857.203
07/15/2013  14:54:00      -53.247     -129.798       12.728       98.935       77.410       57.704     9788.141     5992.328     3329.713        1.947        0.956      140.295       49.487        0.124      350.450       31.623      857.195
07/15/2013  14:55:00       71.938     -276.293      -31.127      110.854      103.894       71.491    12288.586    10794.010     5110.899        5.533        1.410      285.505       56.108        0.039      350.256       31.284      857.201
07/15/2013  14:56:00      -28.581     -309.479       -7.220       57.602      111.320       49.239     3317.990    12392.080     2424.523        5.739        0.907      310.796       17.811        0.003      349.982       30.806      857.257
07/15/2013  14:57:00       -4.902      -67.283       16.034       46.058       79.667       33.593     2121.357     6346.873     1128.517        0.720        0.480       67.461       40.611        0.362      350.486       31.687      857.226
07/15/2013  14:58:00       19.310       13.027       31.256       49.427       31.281       24.171     2443.026      978.519      584.234        0.276        0.200       23.293       12.046        0.267      350.426       31.583      857.184
07/15/2013  14:59:00       45.070       23.583       25.996       41.294       23.657       28.678     1705.207      559.650      822.424        0.317        0.154       50.867       26.764        0.277      350.247       31.271      857.157
07/15/2013  15:00:00       54.965      -20.032       23.789       42.357       34.700       28.872     1794.145     1204.072      833.596        0.391        0.192       58.501       20.848        0.127      350.215       31.214      857.131
07/15/2013  15:01:00      -31.545      -53.441        3.939       47.230       42.800       36.221     2230.628     1831.846     1311.931        0.462        0.269       62.057       25.519        0.169      350.799       32.233      857.099
07/15/2013  15:02:00      -52.000       65.542       -2.159       50.583       50.334       34.982     2558.602     2533.534     1223.741        0.666        0.316       83.664       32.806        0.154      350.784       32.206      857.115
07/15/2013  15:03:00     -175.006      -77.302       -6.645       88.689       62.368       32.560     7865.823     3889.806     1060.174        2.473        0.641      191.319       31.910        0.028      350.619       31.917      857.133
07/15/2013  15:04:00     -348.971      -76.112      -24.138       99.388       94.502       49.993     9877.905     8930.553     2499.323        7.473        1.065      357.174       41.077        0.013      350.511       31.726      857.131
07/15/2013  15:05:00     -209.773      -95.290       -1.598      111.723       96.971       52.308    12482.010     9403.470     2736.160        3.885        1.231      230.402       32.873        0.020      350.587       31.859      857.092
07/15/2013  15:06:00     -290.280     -111.622       -6.208      177.532       94.186       55.993    31517.780     8871.079     3135.240        7.013        2.176      311.001       64.128        0.043      350.598       31.879      857.092
07/15/2013  15:07:00     -385.265     -115.273      -30.193      117.949      147.856       50.002    13912.041    21861.506     2500.188       10.044        1.914      402.140       54.852        0.019      350.210       31.203      857.133
07/15/2013  15:08:00      -72.103      108.469       -8.505      104.927       93.257       47.060    11009.730     8696.873     2214.681        1.947        1.096      130.247       56.037        0.185      350.374       31.489      857.122
07/15/2013  15:09:00        9.036       64.047       19.893       42.804       68.249       44.787     1832.193     4657.929     2005.865        0.654        0.425       64.681       41.077        0.403      350.787       32.211      857.078
07/15/2013  15:10:00       97.740       41.645        3.483       57.227       51.002       41.787     3274.974     2601.182     1746.164        0.946        0.381      106.243       22.548        0.045      350.450       31.624      857.020
07/15/2013  15:11:00      115.690       79.322       33.625       66.050       66.392       46.090     4362.591     4407.891     2124.322        1.585        0.545      140.272       31.479        0.050      350.345       31.441      856.972
07/15/2013  15:12:00      134.825       18.410       63.072       83.523       85.321       60.835     6976.136     7279.673     3700.888        2.022        0.898      136.076       45.016        0.109      350.131       31.068      856.941
07/15/2013  15:13:00       14.533       -5.901       14.061       26.418       33.505       30.475      697.903     1122.601      928.703        0.160        0.137       15.685       17.598        1.259      350.471       31.660      856.924
07/15/2013  15:14:00       33.434      -21.212        7.793       27.398       49.094       40.614      750.642     2410.235     1649.537        0.322        0.241       39.596       29.060        0.539      350.562       31.820      856.945
07/15/2013  15:15:00      -27.664      -61.269       23.476       29.945       76.239       38.883      896.687     5812.368     1511.925        0.664        0.411       67.224       43.559        0.420      350.466       31.650      856.958
07/15/2013  15:16:00      -37.000       16.607       19.320       77.692       53.230       40.533     6036.123     2833.401     1642.952        0.626        0.526       40.556       46.515        1.315      350.447       31.618      856.950
07/15/2013  15:17:00      -15.317       74.506       15.282       49.216       69.992       66.552     2422.250     4898.859     4429.129        0.888        0.588       76.064       42.551        0.313      350.120       31.049      856.880
07/15/2013  15:18:00     -123.485       34.019      -16.381       87.424       67.669       39.818     7642.880     4579.033     1585.501        1.524        0.690      128.085       44.583        0.121      350.796       32.224      856.908
07/15/2013  15:19:00      -96.660     -109.273       10.926       88.214       77.829       32.448     7781.679     6057.368     1052.868        1.814        0.745      145.889       43.118        0.087      350.573       31.838      856.901
07/15/2013  15:20:00      -47.406      -74.922       13.135       65.637       50.764       29.715     4308.196     2577.031      882.952        0.790        0.388       88.660       35.290        0.158      350.742       32.131      856.876
07/15/2013  15:21:00     -156.209      -44.481      -11.050       56.550       45.127       36.197     3197.958     2036.442     1310.215        1.652        0.327      162.418       33.693        0.043      350.931       32.460      856.866
07/15/2013  15:22:00     -118.958       -4.368        8.063      122.863       92.991       51.523    15095.301     8647.273     2654.583        2.031        1.320      119.038       50.087        0.177      351.396       33.269      856.853
07/15/2013  15:23:00     -268.895      -45.099       -7.502      129.983      106.021       54.767    16895.546    11240.434     2999.429        5.276        1.557      272.651       44.063        0.026      350.989       32.558      856.839
07/15/2013  15:24:00     -157.945      -11.113        5.975      156.747       64.842       60.050    24569.692     4204.549     3606.008        2.874        1.619      158.335       76.585        0.234      350.764       32.169      856.822
07/15/2013  15:25:00     -341.897      -13.586        0.325      178.901      145.264       76.227    32005.523    21101.485     5810.596        8.799        2.946      342.167       87.097        0.065      350.798       32.228      856.797
07/15/2013  15:26:00     -309.039      -92.802       -3.401      151.323      149.910       71.562    22898.585    22472.875     5121.061        7.730        2.525      322.672       67.347        0.044      350.902       32.408      856.750
07/15/2013  15:27:00     -381.187     -311.918      -11.709      189.210      164.406       98.319    35800.521    27029.485     9666.580       15.760        3.625      492.541       93.213        0.036      350.374       31.486      856.757
07/15/2013  15:28:00     -171.557     -212.611        3.686      128.449      117.596       49.591    16499.172    13828.876     2459.218        5.371        1.639      273.194       55.076        0.041      350.458       31.633      856.802
07/15/2013  15:29:00      -66.954     -163.690        0.957       68.203      105.054       31.615     4651.671    11036.263      999.478        2.398        0.834      176.854       36.442        0.042      350.399       31.530      856.801
07/15/2013  15:30:00        7.691      -16.475       33.085       56.757       36.853       33.849     3221.352     1358.119     1145.744        0.357        0.286       18.182       25.016        1.893      351.023       32.622      856.772
07/15/2013  15:31:00       -9.575      -61.524       17.613       62.490       96.756       55.453     3904.953     9361.764     3075.009        1.026        0.817       62.265       61.828        0.986      350.692       32.045      856.754
07/15/2013  15:32:00      -29.595      -45.986        5.434       49.406       50.707       44.547     2440.970     2571.184     1984.479        0.501        0.350       54.686       30.348        0.308      351.140       32.827      856.737
07/15/2013  15:33:00     -129.513     -112.614       -9.695      103.169       79.147       62.740    10643.869     6264.325     3936.340        2.519        1.042      171.626       52.196        0.092      350.662       31.991      856.743
07/15/2013  15:34:00      -35.391     -160.752       -4.590       84.457       71.398       52.701     7132.906     5097.638     2777.367        2.106        0.750      164.601       39.092        0.056      350.564       31.819      856.714
07/15/2013  15:35:00       30.290       -3.347       72.459       71.730      117.668       64.256     5145.123    13845.860     4128.814        1.464        1.156       30.474       78.257        6.595      350.511       31.729      856.680
07/15/2013  15:36:00      103.489      -69.806       20.717       86.172       86.500       53.729     7425.585     7482.284     2886.857        1.690        0.890      124.831       59.268        0.225      350.299       31.360      856.658
07/15/2013  15:37:00       77.111     -131.767        3.365       64.059       62.667       35.905     4103.581     3927.114     1289.183        1.632        0.466      152.672       26.520        0.030      350.601       31.886      856.659
07/15/2013  15:38:00        4.417     -106.358        3.590      115.305       82.344       47.518    13295.190     6780.487     2257.935        1.683        1.117      106.450       52.671        0.245      350.923       32.446      856.658
07/15/2013  15:39:00        3.519      -71.265       35.379       66.092       81.476       44.167     4368.166     6638.346     1950.756        0.965        0.648       71.352       40.251        0.318      351.015       32.608      856.651
07/15/2013  15:40:00       87.880     -121.299       49.028      117.001      170.599       98.219    13689.298    29104.182     9647.032        3.863        2.622      149.787      113.444        0.574      350.556       31.806      856.640
07/15/2013  15:41:00       46.006       42.630       78.984       64.520       45.348       39.661     4162.797     2056.453     1573.017        0.898        0.390       62.720       22.393        0.127      350.227       31.236      856.647
07/15/2013  15:42:00      -10.540        1.053       15.023       42.391       33.746       28.666     1796.978     1138.765      821.734        0.205        0.188       10.592       22.341        4.449      350.696       32.053      856.654
07/15/2013  15:43:00       10.053      -54.437       10.844       40.293       53.779       40.197     1623.551     2892.146     1615.835        0.466        0.307       55.358       36.619        0.438      351.030       32.633      856.673
07/15/2013  15:44:00     -199.186      -81.108        5.128      111.567       73.347       43.429    12447.207     5379.779     1886.106        3.299        0.986      215.066       50.003        0.054      350.992       32.565      856.692
07/15/2013  15:45:00     -122.628      -84.176       -4.180      132.934       84.649       52.310    17671.390     7165.440     2736.368        2.485        1.379      148.739       45.620        0.094      350.671       32.006      856.676
07/15/2013  15:46:00     -124.742       -9.753        4.768      130.017      102.377       43.290    16904.322    10481.004     1873.999        2.246        1.463      125.122       42.447        0.115      351.131       32.807      856.643
07/15/2013  15:47:00     -240.420     -109.894        3.708      169.900      101.281       59.956    28865.875    10257.805     3594.707        5.630        2.136      264.346       77.126        0.085      351.000       32.578      856.650
07/15/2013  15:48:00     -191.550     -133.015      -13.335      144.524      105.189       54.563    20887.162    11064.795     2977.070        4.474        1.746      233.204       62.924        0.073      350.643       31.957      856.631
07/15/2013  15:49:00     -285.530      -39.213      -21.649      142.525      107.698       50.602    20313.514    11598.810     2560.561        5.900        1.724      288.210       49.521        0.030      350.924       32.446      856.600
07/15/2013  15:50:00     -233.409      -29.501        2.579      123.916      127.280       69.158    15355.086    16200.090     4782.891        4.584        1.817      235.266       67.816        0.083      351.191       32.911      856.613
07/15/2013  15:51:00     -237.877       76.022      -12.328      121.080      102.715       62.880    14660.439    10550.409     3953.931        4.583        1.458      249.729       37.101        0.022      350.878       32.365      856.642
07/15/2013  15:52:00     -182.315      -40.945      -22.541       78.013       68.228       42.846     6086.092     4655.099     1835.785        2.400        0.629      186.856       27.279        0.021      350.944       32.481      856.619
07/15/2013  15:53:00     -116.395       52.578       -6.975       75.368       94.486       40.820     5680.301     8927.547     1666.268        1.631        0.814      127.719       21.565        0.029      351.038       32.646      856.608
07/15/2013  15:54:00      -71.892      158.494      -15.169       51.785       71.742       39.129     2681.684     5146.923     1531.056        1.994        0.468      174.037       39.329        0.051      350.617       31.914      856.590
07/15/2013  15:55:00       -3.993      245.263      -34.679       43.005       59.964       28.121     1849.389     3595.647      790.766        3.380        0.312      245.295       30.010        0.015      350.241       31.257      856.568
07/15/2013  15:56:00       -1.017      123.615       -0.779       23.427       64.124       26.715      548.826     4111.833      713.693        1.033        0.269      123.619       28.460        0.053      350.607       31.897      856.539
07/15/2013  15:57:00      -16.677      104.959      -11.137       32.803       77.738       28.334     1076.005     6043.126      802.793        0.967        0.396      106.275       22.424        0.045      350.414       31.560      856.508
07/15/2013  15:58:00     -130.761       27.727      -19.358       42.267       31.702       25.328     1786.517     1004.991      641.492        1.084        0.172      133.668       20.776        0.024      350.488       31.690      856.497
07/15/2013  15:59:00      -95.780        1.132      -17.850       41.292       44.437       25.070     1705.006     1974.649      628.521        0.690        0.215       95.787       14.699        0.024      350.615       31.911      856.502
07/15/2013  16:00:00      -86.328       76.555      -25.216       46.558       37.556       24.774     2167.682     1410.454      613.743        0.907        0.210      115.383       18.945        0.027      350.571       31.833      856.492
07/15/2013  16:01:00      -33.105       79.577      -19.622       21.188       60.363       25.328      448.912     3643.704      641.484        0.627        0.237       86.188       21.478        0.062      350.612       31.905      856.450
07/15/2013  16:02:00        6.150       53.018      -21.888       30.394       48.633       22.397      923.821     2365.184      501.620        0.356        0.190       53.373       15.875        0.088      350.598       31.881      856.418
07/15/2013  16:03:00      -70.515       84.105      -17.925       52.866       46.138       22.553     2794.798     2128.735      508.655        0.890        0.272      109.754       26.951        0.060      350.760       32.162      856.391
07/15/2013  16:04:00     -124.920       70.890      -13.662       38.222       43.718       25.695     1460.945     1911.300      660.245        1.242        0.202      143.633       18.600        0.017      350.865       32.346      856.383
07/15/2013  16:05:00     -181.399      -31.610        2.600       98.476       88.404       51.511     9697.593     7815.190     2653.387        2.703        1.008      184.133       49.822        0.073      351.044       32.655      856.389
07/15/2013  16:06:00     -214.865       -5.254      -18.967       73.777       74.565       39.751     5443.051     5559.978     1580.106        2.957        0.629      214.929       33.408        0.024      350.684       32.029      856.381
07/15/2013  16:07:00     -189.939      -45.215       -7.900       84.616       88.550       42.808     7159.867     7841.116     1832.507        2.751        0.842      195.247       34.183        0.031      350.768       32.173      856.364
07/15/2013  16:08:00     -363.787      -80.386       -8.958      132.204       91.694       59.925    17477.861     8407.782     3591.034        8.417        1.474      372.563       64.183        0.030      350.676       32.015      856.366
07/15/2013  16:09:00     -215.566      -15.032      -16.073       66.074       70.444       35.091     4365.834     4962.302     1231.351        2.875        0.528      216.089       26.630        0.015      350.460       31.638      856.370
07/15/2013  16:10:00     -201.696      -50.521       -1.746      114.842       81.743       47.712    13188.725     6681.866     2276.449        3.269        1.107      207.927       54.781        0.069      350.784       32.201      856.331
07/15/2013  16:11:00     -316.529     -145.084      -12.310      177.963      123.676       66.006    31670.823    15295.798     4356.839        8.635        2.566      348.195       68.743        0.039      350.597       31.875      856.333
07/15/2013  16:12:00     -151.284      -13.576        5.257       93.686      118.204       39.789     8777.160    13972.124     1583.132        2.371        1.217      151.892       37.975        0.063      350.676       32.015      856.335
07/15/2013  16:13:00     -225.824      -81.375      -16.486      115.096      101.295       50.479    13247.072    10260.679     2548.106        4.197        1.303      240.038       57.844        0.058      350.673       32.007      856.306
07/15/2013  16:14:00     -201.929      -72.852       -3.359       98.341      130.648       50.836     9671.019    17068.988     2584.328        3.770        1.466      214.669       56.979        0.070      350.818       32.261      856.292
07/15/2013  16:15:00     -210.926     -219.624       13.053      178.934      151.454       77.494    32017.508    22938.337     6005.310        7.692        3.048      304.507       73.543        0.058      350.972       32.528      856.285
07/15/2013  16:16:00     -280.421     -224.948        3.519      208.388      192.780       88.092    43425.386    37164.261     7760.245       10.878        4.417      359.497       89.684        0.062      350.788       32.209      856.289
07/15/2013  16:17:00     -215.777     -100.720        9.083      149.829      144.892       71.754    22448.626    20993.631     5148.642        5.268        2.430      238.126       88.954        0.140      351.022       32.616      856.296
07/15/2013  16:18:00     -252.325      -98.952      -12.661      114.544      127.689       54.932    13120.272    16304.464     3017.494        5.302        1.622      271.034       50.245        0.034      350.927       32.449      856.307
07/15/2013  16:19:00     -260.948     -188.389       -4.163      120.659      134.775       65.878    14558.675    18164.308     4339.975        7.032        1.853      321.845       64.311        0.040      350.926       32.448      856.307
07/15/2013  16:20:00     -148.563     -111.378        4.587      134.811       75.692       55.886    18174.101     5729.237     3123.293        3.076        1.351      185.677       64.114        0.119      350.816       32.258      856.297
07/15/2013  16:21:00     -153.819     -182.337       -7.255       86.645       60.982       43.952     7507.361     3718.798     1931.740        3.506        0.658      238.552       38.306        0.026      350.618       31.912      856.289
07/15/2013  16:22:00      -96.680     -101.841        0.430       98.885       71.319       46.560     9778.171     5086.442     2167.789        1.837        0.852      140.423       36.144        0.066      350.783       32.201      856.281
07/15/2013  16:23:00      -38.691      -50.120       -3.419       66.098       42.308       21.409     4368.902     1789.978      458.334        0.532        0.331       63.317       15.112        0.057      350.510       31.727      856.257
07/15/2013  16:24:00       34.032      -13.258       18.762       25.202       29.603       20.944      635.153      876.341      438.643        0.182        0.098       36.524       17.223        0.222      350.700       32.059      856.223
07/15/2013  16:25:00       27.964      -12.163       -1.991       42.782       34.032       42.568     1830.295     1158.153     1812.004        0.287        0.240       30.495       30.436        0.996      350.029       30.891      856.195
07/15/2013  16:26:00     -118.139       36.148       -5.439       80.199       36.840       25.342     6431.841     1357.193      642.199        1.186        0.422      123.546       31.642        0.066      350.671       32.006      856.184
07/15/2013  16:27:00     -126.420       74.003       -5.600       80.461       99.465       53.210     6473.982     9893.377     2831.272        2.034        0.960      146.487       40.343        0.076      350.987       32.556      856.185
07/15/2013  16:28:00       13.276      -40.031       11.246       59.524       89.648       44.310     3543.129     8036.682     1963.351        0.772        0.677       42.175       48.736        1.335      350.930       32.458      856.155
07/15/2013  16:29:00      -42.175      -70.446       22.523       89.195       86.585       51.948     7955.799     7497.003     2698.637        1.270        0.908       82.106       48.375        0.347      351.224       32.970      856.160
07/15/2013  16:30:00     -396.434     -252.606      -30.979      176.778      142.779       63.262    31250.515    20385.921     4002.122       13.877        2.782      470.074       71.835        0.023      350.702       32.058      856.175
07/15/2013  16:31:00     -381.063     -205.854      -18.891      228.286      138.617       89.129    52114.350    19214.577     7944.010       13.359        3.964      433.110      108.817        0.063      350.573       31.835      856.172
07/15/2013  16:32:00     -418.375     -198.864      -18.981      230.591      135.361       67.804    53172.170    18322.588     4597.326       14.550        3.805      463.232       95.853        0.043      350.530       31.760      856.178
07/15/2013  16:33:00     -228.480     -173.720        0.620      173.963      148.171       85.228    30263.154    21954.706     7263.792        7.092        2.974      287.022       97.512        0.115      350.594       31.870      856.140
07/15/2013  16:34:00     -204.971     -160.100        3.651      119.481      114.456       59.472    14275.710    13100.242     3536.899        4.928        1.546      260.087       44.425        0.029      350.640       31.950      856.113
07/15/2013  16:35:00     -150.400     -196.264       -4.861       87.303      170.481       51.792     7621.838    29063.679     2682.383        5.026        1.968      247.265       35.894        0.021      350.648       31.964      856.115
07/15/2013  16:36:00     -379.701     -251.165      -20.664      259.722      137.045      101.516    67455.710    18781.195    10305.506       15.209        4.827      455.254       96.467        0.045      350.562       31.813      856.123
07/15/2013  16:37:00     -319.204     -215.750        9.023      165.934      151.254       84.084    27534.004    22877.785     7070.195       10.299        2.874      385.278       90.829        0.056      350.445       31.611      856.129
07/15/2013  16:38:00     -318.784     -132.663        9.476      200.315      184.069       93.303    40126.132    33881.377     8705.358       10.100        4.136      345.287      106.916        0.096      350.459       31.635      856.130
07/15/2013  16:39:00     -207.487     -273.678       -4.740      170.051      117.558       63.006    28917.252    13819.932     3969.801        8.233        2.335      343.439       76.792        0.050      350.352       31.450      856.144
07/15/2013  16:40:00     -239.707     -106.986      -26.846       88.061       91.066       37.815     7754.665     8293.044     1429.949        4.355        0.874      262.499       28.930        0.012      350.458       31.632      856.117
07/15/2013  16:41:00     -287.043      -92.299        9.507      149.344      119.236       59.574    22303.738    14217.132     3549.109        6.553        2.003      301.518       67.822        0.051      350.635       31.943      856.094
07/15/2013  16:42:00     -261.266      -53.250       -0.826      179.314      114.507       68.123    32153.557    13111.860     4640.705        6.049        2.495      266.638       69.340        0.068      350.743       32.131      856.105
07/15/2013  16:43:00     -182.614     -135.798       25.003      182.360      136.308       85.058    33255.078    18579.934     7234.847        5.573        2.953      227.572       69.332        0.093      350.680       32.022      856.058
07/15/2013  16:44:00     -331.457     -212.984      -16.445      156.746      132.135       71.174    24569.315    17459.559     5065.797       10.129        2.355      393.988       77.110        0.038      350.730       32.106      856.072
07/15/2013  16:45:00     -334.013     -140.198      -26.752      144.604      114.470       61.040    20910.322    13103.357     3725.924        8.483        1.887      362.243       42.949        0.014      350.678       32.016      856.084
07/15/2013  16:46:00     -230.204      -93.038        6.476      107.850       94.899       57.843    11631.545     9005.742     3345.840        4.283        1.199      248.294       53.549        0.047      350.707       32.067      856.075
07/15/2013  16:47:00     -147.386      -86.764        1.521       96.091       90.957       54.321     9233.454     8273.219     2950.748        2.485        1.023      171.028       49.787        0.085      350.841       32.303      856.064
07/15/2013  16:48:00     -208.683      -93.298        0.980      160.202       90.552       51.967    25664.793     8199.656     2700.524        4.440        1.828      228.589       63.337        0.077      350.885       32.379      856.072
07/15/2013  16:49:00     -281.468      -43.743        0.501      171.533      113.313       72.815    29423.454    12839.890     5302.059        6.434        2.378      284.847       84.491        0.088      350.823       32.271      856.045
07/15/2013  16:50:00     -348.597     -141.524      -29.609       93.464      101.281       51.811     8735.480    10257.791     2684.377        8.205        1.084      376.230       39.592        0.011      350.616       31.910      856.054
07/15/2013  16:51:00     -176.449     -160.829        5.783      120.645      109.096       56.130    14555.212    11901.883     3150.574        4.331        1.480      238.747       59.318        0.062      350.697       32.049      856.040
07/15/2013  16:52:00     -245.922     -162.800        9.902      120.670       89.814       59.541    14561.231     8066.546     3545.120        5.662        1.309      294.926       46.507        0.025      350.623       31.920      855.992
07/15/2013  16:53:00     -295.685     -187.635        3.669      174.530      111.577       75.670    30460.758    12449.509     5725.911        8.563        2.432      350.195       87.782        0.063      350.558       31.808      855.989
07/15/2013  16:54:00     -241.320      -43.045      -12.724      124.670      164.066       55.343    15542.699    26917.621     3062.828        5.288        2.276      245.129       59.905        0.060      350.665       31.993      856.015
07/15/2013  16:55:00     -140.714        6.818       11.501      133.510      120.859       64.231    17824.880    14606.941     4125.660        2.826        1.828      140.879       64.177        0.208      350.813       32.252      856.002
07/15/2013  16:56:00     -281.929      -86.685      -19.305      131.463      126.246       66.311    17282.444    15937.986     4397.201        6.249        1.881      294.954       55.942        0.036      350.840       32.299      856.009
07/15/2013  16:57:00     -621.074       63.156      -66.237      142.113      116.524       62.587    20196.140    13577.940     3917.146       21.589        1.885      624.277       66.589        0.011      350.492       31.694      855.999
07/15/2013  16:58:00     -369.870      -14.761      -27.456      137.027      153.059       63.901    18776.336    23427.183     4083.384        9.202        2.314      370.164       67.016        0.033      350.620       31.916      855.992
07/15/2013  16:59:00     -322.899        9.152      -26.932      113.313      124.779       58.379    12839.885    15569.904     3408.129        6.844        1.591      323.029       53.901        0.028      350.707       32.067      856.003
07/15/2013  17:00:00     -515.442     -101.571      -36.958      118.185      127.468       59.296    13967.647    16248.019     3515.987       15.554        1.687      525.354       53.373        0.010      350.610       31.898      856.002
07/15/2013  17:01:00     -275.326     -117.318       -5.817      126.678      130.288       68.237    16047.375    16975.026     4656.322        6.363        1.884      299.279       62.209        0.043      350.570       31.829      856.009
07/15/2013  17:02:00     -232.113     -129.203        3.024      117.710       97.888       52.285    13855.754     9582.086     2733.752        4.837        1.309      265.650       48.076        0.033      350.492       31.693      856.002
07/15/2013  17:03:00     -143.515     -160.320       -2.332      114.525       95.717       66.280    13115.926     9161.825     4393.024        3.648        1.334      215.172       60.471        0.079      350.539       31.775      855.984
07/15/2013  17:04:00     -244.080      -66.072      -10.124      119.132       72.154       53.301    14192.488     5206.170     2841.044        4.314        1.112      252.864       54.080        0.046      350.629       31.931      855.975
07/15/2013  17:05:00     -183.625       18.572      -19.850       87.210       80.407       33.204     7605.636     6465.268     1102.509        2.481        0.759      184.562       20.211        0.012      350.710       32.073      855.986
07/15/2013  17:06:00     -172.860       -9.414      -16.016       96.431       88.951       34.187     9298.906     7912.223     1168.782        2.430        0.919      173.117       32.490        0.035      350.884       32.376      855.989
07/15/2013  17:07:00     -190.318       24.445      -15.347       76.381       55.372       28.990     5834.114     3066.011      840.402        2.340        0.487      191.881       24.815        0.017      350.945       32.481      856.005
07/15/2013  17:08:00     -115.393       38.597      -20.056       87.758       90.223       60.542     7701.409     8140.241     3665.294        1.735        0.975      121.677       45.945        0.143      350.688       32.038      856.012
07/15/2013  17:09:00     -190.114       13.516      -31.136       73.596      111.984       38.281     5416.369    12540.385     1465.472        2.835        0.971      190.594       23.868        0.016      350.466       31.647      855.972
07/15/2013  17:10:00      -32.274      -12.409       14.790       62.574       50.498       33.615     3915.516     2550.068     1129.957        0.450        0.380       34.577       34.844        1.016      350.523       31.750      855.953
07/15/2013  17:11:00     -183.844      -63.533      -13.421      102.198       59.946       40.145    10444.467     3593.560     1611.636        2.683        0.782      194.513       41.923        0.046      350.561       31.813      855.944
07/15/2013  17:12:00     -186.486      -57.477       -7.148       91.933       69.396       44.285     8451.592     4815.767     1961.145        2.668        0.761      195.143       36.846        0.036      350.629       31.931      855.895
07/15/2013  17:13:00     -151.537      -50.178        0.998       73.185       67.433       35.631     5356.001     4547.155     1269.558        1.833        0.559      159.629       31.560        0.039      350.804       32.239      855.908
07/15/2013  17:14:00     -377.199      -69.033      -10.014      118.533      107.374       58.917    14049.962    11529.211     3471.268        8.809        1.453      383.464       58.883        0.024      350.779       32.193      855.919
07/15/2013  17:15:00     -294.120      -74.109      -31.596      133.210      134.308       67.108    17744.919    18038.716     4503.460        6.663        2.014      303.313       61.313        0.041      350.661       31.988      855.922
07/15/2013  17:16:00     -322.155     -122.548      -13.512      125.227      130.371       59.447    15681.694    16996.691     3533.991        7.759        1.811      344.676       61.990        0.032      350.817       32.259      855.907
07/15/2013  17:17:00     -252.569     -188.162       -7.618      133.377      139.083       69.814    17789.557    19344.180     4874.044        7.062        2.100      314.954       62.370        0.039      350.616       31.908      855.917
07/15/2013  17:18:00     -110.932      -57.400       23.165      134.942      143.713       82.236    18209.435    20653.429     6762.719        3.087        2.281      124.903       77.903        0.389      350.715       32.082      855.891
07/15/2013  17:19:00     -217.039     -200.201        3.399      134.766      112.159       63.802    18161.924    12579.752     4070.719        6.100        1.741      295.274       68.527        0.054      350.576       31.840      855.878
07/15/2013  17:20:00     -150.589     -120.661       14.679      132.879       86.504       54.921    17656.842     7482.929     3016.355        3.280        1.408      192.967       68.983        0.128      350.740       32.125      855.872
07/15/2013  17:21:00     -163.336      -83.801       11.611      125.051      100.229       56.412    15637.762    10045.796     3182.287        3.135        1.443      183.579       59.727        0.106      350.710       32.073      855.883
07/15/2013  17:22:00     -278.150      -43.446      -16.461      167.086       89.064       57.221    27917.700     7932.429     3274.265        5.932        1.956      281.523       77.187        0.075      350.835       32.291      855.882
07/15/2013  17:23:00     -202.159      -89.235        3.210      110.056      130.129       68.477    12112.399    16933.552     4689.040        4.128        1.687      220.977       51.416        0.054      350.963       32.513      855.876
07/15/2013  17:24:00     -182.340      -28.735      -13.122      118.051      103.366       57.489    13935.939    10684.509     3305.024        3.108        1.396      184.590       42.309        0.053      350.966       32.519      855.867
07/15/2013  17:25:00     -149.202       17.161       -7.206      104.007      110.016       71.483    10817.440    12103.617     5109.846        2.531        1.402      150.186       62.680        0.174      350.791       32.214      855.874
07/15/2013  17:26:00     -152.136      111.637      -18.663      140.074       65.665       52.847    19620.613     4311.922     2792.763        3.134        1.336      188.701       52.140        0.076      350.590       31.863      855.824
07/15/2013  17:27:00     -103.142      172.143       -3.401      174.200      246.011       94.001    30345.565    60521.221     8836.137        6.997        4.985      200.677       53.144        0.070      350.672       32.005      855.745
07/15/2013  17:28:00     -290.723     -196.497       -6.346      118.090       98.783       63.750    13945.294     9758.120     4064.023        7.546        1.388      350.900       61.150        0.030      350.812       32.251      855.797
07/15/2013  17:29:00     -376.860      -40.007      -23.491      121.368      126.196       57.972    14730.271    15925.549     3360.753        8.909        1.701      378.978       62.059        0.027      350.667       31.999      855.870
07/15/2013  17:30:00     -213.739      -47.623      -13.478      112.845      101.749       48.354    12733.980    10352.957     2338.108        3.677        1.271      218.980       42.178        0.037      350.781       32.198      855.872
07/15/2013  17:31:00     -191.241      -80.774        1.758      146.954      116.940       55.771    21595.595    13675.054     3110.364        4.073        1.919      207.599       31.995        0.024      350.923       32.445      855.860
07/15/2013  17:32:00     -363.021       12.444      -32.723      202.868      166.060       93.513    41155.575    27575.953     8744.657       10.523        3.874      363.234      106.981        0.087      350.506       31.719      855.857
07/15/2013  17:33:00     -159.531     -103.883       26.751      252.914      118.721       67.192    63965.632    14094.605     4514.797        5.975        4.129      190.373       97.642        0.263      350.239       31.254      855.783
07/15/2013  17:34:00      -97.089      228.744      -39.716      197.737      256.489       97.988    39099.835    65786.658     9601.692        8.888        5.724      248.496       99.100        0.159      350.323       31.400      855.717
07/15/2013  17:35:00     -439.650      142.247      -41.523      207.691      305.116       99.541    43135.569    93095.828     9908.502       18.067        7.307      462.089       82.653        0.032      350.551       31.795      855.678
07/15/2013  17:36:00      -78.432       22.459       25.488      172.966      188.475       94.815    29917.308    35522.756     8989.828        4.085        3.721       81.584       83.734        1.053      350.473       31.663      855.838
07/15/2013  17:37:00      -63.155       81.132       -6.448      113.673      112.187       67.237    12921.583    12585.912     4520.850        2.031        1.501      102.815       61.711        0.360      350.630       31.936      855.791
07/15/2013  17:38:00     -326.618        6.856      -21.525      102.354      104.921       59.132    10476.416    11008.485     3496.645        6.608        1.249      326.690       54.013        0.027      350.748       32.139      855.845
07/15/2013  17:39:00     -411.719      -35.342      -41.178      127.233      144.731       59.019    16188.352    20947.073     3483.192       10.653        2.031      413.233       55.631        0.018      350.577       31.839      855.817
07/15/2013  17:40:00     -479.594      -73.267      -33.401      109.839      151.885       70.963    12064.592    23068.934     5035.773       13.832        2.008      485.158       64.124        0.017      350.544       31.782      855.778
07/15/2013  17:41:00     -486.879      -20.677      -31.493      165.935      150.437       77.270    27534.554    22631.256     5970.586       14.729        2.807      487.318       81.350        0.028      350.616       31.909      855.781
07/15/2013  17:42:00     -464.551     -148.847      -34.281      161.079       96.359       57.821    25946.520     9285.030     3343.294       13.885        1.929      487.814       50.091        0.011      350.495       31.699      855.816
07/15/2013  17:43:00     -412.828      -33.202      -35.057      135.698      101.808       62.514    18413.971    10364.937     3907.987       10.272        1.634      414.161       70.390        0.029      350.374       31.489      855.848
07/15/2013  17:44:00     -316.996       63.711      -46.697      121.542      203.092       80.785    14772.390    41246.284     6526.240        8.462        3.127      323.335       43.393        0.018      350.480       31.671      855.812
07/15/2013  17:45:00     -401.742      -97.724      -34.571      198.594      124.711       79.669    39439.607    15552.801     6347.187       11.673        3.067      413.457      100.031        0.059      350.426       31.578      855.798
07/15/2013  17:46:00     -273.736      -57.057      -20.819      114.115      102.421       66.950    13022.161    10490.023     4482.238        5.330        1.400      279.620       52.888        0.036      350.484       31.679      855.814
07/15/2013  17:47:00     -188.451       46.937       -0.993      142.372      131.984       90.725    20269.923    17419.645     8231.025        4.181        2.296      194.208       89.039        0.210      350.502       31.712      855.796
07/15/2013  17:48:00     -444.955      -81.474      -27.875      190.913      200.339       94.337    36447.749    40135.757     8899.509       14.542        4.274      452.352       92.554        0.042      350.379       31.497      855.806
07/15/2013  17:49:00     -249.907      -47.407      -36.927      164.467      144.843       66.946    27049.277    20979.563     4481.715        5.928        2.626      254.364       73.174        0.083      350.380       31.499      855.810
07/15/2013  17:50:00     -296.025     -162.786      -12.713      105.458       68.338       48.006    11121.489     4670.025     2304.566        6.619        0.905      337.831       44.892        0.018      350.202       31.187      855.767
07/15/2013  17:51:00     -331.365      -80.100       -9.832       86.137      108.924       51.242     7419.584    11864.451     2625.708        6.911        1.095      340.908       48.665        0.020      350.326       31.404      855.762
07/15/2013  17:52:00     -352.805      -85.869      -11.725      175.301      153.013       63.677    30730.293    23413.018     4054.813        9.508        2.910      363.105       77.257        0.045      350.635       31.942      855.752
07/15/2013  17:53:00     -377.392      -19.092      -20.405      119.668      125.566       78.391    14320.335    15766.887     6145.111        8.971        1.812      377.875       71.779        0.036      350.724       32.097      855.767
07/15/2013  17:54:00     -327.241     -121.849        0.672      166.007      139.131       78.671    27558.199    19357.472     6189.167        8.751        2.655      349.191       80.407        0.053      350.712       32.075      855.761
07/15/2013  17:55:00     -166.266     -108.244       13.394      158.349      134.086       71.323    25074.396    17979.124     5087.033        4.383        2.407      198.396       70.875        0.128      350.740       32.126      855.782
07/15/2013  17:56:00     -202.930     -114.587        2.792      155.940      100.446       70.850    24317.417    10089.366     5019.715        4.686        1.971      233.047       84.991        0.133      350.626       31.926      855.791
07/15/2013  17:57:00     -130.896      -65.812       21.258      127.641       90.760       64.347    16292.223     8237.355     4140.567        2.529        1.434      146.509       72.194        0.243      350.714       32.081      855.767
07/15/2013  17:58:00     -293.145     -193.267        8.238      249.696      202.541      113.918    62347.845    41022.824    12977.261       11.983        5.817      351.121      132.687        0.143      350.475       31.663      855.753
07/15/2013  17:59:00     -197.849      -63.551       -0.523      124.948       95.254       58.327    15611.903     9073.401     3401.989        3.563        1.404      207.805       58.583        0.079      350.551       31.795      855.782
07/15/2013  18:00:00     -282.153      -23.567      -13.490      109.994      100.026       64.158    12098.612    10005.195     4116.247        5.328        1.311      283.136       60.241        0.045      350.615       31.905      855.799
07/15/2013  18:01:00     -285.990      -46.257       -7.394      143.532      117.735       69.323    20601.417    13861.490     4805.726        6.162        1.963      289.707       68.613        0.056      350.519       31.740      855.789
07/15/2013  18:02:00     -237.287      -71.119       -6.802      144.867      124.073       66.052    20986.309    15394.194     4362.912        5.107        2.037      247.716       77.615        0.098      350.508       31.721      855.790
07/15/2013  18:03:00     -202.936      -43.199        6.708      124.796      103.716       54.302    15574.002    10756.936     2948.715        3.618        1.464      207.483       54.789        0.070      350.596       31.876      855.782
07/15/2013  18:04:00     -237.114      -69.748      -16.864       91.045       81.481       53.843     8289.217     6639.137     2899.039        3.960        0.891      247.160       46.395        0.035      350.622       31.919      855.780
07/15/2013  18:05:00     -187.584      -25.531       -8.719      153.681       68.768       56.812    23617.733     4729.092     3227.554        3.374        1.579      189.313       68.687        0.132      350.607       31.894      855.778
07/15/2013  18:06:00     -124.070      -28.874       21.673      118.088      119.934       72.921    13944.666    14384.209     5317.447        2.516        1.682      127.385       80.385        0.398      350.568       31.828      855.780
07/15/2013  18:07:00     -377.227       61.690      -21.139      169.776      143.191       83.326    28823.987    20503.758     6943.151       10.140        2.814      382.238       85.037        0.049      350.465       31.645      855.779
07/15/2013  18:08:00     -258.374      -93.026        3.277      159.860      148.147       70.235    25555.308    21947.617     4932.912        6.392        2.622      274.611       74.824        0.074      350.463       31.643      855.783
07/15/2013  18:09:00     -251.346     -182.084       16.595      217.440      145.806      105.741    47279.985    21259.378    11181.122        8.815        3.986      310.370      116.796        0.142      350.420       31.569      855.777
07/15/2013  18:10:00     -381.735     -157.399      -33.620      165.886      124.546       73.419    27518.243    15511.689     5390.321       11.001        2.421      412.911       63.106        0.023      350.435       31.592      855.792
07/15/2013  18:11:00     -301.839      -76.027       -8.055      150.272      135.504       69.021    22581.601    18361.312     4763.842        7.132        2.285      311.266       71.364        0.053      350.502       31.709      855.781
07/15/2013  18:12:00     -264.330     -210.888        2.572      185.051      156.345       97.870    34243.823    24443.682     9578.509        9.129        3.413      338.148      107.240        0.101      350.340       31.428      855.772
07/15/2013  18:13:00     -562.060      -19.310      -50.419      189.230      179.103       83.877    35807.939    32078.041     7035.328       19.686        3.746      562.392       85.723        0.023      350.323       31.399      855.788
07/15/2013  18:14:00     -386.771      -29.931      -23.572      135.187      140.345       73.621    18275.631    19696.825     5420.083        9.721        2.170      387.927       63.639        0.027      350.458       31.632      855.785
07/15/2013  18:15:00     -250.812      -31.027       -2.290      160.819      133.772       66.959    25862.722    17894.864     4483.457        5.605        2.412      252.724       79.518        0.099      350.470       31.654      855.784
07/15/2013  18:16:00     -361.590       -4.348      -21.124      146.752       99.446       63.787    21536.064     9889.449     4068.771        8.335        1.775      361.616       71.892        0.040      350.425       31.577      855.789
07/15/2013  18:17:00     -281.412     -123.612       -4.268      138.386       95.481       60.899    19150.606     9116.622     3708.652        6.323        1.599      307.364       71.772        0.055      350.446       31.613      855.801
07/15/2013  18:18:00     -174.634     -150.642        0.226       99.085      147.695       52.990     9817.905    21813.696     2807.893        4.381        1.722      230.630       48.474        0.044      350.369       31.479      855.770
07/15/2013  18:19:00     -310.900       -5.136        2.019      221.984      153.826       79.417    49277.096    23662.565     6307.048        8.795        3.962      310.942       95.511        0.094      350.385       31.508      855.758
07/15/2013  18:20:00     -271.502     -190.649       19.020      257.388      176.906      107.456    66248.435    31295.762    11546.782       10.973        5.455      331.753      136.577        0.169      350.326       31.405      855.747
07/15/2013  18:21:00     -313.587     -232.960        9.415      205.039      161.030      102.407    42040.789    25930.721    10487.266       11.556        3.923      390.650      112.642        0.083      350.254       31.278      855.769
07/15/2013  18:22:00     -225.921     -118.478        8.478      146.736      131.119       69.545    21531.482    17192.234     4836.438        5.435        2.178      255.103       77.962        0.093      350.282       31.328      855.781
07/15/2013  18:23:00     -295.036     -164.127       -0.578      158.225      128.047       70.859    25035.137    16396.053     5021.053        8.021        2.323      337.616       71.476        0.045      350.272       31.311      855.769
07/15/2013  18:24:00     -264.330     -125.363        5.238      223.717      159.498       82.714    50049.459    25439.607     6841.645        8.396        4.117      292.552       97.197        0.110      350.299       31.358      855.761
07/15/2013  18:25:00     -345.875      -72.475      -10.986      220.454      131.709       83.678    48599.834    17347.206     7002.062        9.896        3.647      353.387       90.760        0.066      350.247       31.267      855.763
07/15/2013  18:26:00     -243.683     -219.759        7.943      180.367      139.113       87.271    32532.169    19352.435     7616.232        8.361        2.975      328.140       92.387        0.079      350.177       31.144      855.742
07/15/2013  18:27:00     -253.836      -15.322       -1.552      144.290       89.272       64.441    20819.476     7969.486     4152.607        4.880        1.647      254.298       68.776        0.073      350.314       31.385      855.734
07/15/2013  18:28:00     -182.978     -103.724        7.704      181.504      150.905       62.940    32943.587    22772.228     3961.500        5.198        2.984      210.332       81.573        0.150      350.419       31.566      855.750
07/15/2013  18:29:00     -404.411      -88.560      -19.467      147.337      163.057       76.142    21708.161    26587.524     5797.550       11.292        2.705      413.994       75.766        0.033      350.244       31.262      855.730
07/15/2013  18:30:00     -271.847     -233.282        9.550      190.506      147.979       96.355    36292.612    21897.931     9284.341        9.793        3.374      358.219      108.717        0.092      350.184       31.159      855.733
07/15/2013  18:31:00     -320.056     -312.830        5.044      233.108      209.319      130.394    54339.357    43814.328    17002.609       15.772        5.758      447.547      141.433        0.100      350.115       31.038      855.730
07/15/2013  18:32:00     -376.574     -271.909        4.549      273.316      183.629       99.208    74701.876    33719.735     9842.305       16.699        5.913      464.481      126.534        0.074      350.080       30.977      855.711
07/15/2013  18:33:00     -224.687     -140.452        9.056      140.282      132.251       79.054    19679.068    17490.428     6249.539        5.685        2.171      264.974       78.811        0.088      350.212       31.205      855.741
07/15/2013  18:34:00     -234.662      -28.606        6.345      185.648      127.575       82.245    34465.237    16275.286     6764.254        5.670        2.875      236.399       91.335        0.149      350.265       31.299      855.758
07/15/2013  18:35:00     -385.827      -75.446      -12.249      190.102      145.786       72.582    36138.881    21253.483     5268.094       10.867        3.133      393.134       83.249        0.045      350.183       31.154      855.781
07/15/2013  18:36:00     -225.731     -110.407       -3.239      174.655      174.084       82.345    30504.309    30305.189     6780.765        6.536        3.380      251.285       92.773        0.136      350.171       31.137      855.771
07/15/2013  18:37:00     -462.184      -27.733      -13.122      238.766      172.495       90.308    57009.072    29754.660     8155.462       15.472        4.746      463.015      102.519        0.049      350.068       30.956      855.761
07/15/2013  18:38:00     -381.274     -237.082       -9.974      240.313      207.981       99.208    57750.433    43256.063     9842.236       15.624        5.542      448.974      104.126        0.054      350.021       30.873      855.781
07/15/2013  18:39:00     -207.930     -174.837        3.072      167.618      149.973       88.204    28095.681    22491.944     7779.951        6.608        2.918      271.667       91.395        0.113      350.096       31.004      855.798
07/15/2013  18:40:00     -323.459     -207.800       -8.538      202.064      140.758       84.663    40829.989    19812.766     7167.880       10.783        3.391      384.456       93.917        0.060      350.071       30.961      855.773
07/15/2013  18:41:00     -297.283     -151.649        7.340      226.270      185.823       86.254    51198.018    34530.218     7439.818       10.228        4.658      333.728      123.336        0.137      350.075       30.968      855.770
07/15/2013  18:42:00     -284.749     -150.917      -11.009      196.397      168.739       85.132    38571.920    28472.909     7247.406        8.912        3.715      322.270       92.689        0.083      350.029       30.889      855.776
07/15/2013  18:43:00     -370.469      -79.588       -3.665      222.008      115.889       74.781    49287.728    13430.363     5592.251       10.594        3.416      378.922       90.192        0.057      350.093       31.000      855.816
07/15/2013  18:44:00     -347.682      -24.727        2.227      171.747      144.158       69.762    29497.152    20781.508     4866.709        8.831        2.757      348.560       64.090        0.034      350.068       30.956      855.801
07/15/2013  18:45:00     -588.922     -159.486      -23.774      226.776      149.563       87.960    51427.428    22369.088     7737.016       22.717        4.077      610.135       84.358        0.019      349.889       30.643      855.806
07/15/2013  18:46:00     -501.652     -176.439      -18.420      173.086      158.214       78.404    29958.729    25031.526     6147.230       17.212        3.057      531.776       76.965        0.021      349.905       30.671      855.792
07/15/2013  18:47:00     -558.651     -140.379      -27.286      240.874      188.360       90.721    58020.281    35479.515     8230.348       21.712        5.087      576.019      109.771        0.036      349.839       30.559      855.792
07/15/2013  18:48:00     -531.364     -183.125      -30.695      284.714      219.061      105.927    81062.174    47987.663    11220.465       22.852        7.014      562.034      131.678        0.055      349.762       30.425      855.792
07/15/2013  18:49:00     -381.079     -218.799      -27.345      215.950      171.608       93.199    46634.302    29449.453     8686.046       13.929        4.238      439.425       93.667        0.045      349.764       30.427      855.778
07/15/2013  18:50:00     -341.416     -170.219       10.017      265.711      200.916      114.635    70602.599    40367.384    13141.165       13.485        6.206      381.496      143.312        0.141      349.778       30.452      855.753
07/15/2013  18:51:00     -298.467     -209.729       -3.376      235.050      174.056       90.676    55248.729    30295.350     8222.092       11.340        4.688      364.786      109.793        0.091      349.771       30.438      855.741
07/15/2013  18:52:00     -281.741     -115.515       -4.882      230.487      122.501       94.376    53124.325    15006.538     8906.873        8.488        3.852      304.502      110.027        0.131      349.844       30.567      855.752
07/15/2013  18:53:00     -307.406     -217.638      -10.528      201.997      134.954       84.489    40802.781    18212.684     7138.319       10.405        3.308      376.650       94.168        0.063      349.820       30.525      855.744
07/15/2013  18:54:00     -419.816     -169.551      -13.743      180.025      159.658       96.062    32408.834    25490.794     9227.968       13.614        3.356      452.761      103.454        0.052      349.709       30.332      855.755
07/15/2013  18:55:00     -377.737     -195.535      -19.077      258.027      202.535      101.201    66577.844    41020.399    10241.734       14.954        5.892      425.346      126.451        0.088      349.666       30.258      855.709
07/15/2013  18:56:00     -493.266     -264.012      -17.525      227.235      168.058      110.117    51635.808    28243.421    12125.758       20.264        4.600      559.476      131.494        0.055      349.580       30.109      855.731
07/15/2013  18:57:00     -404.108     -151.843      -24.680      211.548      196.534       74.142    44752.729    38625.627     5497.012       13.790        4.444      431.694       88.287        0.042      349.685       30.290      855.722
07/15/2013  18:58:00     -422.627     -215.768      -23.808      197.576      189.978       76.461    39036.163    36091.603     5846.262       15.334        4.049      474.520       74.120        0.024      349.669       30.262      855.753
07/15/2013  18:59:00     -244.104      -59.779      -12.348      110.617      109.623       64.410    12236.200    12017.159     4148.697        4.585        1.420      251.317       53.198        0.045      349.799       30.488      855.767
07/15/2013  19:00:00     -459.759      -87.741      -37.531      168.229      136.776       77.575    28300.916    18707.632     6017.900       13.675        2.651      468.057       66.400        0.020      349.737       30.381      855.782
07/15/2013  19:01:00     -355.423     -115.817      -14.270      250.649      167.496       91.769    62824.982    28054.788     8421.560       11.960        4.965      373.817      115.042        0.095      349.642       30.217      855.755
07/15/2013  19:02:00     -324.185      -64.343      -16.069      183.476      119.729       83.671    33663.513    14335.140     7000.871        8.224        2.750      330.509       81.235        0.060      349.675       30.274      855.786
07/15/2013  19:03:00     -386.429     -129.070      -24.049      135.742      146.156       69.636    18425.821    21361.680     4849.204       10.559        2.232      407.415       69.204        0.029      349.696       30.308      855.825
07/15/2013  19:04:00     -361.333     -117.573       -5.507      186.352      124.386       67.670    34727.247    15471.852     4579.199        9.959        2.739      379.981       68.100        0.032      349.683       30.285      855.836
07/15/2013  19:05:00     -527.991     -237.602      -11.798      217.212      181.339       94.284    47180.936    32883.816     8889.433       21.214        4.448      578.989       96.118        0.028      349.513       29.992      855.823
07/15/2013  19:06:00     -428.502     -122.895      -25.923      189.944      163.979       83.073    36078.796    26889.127     6901.156       13.462        3.493      445.777       78.565        0.031      349.572       30.095      855.863
07/15/2013  19:07:00     -528.001     -110.963      -14.300      264.374      227.603       95.709    69893.717    51803.282     9160.138       21.105        6.543      539.535      126.587        0.055      349.499       29.968      855.865
07/15/2013  19:08:00     -340.145     -167.073       -6.299      145.210      139.092       81.416    21085.956    19346.541     6628.604        9.535        2.353      378.962       72.649        0.037      349.562       30.078      855.875
07/15/2013  19:09:00     -405.401     -140.150      -29.073      217.853      173.347       85.151    47459.718    30049.344     7250.686       13.478        4.238      428.943       86.302        0.040      349.516       29.999      855.876
07/15/2013  19:10:00     -526.832      -91.330      -22.259      191.709      168.769      107.492    36752.401    28483.125    11554.561       18.157        3.840      534.690      100.015        0.035      349.465       29.908      855.874
07/15/2013  19:11:00     -397.692       48.767        6.576      220.035      135.136       79.042    48415.291    18261.614     6247.695       11.674        3.646      400.671       91.789        0.052      349.503       29.977      855.888
07/15/2013  19:12:00     -394.274     -210.104      -11.963      247.690      156.193       93.394    61350.265    24396.259     8722.354       14.708        4.723      446.761      113.940        0.065      349.458       29.896      855.885
07/15/2013  19:13:00     -415.114     -207.987       -6.434      188.777      155.848       93.003    35636.861    24288.461     8649.511       14.208        3.429      464.304       94.560        0.041      349.452       29.886      855.862
07/15/2013  19:14:00     -243.369     -149.319       16.248      186.514      208.376       94.017    34787.444    43420.593     8839.154        8.440        4.352      285.525       80.152        0.079      349.468       29.914      855.861
07/15/2013  19:15:00     -321.389      -77.806        3.479      232.705      137.565       76.805    54151.529    18924.019     5899.008        9.415        3.949      330.673       93.805        0.080      349.463       29.906      855.874
07/15/2013  19:16:00     -546.657      -95.838       -1.515      237.611      197.297      109.639    56458.822    38926.137    12020.748       20.769        5.370      554.994      115.561        0.043      349.343       29.696      855.861
07/15/2013  19:17:00     -355.494      -58.053      -12.492      177.764      149.226       80.563    31600.212    22268.422     6490.381        9.512        3.018      360.203       87.677        0.059      349.408       29.810      855.886
07/15/2013  19:18:00     -378.294      -34.891      -13.712      127.663      155.661       65.981    16297.896    24230.449     4353.437        9.469        2.244      379.899       68.581        0.033      349.414       29.821      855.894
07/15/2013  19:19:00     -217.471     -117.360        8.237      198.660      114.436       82.342    39465.881    13095.543     6780.252        6.023        2.967      247.117      106.603        0.186      349.452       29.887      855.898
07/15/2013  19:20:00     -334.986     -228.976       15.449      238.694      180.800      108.384    56974.909    32688.800    11747.191       13.313        5.071      405.766      110.688        0.074      349.312       29.643      855.903
07/15/2013  19:21:00     -283.737     -174.802        7.851      204.699      183.364       94.658    41901.842    33622.180     8960.195        9.779        4.224      333.261      105.080        0.099      349.293       29.613      855.924
07/15/2013  19:22:00     -344.935     -276.986      -22.390      273.510      201.166      132.399    74807.904    40467.807    17529.516       16.448        6.640      442.382      142.738        0.104      349.218       29.482      855.919
07/15/2013  19:23:00     -257.384     -170.569        4.204      244.297      134.142       77.823    59681.209    17993.947     6056.446        8.953        4.187      308.773      110.783        0.129      349.209       29.467      855.929
07/15/2013  19:24:00     -352.867     -109.203      -12.095      148.336      151.920       82.862    22003.627    23079.689     6866.122        9.426        2.597      369.378       90.838        0.060      349.254       29.545      855.968
07/15/2013  19:25:00     -106.593      -42.370       19.916      134.658       83.399       68.999    18132.748     6955.442     4760.877        2.170        1.492      114.705       71.731        0.391      349.266       29.567      855.989
07/15/2013  19:26:00     -318.866      -97.422      -14.080      189.734      164.479       69.898    35998.952    27053.453     4885.668        8.964        3.397      333.416       77.470        0.054      349.255       29.545      855.981
07/15/2013  19:27:00     -268.526     -213.584        4.633      263.304      189.555      138.319    69329.132    35930.964    19132.106       12.104        6.220      343.110      144.717        0.178      349.128       29.325      855.972
07/15/2013  19:28:00     -288.758     -223.984       -9.588      194.911      159.065      109.257    37990.304    25301.670    11937.002       10.442        3.761      365.445      108.084        0.087      349.124       29.316      855.996
07/15/2013  19:29:00     -427.767     -226.785       -3.790      209.199      209.400       94.204    43764.145    43848.352     8874.345       16.544        4.824      484.166      100.404        0.043      349.096       29.269      856.002
07/15/2013  19:30:00     -390.666     -237.294      -21.612      224.482      193.244       96.076    50392.127    37343.292     9230.640       15.316        4.848      457.087       97.326        0.045      349.117       29.305      856.035
07/15/2013  19:31:00     -238.265     -147.473        0.196      225.194      160.524       96.978    50712.222    25767.830     9404.802        8.218        4.294      280.212      108.824        0.151      349.099       29.276      856.054
07/15/2013  19:32:00     -495.059     -209.465      -26.204      273.677      240.059      103.538    74899.241    57628.492    10720.159       21.642        7.162      537.549      110.521        0.042      349.043       29.178      856.068
07/15/2013  19:33:00     -361.828     -154.678      -13.377      235.885      162.344       73.475    55641.680    26355.707     5398.580       12.119        4.370      393.503      103.713        0.069      349.047       29.185      856.109
07/15/2013  19:34:00     -519.117     -135.370      -15.299      237.120      181.334       96.641    56226.077    32881.896     9339.416       19.322        4.922      536.477      103.673        0.037      348.997       29.099      856.110
07/15/2013  19:35:00     -478.582     -139.780      -16.691      227.141      161.373       94.325    51593.189    26041.390     8897.187       16.768        4.327      498.577      106.437        0.046      348.961       29.036      856.143
07/15/2013  19:36:00     -454.747      -77.583      -17.252      237.571      132.856       81.865    56439.892    17650.737     6701.817       14.694        4.040      461.318       93.051        0.041      348.964       29.041      856.153
07/15/2013  19:37:00     -304.296      -42.220       -0.478      176.774      141.140       80.012    31249.011    19920.568     6401.985        7.596        2.879      307.211       88.536        0.083      348.939       28.998      856.153
07/15/2013  19:38:00     -298.309      -94.472       10.245      230.192      180.712       95.039    52988.156    32656.766     9032.323        9.633        4.734      312.911      114.118        0.133      348.907       28.943      856.165
07/15/2013  19:39:00     -396.673     -150.145      -22.088      200.229      168.739       86.567    40091.632    28472.890     7493.843       12.820        3.803      424.138       89.878        0.045      348.878       28.892      856.143
07/15/2013  19:40:00     -144.104      -70.658       24.984      196.348      131.151       85.431    38552.682    17200.607     7298.400        4.470        3.153      160.494      102.135        0.405      348.898       28.927      856.107
07/15/2013  19:41:00     -341.054     -135.217       -4.784      167.683      153.450       84.516    28117.680    23546.967     7142.940        9.670        2.940      366.881       84.476        0.053      348.865       28.868      856.129
07/15/2013  19:42:00     -290.047      -79.023        3.127      174.993      132.029       77.468    30622.444    17431.707     6001.235        7.221        2.703      300.619       78.474        0.068      348.856       28.853      856.132
07/15/2013  19:43:00     -473.517     -178.241      -21.726      214.962      200.553       92.899    46208.555    40221.458     8630.226       17.574        4.753      505.953      109.876        0.047      348.789       28.737      856.166
07/15/2013  19:44:00     -279.839     -105.383       -9.389      164.110      147.448       75.604    26932.213    21740.937     5715.982        7.194        2.719      299.024       76.583        0.066      348.781       28.724      856.186
07/15/2013  19:45:00     -448.395     -180.296      -15.742      216.459      156.204       75.915    46854.485    24399.745     5763.149       15.540        3.851      483.285       52.742        0.012      348.775       28.714      856.185
07/15/2013  19:46:00     -478.807     -212.298       -0.338      269.339      208.018      106.105    72543.583    43271.567    11258.367       20.067        6.354      523.761      121.633        0.054      348.704       28.592      856.162
07/15/2013  19:47:00     -232.627     -170.897       17.183      271.885      203.750      119.063    73921.331    41513.949    14176.066       10.659        6.481      288.654      144.631        0.251      348.693       28.573      856.184
07/15/2013  19:48:00     -401.373      -86.031       -3.725      204.046      169.589       94.060    41634.684    28760.322     8847.192       12.386        3.962      410.489      106.148        0.067      348.662       28.518      856.223
07/15/2013  19:49:00     -367.989      -94.877      -22.076      240.654      120.223       94.981    57914.318    14453.512     9021.467       11.313        4.069      380.023      121.609        0.102      348.641       28.482      856.242
07/15/2013  19:50:00     -507.252     -142.431      -37.132      253.969      198.150       88.092    64500.235    39263.428     7760.218       19.522        5.576      526.869      102.738        0.038      348.613       28.433      856.255
07/15/2013  19:51:00     -245.146      -98.693       -3.397      188.250      141.365       80.039    35438.036    19983.964     6406.287        6.583        3.091      264.267       79.424        0.090      348.634       28.470      856.273
07/15/2013  19:52:00     -448.858     -109.599      -23.649      239.145      154.379       97.153    57190.204    23832.989     9438.709       15.224        4.523      462.045      108.824        0.055      348.569       28.357      856.270
07/15/2013  19:53:00     -327.905     -182.698       -9.417      244.268      219.635      107.317    59666.956    48239.398    11516.918       13.018        5.971      375.367      113.240        0.091      348.549       28.322      856.267
07/15/2013  19:54:00     -410.744     -186.062       -9.577      241.201      217.415       94.971    58178.058    47269.428     9019.569       15.892        5.723      450.921      122.699        0.074      348.569       28.356      856.268
07/15/2013  19:55:00     -206.460     -108.860       27.316      271.474      187.685      107.147    73698.094    35225.840    11480.553        8.779        6.020      233.401      131.300        0.316      348.503       28.244      856.283
07/15/2013  19:56:00     -145.163      -96.972       38.610      205.779      184.931      112.584    42344.968    34199.293    12675.062        6.058        4.461      174.573      121.764        0.487      348.517       28.268      856.267
07/15/2013  19:57:00     -404.529     -247.109      -15.538      248.970      214.013      114.944    61986.236    45801.633    13212.165       17.295        6.050      474.032      123.173        0.068      348.485       28.212      856.286
07/15/2013  19:58:00     -260.212      -88.999       17.392      194.641      156.069       94.093    37885.305    24357.478     8853.514        7.350        3.555      275.011      105.659        0.148      348.490       28.220      856.316
07/15/2013  19:59:00     -285.353      -29.057      -14.946      134.913      117.385       73.815    18201.556    13779.292     5448.669        5.995        1.871      286.828       74.583        0.068      348.494       28.226      856.336
07/15/2013  20:00:00     -181.864     -136.391       20.407      183.248      124.122       94.776    33579.726    15406.358     8982.533        5.502        2.898      227.326      104.752        0.212      348.466       28.180      856.328
07/15/2013  20:01:00     -250.806      -48.033       -2.638      164.812      118.285       68.409    27162.911    13991.259     4679.819        5.552        2.292      255.364       83.979        0.108      348.436       28.129      856.321
07/15/2013  20:02:00     -262.212     -133.452       17.118      194.592      161.315       90.131    37865.984    26022.539     8123.663        7.942        3.601      294.218       82.014        0.078      348.421       28.102      856.300
07/15/2013  20:03:00     -618.866     -257.581      -33.403      303.656      216.602      129.804    92207.002    46916.487    16849.153       30.318        7.799      670.330      149.853        0.050      348.399       28.063      856.266
07/15/2013  20:04:00     -531.070     -100.270      -21.096      187.780      138.656       94.249    35261.187    19225.369     8882.917       17.794        3.168      540.453      103.425        0.037      348.390       28.047      856.286
07/15/2013  20:05:00     -521.525     -182.103       -7.969      316.581      206.960      104.377   100223.827    42832.418    10894.649       22.955        7.698      552.403      124.464        0.051      348.360       27.995      856.290
07/15/2013  20:06:00     -389.644      -23.870      -16.093      239.556      163.168       89.025    57386.845    26623.880     7925.496       12.228        4.597      390.375       91.205        0.055      348.351       27.979      856.318
07/15/2013  20:07:00     -550.101     -104.301      -31.630      205.577      178.970       90.546    42261.724    32030.388     8198.518       19.847        4.125      559.901       85.144        0.023      348.333       27.949      856.352
07/15/2013  20:08:00     -400.499     -126.898      -10.446      244.554      210.243       89.946    59806.477    44202.123     8090.340       14.433        5.605      420.122       79.121        0.035      348.284       27.864      856.350
07/15/2013  20:09:00     -397.805     -188.322        4.838      249.676      194.403      108.038    62337.920    37792.613    11672.253       15.275        5.590      440.130      119.557        0.074      348.273       27.843      856.354
07/15/2013  20:10:00     -496.120      -78.561      -26.623      195.945      169.424       84.679    38394.281    28704.616     7170.509       16.363        3.713      502.301       87.119        0.030      348.241       27.788      856.337
07/15/2013  20:11:00     -255.963      -74.261       -1.890      170.438      167.240       75.079    29049.171    27969.344     5636.858        6.683        3.133      266.518       86.370        0.105      348.242       27.790      856.347
07/15/2013  20:12:00     -299.532     -120.410       -2.048      187.416      130.391       74.665    35124.657    17001.816     5574.931        8.095        2.885      322.828       82.059        0.065      348.233       27.775      856.382
07/15/2013  20:13:00     -378.995     -166.549       -5.889      263.636      188.208      117.263    69503.874    35422.348    13750.560       14.502        5.934      413.976      131.815        0.101      348.189       27.702      856.362
07/15/2013  20:14:00     -645.700     -171.260      -28.693      233.487      214.455      106.376    54516.150    45990.988    11315.775       27.943        5.591      668.026       83.101        0.015      348.182       27.689      856.384
07/15/2013  20:15:00     -362.982     -104.555      -24.797      175.347      138.614       79.119    30746.453    19213.704     6259.757        9.975        2.811      377.740       94.155        0.062      348.189       27.700      856.401
07/15/2013  20:16:00     -292.707      -31.765        3.175      176.850      121.287       73.934    31275.997    14710.441     5466.304        6.906        2.573      294.425       87.819        0.089      348.137       27.611      856.408
07/15/2013  20:17:00     -313.358     -241.303       -1.907      262.784      169.103      117.286    69055.370    28595.812    13756.119       13.389        5.570      395.500      129.532        0.107      348.153       27.638      856.405
07/15/2013  20:18:00     -438.723      -69.874      -23.843      235.517      196.368       97.240    55468.417    38560.510     9455.632       15.069        5.174      444.252      101.608        0.052      348.141       27.616      856.427
07/15/2013  20:19:00     -294.321      -95.820        1.444      194.135      141.371       87.210    37688.490    19985.896     7605.598        8.053        3.264      309.526       99.734        0.104      348.134       27.606      856.420
07/15/2013  20:20:00     -240.320      -59.104        6.321      190.079      130.182       77.264    36130.128    16947.261     5969.761        6.016        2.952      247.481       82.226        0.110      348.140       27.616      856.397
07/15/2013  20:21:00     -631.319     -208.680      -48.946      258.857      230.587      101.750    67007.053    53170.429    10353.123       28.749        6.527      664.915       98.357        0.022      348.123       27.585      856.430
07/15/2013  20:22:00     -385.729     -104.061      -19.969      214.816      147.102       82.190    46145.795    21639.103     6755.213       11.726        3.727      399.519      110.005        0.076      348.126       27.592      856.472
07/15/2013  20:23:00     -299.304      -98.042      -11.081      150.386      184.269       86.069    22615.808    33955.160     7407.801        8.164        3.199      314.953       73.730        0.055      348.124       27.586      856.441
07/15/2013  20:24:00     -404.745     -166.726       23.693      270.915      221.578      125.994    73394.690    49097.012    15874.544       16.524        6.918      437.740      146.604        0.112      348.056       27.469      856.391
07/15/2013  20:25:00     -410.331     -188.789       -7.613      278.797      227.317      111.641    77728.021    51672.821    12463.670       17.294        7.093      451.678      120.742        0.071      348.094       27.536      856.420
07/15/2013  20:26:00     -467.453     -173.060      -27.255      320.758      201.031      104.756   102885.628    40413.311    10973.892       20.171        7.714      498.460      130.964        0.069      348.085       27.520      856.453
07/15/2013  20:27:00     -301.847     -109.880       -6.204      209.432      166.668       96.527    43861.555    27778.136     9317.514        9.207        4.048      321.224      113.403        0.125      348.080       27.511      856.463
07/15/2013  20:28:00     -496.149     -154.215       -5.696      282.980      195.782       99.468    80077.477    38330.756     9893.799       19.911        6.415      519.564      130.208        0.063      348.065       27.486      856.491
07/15/2013  20:29:00     -299.684      -48.125        7.626      277.630      165.648      104.427    77078.649    27439.114    10905.019       10.378        5.771      303.524      134.591        0.197      348.041       27.443      856.490
07/15/2013  20:30:00     -464.973     -190.833      -17.996      303.058      251.724      108.074    91844.317    63364.956    11679.962       20.988        8.344      502.610      126.575        0.063      348.026       27.419      856.449
07/15/2013  20:31:00     -529.452     -218.704      -45.567      243.048      179.014       93.759    59072.313    32045.860     8790.794       21.505        4.995      572.845       95.512        0.028      348.038       27.436      856.494
07/15/2013  20:32:00     -509.868      -39.268       -4.786      284.841      148.216      107.756    81134.319    21967.870    11611.357       18.810        5.736      511.378      136.260        0.071      347.989       27.354      856.473
07/15/2013  20:33:00     -465.471     -134.559       -4.902      243.802      188.532       97.478    59439.565    35544.274     9501.929       16.962        5.224      484.530      104.702        0.047      347.994       27.366      856.487
07/15/2013  20:34:00     -733.255     -185.376      -25.224      279.156      233.245      130.463    77928.238    54403.404    17020.661       36.098        7.468      756.325      138.478        0.034      347.991       27.358      856.514
07/15/2013  20:35:00     -413.227     -102.850       10.721      255.309      223.505      130.875    65182.529    49954.330    17128.330       15.683        6.613      425.834      126.634        0.088      348.006       27.384      856.518
07/15/2013  20:36:00     -229.603     -213.887      -17.901      205.801      171.660      112.326    42354.107    29467.066    12617.159        9.159        4.222      313.791      122.099        0.151      348.000       27.374      856.509
07/15/2013  20:37:00     -488.852     -123.302      -24.594      306.913      173.045      101.151    94195.801    29944.560    10231.485       19.455        6.719      504.162      126.596        0.063      347.968       27.319      856.498
07/15/2013  20:38:00     -433.619     -234.427       13.686      284.926      281.003      127.135    81183.064    78962.848    16163.274       20.970        8.815      492.931      156.230        0.100      347.938       27.267      856.455
07/15/2013  20:39:00     -586.099     -125.220      -16.205      286.409      240.821      128.452    82030.167    57994.744    16499.880       25.796        7.826      599.326      152.137        0.064      347.935       27.260      856.548
07/15/2013  20:40:00     -350.830      -70.889      -13.822      253.769      196.195      108.391    64398.696    38492.546    11748.657       12.145        5.732      357.920      119.626        0.112      347.953       27.293      856.609
07/15/2013  20:41:00     -367.327        5.508      -32.710      187.159      141.148       79.263    35028.486    19922.843     6282.701        9.862        3.062      367.368       82.481        0.050      347.933       27.257      856.606
07/15/2013  20:42:00     -448.359     -109.041      -19.213      202.667      152.733       87.903    41073.945    23327.364     7726.865       14.269        3.606      461.428       98.071        0.045      347.897       27.195      856.569
07/15/2013  20:43:00     -353.830     -140.484      -15.947      202.932      153.780       96.514    41181.368    23648.428     9314.914       10.965        3.707      380.698       96.003        0.064      347.897       27.196      856.589
07/15/2013  20:44:00     -536.838     -120.391      -39.181      192.408      165.764       85.264    37020.941    27477.680     7269.957       18.798        3.588      550.171       61.468        0.012      347.889       27.181      856.623
07/15/2013  20:45:00     -332.502     -176.544       -8.851      223.911      210.119      112.159    50136.024    44150.041    12579.689       12.431        5.343      376.465      119.564        0.101      347.858       27.128      856.614
07/15/2013  20:46:00     -563.901     -105.859      -30.955      285.124      228.964      104.654    81295.573    52424.558    10952.514       23.738        7.234      573.751      105.861        0.034      347.861       27.134      856.604
07/15/2013  20:47:00     -647.759      -62.125      -43.196      277.318      204.730      112.132    76905.431    41914.507    12573.535       27.833        6.570      650.731      124.105        0.036      347.834       27.086      856.621
07/15/2013  20:48:00     -268.352      -46.553        3.271      221.687      135.413       89.001    49145.293    18336.549     7921.178        7.478        3.770      272.360       98.808        0.132      347.843       27.102      856.641
07/15/2013  20:49:00     -325.875     -176.926       -2.831      196.353      157.772      111.562    38554.608    24892.124    12445.973       10.668        3.795      370.806      107.791        0.085      347.822       27.064      856.656
07/15/2013  20:50:00     -448.833      -58.989      -14.448      144.879      155.741       81.050    20990.022    24255.401     6569.037       12.847        2.591      452.693       70.500        0.024      347.785       27.002      856.645
07/15/2013  20:51:00     -357.913     -126.194      -22.364      166.211      142.771       81.877    27626.000    20383.592     6703.890        9.961        2.736      379.508       75.400        0.039      347.768       26.973      856.602
07/15/2013  20:52:00     -396.051     -152.359        7.810      254.502      148.344       93.182    64771.103    22005.884     8682.815       13.778        4.773      424.346       95.953        0.051      347.723       26.897      856.583
07/15/2013  20:53:00     -406.469     -213.484       11.171      266.662      193.953      121.616    71108.730    37617.933    14790.422       16.719        6.176      459.121      126.023        0.075      347.738       26.922      856.571
07/15/2013  20:54:00     -413.291     -263.579      -13.836      231.234      227.049      107.781    53469.191    51551.311    11616.678       17.853        5.832      490.187       96.813        0.039      347.744       26.933      856.644
07/15/2013  20:55:00     -346.167     -158.143       -0.733      285.168      231.250      110.696    81321.043    53476.732    12253.602       14.592        7.353      380.579      137.708        0.131      347.741       26.928      856.672
07/15/2013  20:56:00     -413.493     -210.829        3.258      305.768      212.164      112.098    93493.886    45013.720    12565.910       18.322        7.554      464.140      138.617        0.089      347.736       26.917      856.671
07/15/2013  20:57:00     -335.997      -98.281       18.378      200.904      196.885      102.017    40362.513    38763.795    10407.551       10.619        4.477      350.076      114.341        0.107      347.726       26.901      856.684
07/15/2013  20:58:00     -298.544      -64.477        7.600      216.506      158.864       91.344    46875.061    25237.871     8343.679        8.688        4.023      305.427      113.430        0.138      347.677       26.818      856.660
07/15/2013  20:59:00     -349.776     -242.853      -17.366      238.515      169.645      107.501    56889.587    28779.578    11556.502       13.940        4.861      425.818      111.309        0.068      347.688       26.836      856.666
07/15/2013  21:00:00     -477.384     -119.468      -37.232      215.691      177.292       85.272    46522.520    31432.361     7271.342       16.437        4.261      492.106       88.874        0.033      347.688       26.834      856.721
07/15/2013  21:01:00     -466.630     -130.068      -25.086      182.255      181.371       94.498    33216.971    32895.544     8929.804       15.515        3.752      484.419       95.379        0.039      347.671       26.805      856.722
07/15/2013  21:02:00     -430.611     -142.873      -22.614      279.605      183.898      102.258    78178.844    33818.360    10456.600       16.438        6.123      453.695      103.479        0.052      347.653       26.775      856.667
07/15/2013  21:03:00     -588.610     -187.704      -21.650      307.392      207.609      116.754    94489.904    43101.460    13631.396       26.666        7.561      617.814      129.385        0.044      347.646       26.762      856.683
07/15/2013  21:04:00     -445.424     -209.813      -27.370      277.148      238.255      124.608    76810.814    56765.392    15527.096       19.611        7.455      492.366      156.190        0.101      347.658       26.782      856.711
07/15/2013  21:05:00     -481.638     -179.491      -14.499      292.972      198.853      120.611    85832.878    39542.344    14547.056       20.213        6.996      513.996      133.911        0.068      347.651       26.771      856.762
07/15/2013  21:06:00     -473.176       18.950      -21.341      216.105      179.379       86.454    46701.314    32176.792     7474.232       15.551        4.318      473.556       83.828        0.031      347.640       26.751      856.835
07/15/2013  21:07:00     -412.778      -51.059      -14.124      242.318      172.364       77.261    58717.917    29709.487     5969.290       13.378        4.720      415.924      103.987        0.063      347.616       26.710      856.844
07/15/2013  21:08:00     -279.577      -62.523        3.500      188.633      119.902       81.142    35582.366    14376.406     6584.065        6.930        2.827      286.483       99.935        0.122      347.594       26.675      856.836
07/15/2013  21:09:00     -223.800      -47.276        1.361      203.331      131.821       86.123    41343.519    17376.770     7417.208        5.922        3.307      228.739      101.013        0.195      347.575       26.641      856.804
07/15/2013  21:10:00     -256.896      -93.610       -0.409      192.516      149.301       79.206    37062.389    22290.906     6273.635        7.018        3.281      273.419       90.453        0.109      347.551       26.600      856.849
07/15/2013  21:11:00     -406.240     -133.082       -4.929      231.289      188.936      102.976    53494.650    35696.752    10604.025       14.126        4.990      427.483      115.664        0.073      347.557       26.610      856.805
07/15/2013  21:12:00     -352.043     -303.287      -14.108      275.909      264.714      155.034    76125.624    70073.587    24035.665       19.314        8.512      464.669      185.802        0.160      347.532       26.567      856.792
07/15/2013  21:13:00     -546.139     -211.853      -39.086      265.309      238.215      129.427    70388.876    56746.525    16751.297       24.425        7.194      585.790      130.507        0.050      347.549       26.595      856.808
07/15/2013  21:14:00     -342.746     -207.821       -9.774      231.616      161.603      112.109    53646.147    26115.687    12568.534       12.653        4.617      400.830      121.455        0.092      347.544       26.586      856.887
07/15/2013  21:15:00     -457.570     -141.007      -30.434      196.142      154.963       88.467    38471.618    24013.427     7826.386       15.023        3.516      478.804       77.250        0.026      347.530       26.561      856.924
07/15/2013  21:16:00     -204.247     -131.657       -2.738      157.654      149.942       71.917    24854.696    22482.457     5172.076        5.577        2.625      243.002       58.561        0.058      347.508       26.526      856.958
07/15/2013  21:17:00     -267.198       45.478       -6.229      222.384      106.632       76.322    49454.558    11370.424     5825.068        7.006        3.333      271.040       94.502        0.122      347.478       26.473      856.926
07/15/2013  21:18:00     -385.711     -134.132       -9.344      231.157      217.641      110.131    53433.468    47367.452    12128.820       13.987        5.646      408.368      121.679        0.089      347.453       26.428      856.947
07/15/2013  21:19:00     -271.038     -165.831        7.623      190.874      167.353       97.142    36432.729    28006.934     9436.544        8.743        3.694      317.744      108.724        0.117      347.475       26.468      856.932
07/15/2013  21:20:00     -274.793      -61.820       -4.263      179.587      150.195       77.455    32251.562    22558.453     5999.241        7.007        3.040      281.661       88.619        0.099      347.476       26.470      856.968
07/15/2013  21:21:00     -643.456     -174.368      -53.325      223.580      179.188       96.351    49987.883    32108.368     9283.594       26.931        4.569      666.663       91.238        0.019      347.446       26.416      856.985
07/15/2013  21:22:00     -290.342      -69.130       10.871      210.844      178.085       91.930    44455.277    31714.217     8451.110        8.689        4.231      298.459      103.426        0.120      347.447       26.419      856.993
07/15/2013  21:23:00     -435.600     -125.803      -11.708      187.967      147.366       87.816    35331.443    21716.808     7711.673       13.522        3.238      453.403       86.439        0.036      347.411       26.358      856.994
07/15/2013  21:24:00     -440.270     -159.601      -16.282      181.347      190.676       88.291    32886.801    36357.490     7795.375       14.829        3.852      468.305       80.439        0.030      347.405       26.346      857.009
07/15/2013  21:25:00     -382.788     -267.445      -18.940      211.761      209.109      116.351    44842.773    43726.633    13537.631       16.024        5.105      466.962      120.309        0.066      347.411       26.356      856.969
07/15/2013  21:26:00     -356.002      -90.747       19.865      260.811      197.184      117.670    68022.407    38881.716    13846.194       12.803        6.038      367.386      140.114        0.145      347.404       26.345      856.994
07/15/2013  21:27:00     -373.057     -168.284        3.361      245.118      218.379      112.044    60082.811    47689.543    12553.809       14.389        6.016      409.257      124.744        0.093      347.376       26.297      857.046
07/15/2013  21:28:00     -494.974     -311.245      -14.870      277.532      237.625      132.013    77024.087    56465.531    17427.477       24.648        7.546      584.698      131.936        0.051      347.398       26.335      857.055
07/15/2013  21:29:00     -351.758      -98.373      -11.443      286.405      158.186      102.940    82027.628    25022.785    10596.621       12.557        5.882      365.255      134.090        0.135      347.406       26.349      857.155
07/15/2013  21:30:00     -432.004      -77.534      -11.627      204.103      155.620       85.481    41658.104    24217.602     7306.928       13.296        3.659      438.907       99.277        0.051      347.369       26.286      857.206
07/15/2013  21:31:00     -519.306      -91.559      -30.319      164.337      163.140       79.544    27006.737    26614.625     6327.234       16.945        2.997      527.315       80.259        0.023      347.341       26.237      857.243
07/15/2013  21:32:00     -360.291      -46.691      -19.314      214.195      169.299       96.540    45879.285    28662.176     9319.988       10.810        4.193      363.304      106.690        0.086      347.339       26.233      857.208
07/15/2013  21:33:00     -298.253      -87.499       21.923      234.775      150.056       88.885    55119.458    22516.822     7900.564        9.130        4.277      310.823      112.128        0.130      347.326       26.210      857.180
07/15/2013  21:34:00     -243.285      -85.630       -3.317      172.529      140.865       70.842    29766.417    19842.886     5018.655        6.057        2.731      257.914       70.964        0.076      347.294       26.155      857.202
07/15/2013  21:35:00     -430.187      -66.826      -23.656      221.190      143.310       81.487    48924.921    20537.646     6640.077       13.308        3.805      435.346       97.189        0.050      347.272       26.116      857.235
07/15/2013  21:36:00     -610.985     -100.990      -31.665      244.389      153.106       99.976    59725.758    23441.500     9995.270       23.881        4.658      619.275      115.847        0.035      347.279       26.129      857.249
07/15/2013  21:37:00     -221.148      -24.583       -5.504      196.421      125.432       74.164    38581.262    15733.223     5500.248        5.467        2.991      222.510       96.562        0.188      347.267       26.110      857.242
07/15/2013  21:38:00     -312.568      -88.201      -14.216      243.715      119.198       89.871    59397.132    14208.107     8076.733        9.366        4.084      324.774      116.122        0.128      347.289       26.147      857.209
07/15/2013  21:39:00     -400.310     -164.788        1.809      240.633      128.062       90.207    57904.466    16399.827     8137.362       13.491        4.122      432.901      112.221        0.067      347.281       26.132      857.251
07/15/2013  21:40:00     -435.129     -107.746      -16.491      284.831      176.870       98.422    81128.505    31283.133     9686.874       16.163        6.105      448.270      131.073        0.085      347.279       26.130      857.328
07/15/2013  21:41:00     -297.439      -78.222      -14.472      179.432      125.739       62.725    32195.895    15810.196     3934.386        7.336        2.597      307.552       50.332        0.027      347.270       26.114      857.329
07/15/2013  21:42:00     -258.346      -44.600       -4.744      162.132      164.449       84.408    26286.891    27043.364     7124.729        6.459        3.023      262.167       87.468        0.111      347.234       26.053      857.310
07/15/2013  21:43:00     -334.296     -106.010      -12.158      175.164      114.429       69.751    30682.365    13093.908     4865.265        8.588        2.432      350.702       79.954        0.052      347.222       26.030      857.333
07/15/2013  21:44:00     -428.676     -115.440      -15.668      236.508      197.315      101.626    55935.805    38933.013    10327.907       15.125        5.260      443.947      119.042        0.072      347.225       26.037      857.334
07/15/2013  21:45:00     -327.058     -128.949       -6.518      211.130      166.405       86.489    44575.909    27690.634     7480.277       10.168        3.987      351.560       85.240        0.059      347.201       25.995      857.399
07/15/2013  21:46:00     -350.196     -167.628      -18.172      170.541      137.807       81.172    29084.215    18990.880     6588.907       10.285        2.733      388.248       77.781        0.040      347.235       26.053      857.449
07/15/2013  21:47:00     -282.218      -68.928      -13.126      111.997      126.635       59.093    12543.368    16036.532     3492.025        5.831        1.604      290.514       49.778        0.029      347.200       25.993      857.456
07/15/2013  21:48:00     -382.102     -120.863      -19.895      191.161      142.875       84.795    36542.413    20413.257     7190.200       11.256        3.207      400.762       91.261        0.052      347.208       26.006      857.448
07/15/2013  21:49:00     -362.007     -158.429      -16.253      163.454      164.711       74.996    26717.127    27129.597     5624.459       10.793        2.974      395.156       80.859        0.042      347.218       26.023      857.478
07/15/2013  21:50:00     -272.319      -73.752      -13.642      146.426      129.797       71.460    21440.594    16847.191     5106.464        6.158        2.170      282.129       61.065        0.047      347.197       25.989      857.466
07/15/2013  21:51:00     -356.070     -120.888      -11.498      209.171      178.256       91.109    43752.338    31775.097     8300.904       11.266        4.191      376.031       96.681        0.066      347.191       25.978      857.491
07/15/2013  21:52:00     -270.362     -164.260        0.226      218.299      154.940       90.216    47654.619    24006.472     8138.898        8.992        3.990      316.349       97.856        0.096      347.175       25.953      857.504
07/15/2013  21:53:00     -276.621     -111.777       -8.058      159.472      137.349       77.256    25431.246    18864.723     5968.549        6.966        2.513      298.351       68.250        0.052      347.164       25.932      857.512
07/15/2013  21:54:00     -181.946      -80.094        3.966      158.313      167.969       95.504    25062.996    28213.620     9121.034        5.095        3.120      198.795       93.920        0.223      347.129       25.871      857.509
07/15/2013  21:55:00     -348.010       10.924        4.384      178.763      140.001       77.781    31956.117    19600.250     6049.807        8.942        2.880      348.182       83.414        0.057      347.124       25.863      857.534
07/15/2013  21:56:00     -398.621      -50.019      -26.751      192.940      116.138       86.888    37225.723    13487.957     7549.581       11.018        2.913      401.747       99.021        0.061      347.115       25.848      857.511
07/15/2013  21:57:00     -489.217     -136.039      -17.298      240.517      195.145      100.292    57848.363    38081.464    10058.508       18.204        5.299      507.779      110.970        0.048      347.121       25.857      857.492
07/15/2013  21:58:00     -424.002     -120.763      -20.168      223.793      204.995      112.297    50083.233    42023.056    12610.709       14.972        5.236      440.864      113.326        0.066      347.114       25.845      857.496
07/15/2013  21:59:00     -359.291      -50.050      -18.406      206.526      145.939       81.431    42653.175    21298.184     6630.966       10.124        3.529      362.760       95.682        0.070      347.120       25.857      857.521
07/15/2013  22:00:00     -288.062     -122.990        0.652      193.560      203.351       85.192    37465.634    41351.480     7257.709        9.207        4.304      313.220       99.263        0.100      347.110       25.838      857.536
07/15/2013  22:01:00     -176.559      -99.036       20.509      168.556      102.577       76.441    28411.101    10521.964     5843.289        4.308        2.239      202.438       88.572        0.191      347.122       25.860      857.540
07/15/2013  22:02:00     -243.263      -65.162       11.541      175.038      141.478       87.432    30638.272    20016.059     7644.436        6.092        2.915      251.839      105.840        0.177      347.092       25.808      857.540
07/15/2013  22:03:00     -257.794      -96.292        9.843      153.703      138.491       64.194    23624.683    19179.708     4120.883        6.137        2.346      275.190       60.012        0.048      347.050       25.735      857.537
07/15/2013  22:04:00     -245.345      -14.546      -11.351      105.225       88.323       58.184    11072.278     7800.992     3385.360        4.139        1.113      245.775       47.488        0.037      347.030       25.700      857.527
07/15/2013  22:05:00     -374.933        9.337      -19.755      192.776      137.301       69.137    37162.522    18851.636     4779.985       10.091        3.040      375.050       85.612        0.052      346.992       25.636      857.534
07/15/2013  22:06:00     -490.563      -69.033      -27.567      195.005      166.547       82.720    38026.793    27737.765     6842.606       15.938        3.630      495.396       89.921        0.033      347.010       25.667      857.536
07/15/2013  22:07:00     -287.935      -84.411        7.421      227.110      208.789      102.635    51578.908    43592.885    10534.033        9.787        5.285      300.053      123.602        0.170      347.030       25.699      857.515
07/15/2013  22:08:00     -465.039        4.423      -28.045      166.740      129.589       89.466    27802.156    16793.437     8004.149       13.482        2.630      465.060       94.218        0.041      346.977       25.610      857.531
07/15/2013  22:09:00     -416.030      -77.815      -15.851      219.728      173.599       91.343    48280.513    30136.580     8343.512       13.306        4.338      423.245       98.829        0.055      347.016       25.676      857.555
07/15/2013  22:10:00     -473.774      -40.731      -34.031      173.897      150.387       67.415    30240.134    22616.389     4544.756       14.233        2.870      475.522       60.517        0.016      347.004       25.656      857.573
07/15/2013  22:11:00     -424.738      -99.557      -21.981      140.562      167.281       73.788    19757.793    27982.869     5444.713       12.198        2.659      436.250       62.548        0.021      346.987       25.626      857.576
07/15/2013  22:12:00     -343.722      -77.718      -17.749      120.090      135.434       64.916    14421.576    18342.487     4214.045        8.073        1.849      352.399       46.694        0.018      346.969       25.596      857.570
07/15/2013  22:13:00     -368.000      -86.904      -18.609      149.391      145.267       73.043    22317.651    21102.487     5335.224        9.603        2.438      378.122       74.070        0.038      346.964       25.587      857.573
07/15/2013  22:14:00     -450.122     -127.737      -34.831      125.704      164.878       86.633    15801.380    27184.835     7505.234       13.531        2.525      467.896       61.614        0.017      346.965       25.591      857.556
07/15/2013  22:15:00     -405.958       11.576      -27.913      222.837      118.581       72.618    49656.259    14061.438     5273.422       11.734        3.450      406.123       92.714        0.052      346.955       25.573      857.555
07/15/2013  22:16:00     -361.690      -67.330       -2.595      203.537      115.708       79.570    41427.287    13388.432     6331.406        9.824        3.057      367.903      105.106        0.082      346.930       25.529      857.553
07/15/2013  22:17:00     -435.927      -92.079       -3.357      144.598      140.198       70.833    20908.507    19655.417     5017.253       12.204        2.279      445.545       56.452        0.016      346.934       25.534      857.548
07/15/2013  22:18:00     -325.826      -67.440      -12.505      115.389      119.210       68.091    13314.575    14210.935     4636.408        7.151        1.608      332.732       59.024        0.031      346.931       25.530      857.547
07/15/2013  22:19:00     -373.850        8.943      -22.719      169.446      140.536       83.281    28711.787    19750.355     6935.771        9.787        2.770      373.957       83.955        0.050      346.925       25.522      857.555
07/15/2013  22:20:00     -374.962     -115.825      -14.791      171.535      103.974       80.652    29424.216    10810.576     6504.821       10.048        2.337      392.444       81.460        0.043      346.927       25.522      857.532
07/15/2013  22:21:00     -511.611     -119.730      -22.591      164.706      152.044       87.908    27128.178    23117.464     7727.735       16.727        2.899      525.435       85.445        0.026      346.928       25.526      857.513
07/15/2013  22:22:00     -419.186      -31.633      -28.097      170.752      128.805       74.430    29156.130    16590.758     5539.774       11.439        2.564      420.378       66.783        0.025      346.899       25.473      857.514
07/15/2013  22:23:00     -443.078      -59.145       -5.376      193.508      118.327       83.757    37445.306    14001.359     7015.235       12.914        2.923      447.008       92.232        0.043      346.887       25.454      857.499
07/15/2013  22:24:00     -391.392      -64.636        2.989      170.257      113.340       75.574    28987.445    12845.846     5711.451       10.245        2.377      396.693       78.560        0.039      346.871       25.427      857.495
07/15/2013  22:25:00     -445.149      -46.049       -1.382      148.391      141.360       74.422    22019.747    19982.524     5538.671       12.390        2.377      447.525       69.856        0.024      346.890       25.458      857.518
07/15/2013  22:26:00     -444.919      -25.317      -19.013      161.494      146.249       75.870    26080.180    21388.688     5756.202       12.608        2.661      445.639       83.666        0.035      346.903       25.480      857.523
07/15/2013  22:27:00     -275.821      -42.663       -9.081      109.183      116.963       59.983    11920.984    13680.279     3597.937        5.358        1.460      279.101       43.536        0.024      346.872       25.428      857.521
07/15/2013  22:28:00     -383.945      -15.416      -36.928      164.368       97.239       67.133    27016.815     9455.442     4506.886        9.499        2.049      384.254       80.829        0.044      346.855       25.400      857.538
07/15/2013  22:29:00     -400.140      -87.255      -10.118      190.268      140.178       69.121    36201.904    19649.779     4777.669       11.422        3.031      409.543       75.856        0.034      346.850       25.391      857.530
07/15/2013  22:30:00     -273.489      -87.392      -23.090      135.133       91.307       56.633    18260.998     8336.969     3207.274        5.638        1.490      287.112       56.524        0.039      346.838       25.371      857.542
07/15/2013  22:31:00     -309.064      -43.433      -11.550      156.951      108.473       66.621    24633.579    11766.302     4438.365        6.918        2.042      312.100       64.514        0.043      346.814       25.330      857.536
07/15/2013  22:32:00     -318.322      -61.947       -7.707      123.433      106.096       64.084    15235.633    11256.337     4106.814        6.791        1.530      324.294       61.087        0.035      346.805       25.312      857.537
07/15/2013  22:33:00     -323.135     -103.431      -18.397      150.040      128.726       74.282    22511.945    16570.440     5517.830        8.002        2.230      339.284       72.757        0.046      346.818       25.336      857.522
07/15/2013  22:34:00     -394.032      -12.144       -6.427      204.454      132.546       70.470    41801.642    17568.510     4966.020       10.988        3.217      394.219       83.780        0.045      346.836       25.367      857.506
07/15/2013  22:35:00     -416.769      -80.862      -26.317      162.611      162.143       75.766    26442.400    26290.404     5740.546       11.969        2.924      424.541       72.135        0.029      346.817       25.334      857.501
07/15/2013  22:36:00     -356.234      -45.825      -15.664      222.764      136.033       80.440    49623.665    18504.964     6470.572       10.191        3.730      359.169       94.639        0.069      346.807       25.318      857.492
07/15/2013  22:37:00     -384.195      -47.579      -10.661      244.053      109.429       78.509    59562.087    11974.701     6163.636       11.383        3.885      387.130       87.782        0.051      346.802       25.308      857.493
07/15/2013  22:38:00     -364.339      -65.270      -30.720      205.588      135.830       77.842    42266.562    18449.916     6059.385       10.235        3.339      370.139       96.636        0.068      346.787       25.283      857.478
07/15/2013  22:39:00     -425.197     -105.261       -0.029      204.268      135.578       87.815    41725.541    18381.405     7711.409       12.983        3.391      438.032       94.490        0.047      346.788       25.284      857.460
07/15/2013  22:40:00     -350.826     -114.555       -3.474      154.688       93.677       58.407    23928.513     8775.317     3411.334        8.616        1.806      369.056       68.926        0.035      346.785       25.280      857.466
07/15/2013  22:41:00     -427.717      -85.445      -30.386      150.805      133.676       68.418    22742.014    17869.218     4680.973       11.822        2.265      436.168       76.771        0.031      346.762       25.238      857.462
07/15/2013  22:42:00     -278.643      -39.389      -12.411      191.314      104.130       67.816    36601.062    10843.002     4598.975        6.568        2.602      281.413       79.941        0.081      346.759       25.235      857.449
07/15/2013  22:43:00     -196.028      -94.510       -4.792      149.469      102.843       58.231    22340.901    10576.697     3390.903        4.184        1.815      217.621       68.711        0.100      346.751       25.221      857.438
07/15/2013  22:44:00     -354.562      -38.259       -6.904      204.843      142.047       87.477    41960.553    20177.240     7652.307        9.849        3.490      356.620      101.607        0.081      346.753       25.223      857.444
07/15/2013  22:45:00     -239.406      -93.091       -6.796      167.119      121.777       71.584    27928.659    14829.603     5124.287        5.695        2.394      256.868       82.042        0.102      346.748       25.215      857.440
07/15/2013  22:46:00     -155.693      -83.277        7.839      126.148      117.650       64.389    15913.424    13841.500     4145.907        3.256        1.695      176.566       72.770        0.170      346.718       25.164      857.455
07/15/2013  22:47:00     -360.909     -124.961      -13.986      254.852      135.711       78.421    64949.498    18417.608     6149.874       11.777        4.476      381.930      105.892        0.077      346.735       25.195      857.453
07/15/2013  22:48:00     -356.231     -141.791       -0.272      152.989      149.793       78.481    23405.777    22438.077     6159.215        9.949        2.600      383.413       79.936        0.043      346.750       25.217      857.439
07/15/2013  22:49:00     -470.183      -59.758      -27.871      167.473      134.059       68.921    28047.222    17971.723     4750.054       13.808        2.538      473.965       67.145        0.020      346.765       25.244      857.434
07/15/2013  22:50:00     -164.886        8.998       14.366      144.643       94.891       65.373    20921.715     9004.213     4273.577        3.083        1.710      165.131       65.541        0.158      346.705       25.142      857.447
07/15/2013  22:51:00     -330.357      -27.738       -7.396      196.532      132.503       86.279    38624.967    17557.091     7444.129        8.678        3.181      331.519       94.676        0.082      346.694       25.122      857.452
07/15/2013  22:52:00     -442.681      -99.634       -3.897      201.566      174.138       82.937    40628.726    30324.203     6878.581       14.185        3.892      453.755       98.552        0.047      346.715       25.157      857.448
07/15/2013  22:53:00     -308.942      -55.012       -0.721      244.535      169.177       77.567    59797.256    28620.805     6016.644        9.643        4.722      313.802       93.526        0.089      346.716       25.160      857.449
07/15/2013  22:54:00     -372.411     -122.189      -19.447      158.095      111.680       63.027    24994.049    12472.470     3972.415        9.771        2.072      391.944       66.547        0.029      346.697       25.127      857.491
07/15/2013  22:55:00     -285.977     -104.590       -7.365      147.358      127.474       62.352    21714.422    16249.746     3887.775        6.731        2.093      304.502       62.352        0.042      346.686       25.109      857.480
07/15/2013  22:56:00     -364.296      -82.517        0.614      179.102      142.212       78.535    32077.476    20224.172     6167.736        9.898        2.923      373.525       87.764        0.055      346.668       25.076      857.473
07/15/2013  22:57:00     -349.547      -24.207      -15.458      218.315      118.605       79.115    47661.537    14067.168     6259.248        9.548        3.399      350.384      101.263        0.084      346.700       25.132      857.450
07/15/2013  22:58:00     -304.364      -55.768      -10.736      122.304      117.197       65.011    14958.333    13735.121     4226.483        6.438        1.646      309.431       68.265        0.049      346.671       25.082      857.452
07/15/2013  22:59:00     -268.375       -0.519       -8.923      137.036      102.150       57.898    18778.911    10434.532     3352.136        5.233        1.628      268.375       62.356        0.054      346.667       25.077      857.441
07/15/2013  23:00:00     -287.076      -51.707      -16.539      117.483       97.112       53.776    13802.172     9430.804     2891.813        5.574        1.306      291.695       53.640        0.034      346.686       25.108      857.433
07/15/2013  23:01:00     -183.673      -72.212       -9.008      121.568       82.170       47.050    14778.700     6751.943     2213.671        3.138        1.187      197.358       48.066        0.059      346.673       25.086      857.415
07/15/2013  23:02:00     -233.771     -137.667       -8.368      159.786      124.713       79.063    25531.432    15553.309     6251.009        6.049        2.367      271.295       88.355        0.106      346.716       25.160      857.405
07/15/2013  23:03:00     -183.146      -71.460       -1.124      109.456       74.261       48.003    11980.558     5514.706     2304.301        2.922        0.990      196.594       54.389        0.077      346.790       25.288      857.421
07/15/2013  23:04:00     -155.475      -78.639       -9.112       57.445       90.815       34.163     3299.912     8247.357     1167.113        2.157        0.636      174.231       30.761        0.031      346.747       25.215      857.451
07/15/2013  23:05:00      -36.978       -3.929       17.223       77.729       52.184       37.059     6041.764     2723.121     1373.344        0.591        0.507       37.186       27.340        0.541      346.720       25.170      857.442
07/15/2013  23:06:00      -55.925      -35.758       19.432       63.885       44.549       37.737     4081.312     1984.599     1424.066        0.614        0.374       66.379       38.018        0.328      346.701       25.138      857.447
07/15/2013  23:07:00      -36.642       -3.721       14.859       53.259       41.364       28.619     2836.506     1710.993      819.072        0.347        0.268       36.830       21.200        0.331      346.652       25.052      857.443
07/15/2013  23:08:00      -74.021      -28.140       -5.150       60.990       48.906       20.078     3719.772     2391.795      403.123        0.640        0.326       79.189       19.581        0.061      346.661       25.068      857.462
07/15/2013  23:09:00      -61.521      -73.345       17.588       64.291       67.243       44.449     4133.337     4521.620     1975.692        1.005        0.532       95.731       44.988        0.221      346.701       25.137      857.451
07/15/2013  23:10:00      -75.684      -43.258       10.837       84.063       69.103       47.120     7066.543     4775.175     2220.302        1.089        0.703       87.174       49.006        0.316      346.671       25.085      857.443
07/15/2013  23:11:00      -52.067      -26.933        6.924       65.816       55.616       31.822     4331.759     3093.143     1012.663        0.596        0.422       58.620       28.609        0.238      346.635       25.024      857.455
07/15/2013  23:12:00     -119.955      -65.373       -4.727       68.640       54.045       31.340     4711.435     2920.841      982.186        1.365        0.431      136.612       37.357        0.075      346.668       25.080      857.460
07/15/2013  23:13:00      -47.361      -31.413        9.690       45.176       50.719       26.873     2040.897     2572.372      722.149        0.433        0.267       56.832       31.228        0.302      346.584       24.935      857.473
07/15/2013  23:14:00      -93.508     -113.934       -7.912      130.908       72.365       51.893    17136.904     5236.667     2692.905        2.342        1.253      147.393       52.598        0.127      346.659       25.064      857.448
07/15/2013  23:15:00     -162.182      -12.417      -18.659      101.328      107.535       37.195    10267.458    11563.870     1383.441        2.501        1.161      162.657       35.620        0.048      346.660       25.064      857.437
07/15/2013  23:16:00     -140.752      -60.890      -11.723       82.759       67.261       27.704     6849.021     4523.987      767.517        1.790        0.607      153.358       22.701        0.022      346.666       25.076      857.443
07/15/2013  23:17:00     -215.145      -52.430       -5.835       77.007       68.033       39.979     5930.150     4628.437     1598.334        3.061        0.608      221.441       38.423        0.030      346.706       25.143      857.441
07/15/2013  23:18:00      -71.367      -46.512        4.964       57.708       43.518       31.408     3330.249     1893.777      986.448        0.674        0.311       85.186       29.132        0.117      346.627       25.010      857.456
07/15/2013  23:19:00     -174.968     -109.462       -6.426       76.225       73.340       47.849     5810.275     5378.822     2289.520        2.806        0.674      206.387       35.507        0.030      346.701       25.135      857.440
07/15/2013  23:20:00     -205.008       21.298      -10.398       74.306       81.266       43.446     5521.449     6604.116     1887.561        2.830        0.701      206.111       35.735        0.030      346.663       25.068      857.435
07/15/2013  23:21:00     -130.464      -87.738        3.217       75.557       66.864       45.672     5708.914     4470.789     2085.913        1.850        0.613      157.223       44.286        0.079      346.727       25.180      857.438
07/15/2013  23:22:00     -133.456      -43.885       -4.346      101.833       60.900       39.839    10369.919     3708.772     1587.162        1.771        0.783      140.486       47.923        0.116      346.703       25.140      857.469
07/15/2013  23:23:00     -172.356      -12.647       -9.567       91.727       44.843       28.309     8413.824     2010.896      801.387        2.059        0.561      172.819       28.636        0.027      346.716       25.161      857.486
07/15/2013  23:24:00      -64.903       -2.242       -2.304       39.574       36.084       21.596     1566.104     1302.078      466.374        0.378        0.167       64.942       18.286        0.079      346.626       25.009      857.486
07/15/2013  23:25:00     -100.378     -104.036        7.817      101.260       95.871       51.745    10253.541     9191.311     2677.494        2.154        1.106      144.566       51.481        0.127      346.678       25.096      857.489
07/15/2013  23:26:00     -173.473       29.527        1.755       98.836       79.877       39.794     9768.557     6380.343     1583.564        2.435        0.887      175.968       49.823        0.080      346.631       25.014      857.515
07/15/2013  23:27:00      -80.177       19.051       11.068       82.156       52.914       35.053     6749.559     2799.918     1228.739        0.884        0.539       82.410       39.857        0.234      346.531       24.845      857.509
07/15/2013  23:28:00      -90.676       16.560        1.798       74.952       76.910       31.920     5617.798     5915.176     1018.858        1.052        0.628       92.175       25.153        0.074      346.556       24.890      857.524
07/15/2013  23:29:00      -22.224      -75.169      -13.060       91.534       70.157       33.795     8378.541     4922.022     1142.114        1.038        0.722       78.385       41.690        0.283      346.635       25.021      857.523
07/15/2013  23:30:00     -210.516     -130.186       -8.601      114.688       94.792       49.209    13153.281     8985.555     2421.498        4.295        1.228      247.519       42.178        0.029      346.643       25.035      857.522
07/15/2013  23:31:00      -51.739      -24.741       -6.111       64.837       31.034       29.936     4203.780      963.131      896.173        0.469        0.303       57.350       11.967        0.044      346.572       24.917      857.538
07/15/2013  23:32:00      -42.382      -31.061       -4.033       57.167       28.817       19.917     3268.044      830.420      396.678        0.364        0.225       52.545       20.927        0.159      346.596       24.959      857.565
07/15/2013  23:33:00      -75.523       36.480        8.481       90.539       27.214       42.059     8197.280      740.622     1768.962        0.890        0.535       83.872       57.384        0.468      346.529       24.842      857.561
07/15/2013  23:34:00      -26.111       22.234      -11.919       67.450       32.197       17.698     4549.449     1036.639      313.215        0.361        0.295       34.295       18.074        0.278      346.539       24.859      857.591
07/15/2013  23:35:00      -16.068       35.892       -6.370       42.480       25.438       31.718     1804.512      647.098     1006.018        0.252        0.173       39.325       26.461        0.453      346.587       24.943      857.621
07/15/2013  23:36:00       12.085       -3.653       19.528       27.282       15.620       21.315      744.296      243.995      454.334        0.099        0.072       12.625       11.217        0.789      346.448       24.703      857.648
07/15/2013  23:37:00       35.972      -18.853       21.807       38.158       54.527       44.857     1456.011     2973.240     2012.191        0.428        0.322       40.613       42.721        1.107      346.588       24.942      857.699
07/15/2013  23:38:00     -156.838      -30.041        4.000       83.904       91.249       50.147     7039.825     8326.415     2514.702        2.170        0.894      159.690       47.683        0.089      346.626       25.007      857.704
07/15/2013  23:39:00      -29.364        5.722       31.008       79.165       49.554       40.300     6267.104     2455.611     1624.075        0.610        0.517       29.916       38.701        1.674      346.541       24.862      857.708
07/15/2013  23:40:00      -91.891      -13.605      -13.827       44.166       48.770       20.315     1950.639     2378.514      412.681        0.678        0.237       92.892       14.899        0.026      346.562       24.898      857.735
07/15/2013  23:41:00     -129.166      -40.569       -0.252       42.660       60.516       30.725     1819.845     3662.229      944.032        1.238        0.321      135.387       17.855        0.017      346.662       25.069      857.747
07/15/2013  23:42:00      -58.583       48.409       -8.715       65.656       69.326       30.240     4310.710     4806.058      914.445        0.794        0.502       75.996       27.845        0.134      346.593       24.952      857.756
07/15/2013  23:43:00        1.940      134.896       -3.987       45.060      113.019       43.727     2030.445    12773.257     1912.050        1.746        0.836      134.910       50.140        0.138      346.569       24.909      857.737
07/15/2013  23:44:00     -157.823      116.284      -27.734       91.761       69.651       42.209     8420.075     4851.221     1781.598        2.712        0.753      196.036       32.806        0.028      346.591       24.947      857.741
07/15/2013  23:45:00     -115.456       54.660      -28.039       69.437       50.678       34.215     4821.503     2568.251     1170.690        1.283        0.428      127.741       28.100        0.048      346.614       24.988      857.755
07/15/2013  23:46:00     -139.998       25.227      -16.794       61.615       39.539       32.951     3796.417     1563.333     1085.769        1.348        0.322      142.253       33.665        0.056      346.633       25.021      857.772
07/15/2013  23:47:00      -24.887       46.090      -13.916       27.636       17.960       14.983      763.742      322.575      224.494        0.212        0.066       52.380       11.491        0.048      346.605       24.972      857.802
07/15/2013  23:48:00       -5.387       31.165        4.269       27.711       29.398       18.323      767.886      864.228      335.739        0.149        0.098       31.627       16.977        0.288      346.561       24.898      857.799
07/15/2013  23:49:00       15.907       31.211       10.903       36.683       25.286       18.870     1345.613      639.383      356.066        0.184        0.117       35.031       16.187        0.214      346.542       24.864      857.779
07/15/2013  23:50:00      -63.062      149.123      -17.586       56.390       50.119       28.220     3179.778     2511.913      796.367        1.650        0.324      161.908       24.480        0.023      346.573       24.916      857.794
07/15/2013  23:51:00      -56.841      127.479      -23.620       36.476       40.994       19.149     1330.485     1680.527      366.678        1.171        0.169      139.578       13.432        0.009      346.613       24.987      857.795
07/15/2013  23:52:00      -76.424      -12.909       -9.454       30.485       41.060       16.663      929.331     1685.962      277.643        0.449        0.145       77.506       14.530        0.035      346.635       25.024      857.795
07/15/2013  23:53:00      -84.453       34.873       -9.594       43.025       31.005       30.448     1851.185      961.310      927.087        0.609        0.187       91.370       26.226        0.082      346.496       24.785      857.796
07/15/2013  23:54:00      -33.819       49.875       16.884       43.451       45.386       29.422     1887.988     2059.858      865.640        0.436        0.241       60.260       21.992        0.133      346.452       24.709      857.784
07/15/2013  23:55:00      -80.195       43.110      -23.949       22.127       40.428       22.738      489.608     1634.434      517.029        0.575        0.132       91.048       13.961        0.024      346.551       24.880      857.795
07/15/2013  23:56:00      -63.383      -21.207       -1.022       33.731       32.212       19.209     1137.761     1037.639      368.990        0.351        0.127       66.837       14.547        0.047      346.536       24.855      857.793
07/15/2013  23:57:00      -79.156      118.962      -16.575       42.338       60.217       30.103     1792.469     3626.059      906.178        1.351        0.316      142.890       31.536        0.049      346.512       24.813      857.789
07/15/2013  23:58:00      -21.542       32.551        1.516       34.019       40.578       27.439     1157.326     1646.539      752.884        0.254        0.178       39.034       19.503        0.250      346.484       24.764      857.771
07/15/2013  23:59:00      -33.159       10.080        1.258       25.069       18.161       11.211      628.437      329.829      125.689        0.114        0.054       34.658        5.789        0.028      346.521       24.828      857.741
